GFSFLT1_sfc_wetblb_003.txt.gz
Wetbulb
56.87 56.69 56.35 55.71 56.71 61.89 60.34 59.83 59.19 56.80 56.92 55.85 54.66 53.44 53.33 53.15 52.32 52.16 52.82 54.30 54.15 53.01 52.67 53.01 52.51 52.21 51.43 51.66 50.80 51.33 50.84 51.41
56.94 57.06 56.35 56.72 58.20 57.36 56.47 55.90 53.77 54.49 52.79 52.30 51.60 50.28 50.86 50.91 51.59 53.05 52.85 52.44 52.95 51.56 50.94 51.62 50.77 49.91 49.20 49.54 49.95 49.52 49.52 50.01
54.93 54.52 53.90 53.89 53.94 53.29 53.09 52.98 52.56 52.60 52.20 51.55 51.30 50.69 50.88 50.65 51.06 51.57 52.73 52.23 51.51 51.48 50.06 50.09 49.40 48.77 47.71 47.28 47.23 47.18 46.64 47.64
53.12 53.23 51.71 52.00 51.23 51.02 51.40 51.06 51.09 51.41 51.63 50.48 49.85 49.09 49.11 49.65 50.84 50.96 51.49 51.84 50.56 49.57 48.90 48.29 47.69 47.93 46.43 45.97 46.69 45.57 44.50 45.55
52.84 51.98 50.50 50.78 50.26 50.40 50.74 51.11 50.89 51.33 50.23 48.95 47.82 47.71 48.16 49.63 49.04 48.83 49.72 48.98 48.46 48.97 47.80 46.68 46.87 46.38 45.67 45.93 47.78 45.05 44.87 43.24
50.07 50.54 51.20 50.84 50.59 49.68 49.53 50.26 50.63 50.70 49.12 48.55 48.47 47.21 47.28 47.67 47.61 45.72 45.05 45.69 46.42 46.93 46.65 45.27 45.58 45.53 44.40 44.33 44.30 43.42 43.40 42.36
50.15 51.14 51.57 50.34 49.70 49.40 49.31 49.10 49.62 49.74 49.10 48.57 48.28 46.11 45.67 45.27 43.57 42.65 42.99 43.38 44.56 44.91 45.74 44.57 44.93 43.94 43.41 42.99 43.57 42.21 41.35 42.84
48.96 49.57 49.15 49.35 48.40 48.97 49.07 49.84 49.75 49.18 48.42 47.48 46.53 45.73 44.31 42.78 41.78 41.13 41.62 42.56 42.66 43.26 43.35 42.79 42.33 42.24 42.38 41.83 41.04 40.64 40.34 38.92
48.30 49.14 48.62 49.20 49.76 49.72 49.69 50.17 50.26 50.43 48.23 46.45 45.37 45.13 43.99 43.29 43.92 43.41 43.22 42.09 41.88 43.14 42.21 42.13 42.02 41.83 40.82 39.96 39.22 39.24 40.16 38.98
48.48 50.65 51.53 51.18 51.08 49.96 49.29 49.53 49.11 46.53 45.95 44.66 44.74 46.27 46.14 44.71 44.50 42.87 41.75 42.41 44.01 42.06 41.89 41.23 40.98 40.63 40.52 39.91 38.01 37.76 38.54 37.67
48.72 49.42 48.87 48.16 48.10 48.58 48.21 47.65 46.62 45.63 43.99 45.73 47.12 46.77 46.32 45.86 42.54 41.62 41.37 41.07 41.41 40.77 39.97 39.55 39.22 38.96 39.20 38.28 37.14 36.65 36.30 35.69
46.78 46.73 47.16 47.37 46.98 46.85 46.56 46.77 46.54 44.67 45.94 46.74 45.70 45.35 43.44 42.70 41.43 40.14 39.95 39.78 39.48 39.78 39.05 38.34 37.84 37.47 37.37 37.30 36.22 36.34 35.89 35.50
45.96 46.37 46.17 45.11 44.41 44.61 44.25 44.75 44.87 44.67 45.10 44.47 43.24 43.10 42.54 40.87 39.90 39.00 38.80 38.62 38.74 38.40 37.46 35.93 35.32 34.76 33.95 34.56 35.21 35.77 34.17 32.58
45.35 45.21 44.92 43.88 43.49 43.73 43.35 43.41 44.40 45.00 44.78 43.64 42.60 43.66 40.78 38.58 37.93 37.86 37.60 37.19 36.31 35.56 35.06 34.20 33.99 33.86 32.87 32.29 32.00 31.24 30.51 30.06
44.14 43.80 43.23 42.96 42.31 41.85 41.14 41.30 41.71 43.18 44.63 43.70 43.47 43.11 41.83 38.13 38.93 38.11 37.29 36.96 34.87 33.75 33.89 34.07 33.97 33.33 32.36 31.27 30.56 28.52 27.78 28.41
43.04 42.46 41.21 40.59 39.63 38.76 38.81 39.19 40.14 40.63 42.41 42.97 42.38 42.14 40.22 39.75 38.64 38.49 38.14 36.63 34.43 33.49 33.25 33.05 32.73 32.12 31.16 27.84 27.67 26.22 25.89 25.88
42.13 42.36 41.27 39.65 38.64 38.34 38.69 38.25 38.45 39.52 38.79 39.32 41.70 40.91 40.33 39.97 39.92 38.66 37.35 34.90 32.61 32.04 32.12 32.07 30.81 31.82 29.76 29.49 26.84 24.48 25.48 25.04
41.26 41.21 39.33 38.78 37.76 38.03 36.17 36.81 37.93 38.17 38.32 39.50 40.50 40.04 39.46 39.84 40.09 38.40 34.84 33.09 30.90 30.70 30.73 30.93 29.64 26.86 29.72 28.96 29.01 25.35 24.13 23.50
41.02 38.71 37.81 37.40 36.48 36.13 36.31 36.58 37.03 36.95 37.01 38.38 39.06 38.51 38.57 39.89 39.82 35.98 33.72 32.32 30.23 29.02 29.00 29.27 28.71 29.77 31.41 31.51 28.36 24.66 24.30 24.94

GFSFLT1_sfc_wetblb_006.txt.gz
Wetbulb
54.12 54.82 56.73 56.15 59.70 59.08 58.47 59.34 59.09 55.53 52.69 52.84 52.49 52.92 52.20 51.05 50.55 51.63 52.35 52.01 51.81 50.27 50.18 50.30 50.17 49.22 48.24 47.72 46.98 47.20 47.28 47.19
53.08 53.64 53.78 53.66 53.21 53.29 52.76 53.08 54.80 52.59 51.43 51.49 51.22 49.03 49.23 49.33 49.87 51.25 51.47 51.76 51.41 49.75 48.89 49.05 48.56 47.51 46.57 46.44 46.08 46.02 45.97 46.10
51.32 51.46 51.41 50.50 50.53 51.99 52.19 51.16 50.97 51.57 52.34 51.33 50.29 48.65 48.48 49.51 52.61 51.88 50.89 49.91 49.35 48.96 46.91 46.17 46.85 46.08 45.12 44.82 45.29 44.33 44.79 45.12
50.33 50.51 48.69 48.26 48.27 49.12 49.37 49.16 49.45 50.38 50.09 49.11 48.63 48.68 49.25 49.59 48.54 47.85 48.04 47.47 47.33 46.45 45.61 45.43 45.38 45.15 43.91 43.60 43.89 43.37 42.39 43.40
50.35 49.03 48.12 48.20 47.34 47.44 48.19 49.07 48.83 49.03 49.13 47.90 48.39 47.44 46.29 47.27 46.50 44.92 44.09 45.15 45.53 45.76 45.14 44.65 44.64 44.55 42.99 43.22 45.01 42.70 42.34 40.76
48.55 48.67 48.91 48.43 47.92 47.57 47.80 48.72 48.82 48.39 48.00 47.56 47.14 45.87 45.01 45.30 43.85 42.22 42.28 43.46 44.46 44.24 44.66 45.15 44.42 43.37 42.75 41.86 42.35 41.26 41.41 40.48
48.59 49.19 49.47 48.50 47.80 47.47 46.77 47.53 48.43 48.43 47.49 46.89 47.21 44.59 43.77 42.20 40.93 40.41 41.05 42.10 42.68 43.18 43.75 41.68 40.92 41.16 40.46 40.30 39.40 39.64 38.77 38.65
47.80 48.06 48.01 48.06 47.99 47.86 47.76 48.13 48.57 48.28 47.11 45.07 44.21 42.83 41.73 40.63 40.91 42.46 42.33 43.39 42.43 42.13 41.42 40.78 40.14 40.16 39.85 39.29 38.44 38.92 39.27 38.67
47.15 47.16 46.93 46.95 47.73 47.62 47.52 46.37 44.62 45.42 44.54 43.71 43.78 43.54 44.29 44.38 44.17 40.89 42.78 42.27 41.41 41.13 40.66 40.26 39.93 39.76 38.98 38.26 37.16 36.80 37.16 36.41
46.12 46.44 46.61 47.00 46.93 46.06 47.23 46.40 44.88 44.25 44.42 44.11 44.18 45.56 45.47 45.12 45.45 43.21 42.79 40.69 41.88 39.85 39.67 38.94 38.44 38.21 37.97 37.69 35.90 35.41 34.60 34.34
45.57 45.76 45.50 45.48 46.05 47.15 47.75 46.82 44.80 43.62 43.79 45.29 46.91 45.96 45.00 43.89 41.59 40.08 39.25 39.20 39.72 39.04 37.77 37.04 37.09 36.85 36.69 36.59 35.22 34.87 34.31 34.10
44.46 44.49 44.50 44.10 44.27 43.68 44.00 43.72 44.59 43.68 43.49 43.66 42.80 42.40 42.00 41.29 39.69 40.19 39.04 39.01 39.91 39.61 37.87 36.63 35.53 34.51 34.33 33.37 33.77 34.41 34.22 32.91
44.01 43.43 42.91 42.17 41.71 41.58 40.75 41.79 42.64 42.86 42.90 43.03 42.58 42.19 41.39 40.03 38.91 38.15 38.53 38.47 38.10 37.54 37.78 35.67 33.70 33.04 32.09 31.41 31.90 31.79 29.91 28.99
42.38 42.07 41.27 40.85 39.92 39.33 37.99 37.92 37.76 38.71 39.94 41.08 41.75 42.08 41.35 38.53 38.00 37.58 36.95 36.14 37.12 36.85 35.53 33.85 32.61 32.54 31.94 31.01 30.18 29.37 27.80 27.39
40.95 40.66 39.74 38.43 37.48 36.85 36.58 36.99 37.04 37.16 37.29 37.51 37.31 38.36 40.55 37.28 36.28 36.80 39.00 39.25 39.32 35.78 33.63 33.61 33.47 32.48 31.67 30.08 28.82 26.72 26.44 26.78
41.16 40.08 38.24 36.01 36.25 35.88 36.17 36.04 36.62 37.10 36.41 35.86 37.28 39.29 38.24 38.00 38.91 38.90 39.24 39.21 39.09 34.95 33.13 32.69 31.42 31.48 30.12 27.33 27.21 26.42 25.67 25.98
39.98 39.76 36.88 36.99 36.09 34.77 35.56 35.63 36.05 36.52 35.52 36.83 39.25 39.48 39.28 38.32 37.97 37.95 37.62 37.69 33.72 33.05 31.96 31.02 29.73 31.12 30.78 30.39 28.16 25.13 25.53 24.73
39.27 38.15 36.90 35.62 34.48 35.13 34.11 34.80 35.82 35.62 35.29 37.31 37.57 38.79 37.94 37.85 38.24 37.96 37.21 33.55 34.49 30.87 29.71 29.26 27.72 27.43 30.85 31.18 30.26 25.97 24.30 23.32
38.49 36.13 35.46 34.68 34.21 34.15 34.66 34.73 34.45 34.42 35.73 36.09 36.65 36.33 36.02 36.41 36.54 35.82 35.33 34.03 31.49 28.79 27.74 28.27 27.79 28.83 31.39 31.70 29.53 26.24 24.43 24.83

GFSFLT1_sfc_wetblb_009.txt.gz
Wetbulb
53.21 55.14 57.15 57.14 56.66 58.12 58.51 57.99 56.94 55.55 54.17 52.05 52.24 52.72 52.34 51.10 49.75 49.72 50.52 50.70 50.34 49.36 48.53 48.02 48.26 46.72 45.75 45.34 44.61 45.55 45.09 45.22
50.71 51.01 52.11 52.22 52.57 53.65 54.01 55.03 55.78 53.61 51.23 51.57 51.51 48.17 48.79 48.95 49.72 50.92 49.62 49.81 49.07 46.33 45.86 45.90 46.11 44.88 43.83 44.41 44.32 43.75 43.54 44.28
49.54 49.89 49.74 49.79 51.27 52.28 52.13 51.62 51.19 51.61 51.80 50.46 50.26 49.30 48.62 51.65 50.95 48.87 48.16 46.97 45.91 45.59 44.41 44.42 44.43 43.88 42.94 42.55 42.53 42.28 42.36 43.41
48.77 48.83 46.78 47.15 48.00 48.50 48.55 48.64 49.27 50.16 51.54 49.83 47.84 47.90 48.20 47.15 45.90 44.54 44.40 45.66 44.97 44.51 43.94 44.13 43.66 42.93 41.84 41.88 42.18 41.43 40.56 41.74
47.83 46.92 46.14 45.97 45.33 46.26 46.93 47.59 47.88 48.31 47.90 47.18 46.86 46.00 45.61 45.40 43.86 41.85 42.10 43.96 43.48 44.02 43.61 43.45 42.73 42.23 41.11 41.96 41.77 39.86 39.68 38.26
47.08 47.02 47.22 46.75 46.28 45.92 46.12 47.36 47.86 47.46 46.87 46.68 46.41 44.96 43.47 43.38 41.15 40.50 40.96 42.13 42.57 43.46 42.51 42.82 42.82 41.65 39.69 39.16 38.85 37.99 38.10 36.97
47.09 47.82 48.00 46.69 45.82 45.32 45.13 46.32 46.55 46.99 46.13 45.13 44.62 42.52 41.81 39.80 39.56 40.29 40.14 41.03 41.98 42.31 43.49 41.79 40.71 39.97 38.73 38.13 37.41 36.91 36.22 36.24
48.33 48.19 46.53 45.74 45.02 45.18 46.64 45.30 44.05 43.56 43.04 42.58 42.08 40.77 40.20 40.89 42.89 43.43 42.65 42.37 42.51 41.18 40.42 39.54 39.42 39.23 38.44 37.80 36.44 35.67 35.36 33.92
45.38 44.70 44.53 44.21 44.14 42.86 42.52 43.00 42.70 43.32 43.34 42.83 42.46 43.01 42.73 44.17 44.92 44.08 42.26 40.95 40.59 40.03 39.13 38.64 39.34 38.69 37.72 36.73 35.60 34.64 34.06 32.70
44.18 44.61 44.43 43.98 44.14 44.18 43.56 42.87 42.80 43.55 43.81 43.62 43.61 43.54 43.63 43.23 42.96 41.68 40.03 39.54 40.75 39.34 40.20 39.91 40.01 37.74 37.21 36.33 34.53 33.84 33.45 32.89
43.56 43.56 43.17 42.99 43.40 43.67 43.72 43.95 43.05 42.82 42.48 42.74 43.73 42.94 42.59 42.09 41.47 39.79 38.79 38.52 40.91 40.32 40.56 39.29 37.95 37.36 36.93 35.02 33.80 33.21 33.46 32.78
42.89 42.90 43.03 42.23 41.24 40.90 40.40 41.56 41.06 39.29 39.56 40.57 40.80 41.13 41.13 40.51 39.18 38.64 37.93 37.92 39.60 39.83 38.95 36.96 36.57 34.99 33.87 32.90 31.59 32.49 33.11 31.53
42.24 41.85 41.61 40.86 38.67 37.50 37.52 36.96 36.62 37.12 37.98 38.43 38.63 38.95 38.98 38.59 38.52 37.31 38.33 38.49 36.76 36.01 37.66 37.79 35.30 33.87 32.51 31.65 31.25 31.78 29.25 27.64
40.97 40.31 39.85 38.02 37.08 37.18 36.14 36.08 35.25 35.47 35.47 35.20 35.55 36.52 37.24 38.15 37.42 36.51 37.38 36.62 37.62 38.05 37.82 34.66 32.52 32.36 32.16 30.84 30.30 28.80 27.07 27.03
39.77 39.18 38.35 37.90 36.56 35.54 35.17 34.90 35.15 35.24 34.86 34.82 36.32 37.36 37.57 35.77 34.61 35.44 36.22 37.00 37.19 36.16 37.10 33.29 32.60 32.27 31.27 30.09 28.18 26.62 26.59 27.17
40.03 38.33 37.35 36.30 34.89 34.77 34.46 34.56 35.16 35.41 34.68 34.98 36.24 37.73 37.35 36.78 36.31 36.46 36.27 36.99 37.44 37.03 33.33 31.88 31.98 30.94 29.91 27.42 27.37 26.79 25.90 25.39
40.33 39.87 37.90 35.91 34.62 33.58 34.45 34.51 34.68 35.18 34.12 35.19 36.74 36.58 37.46 37.36 37.10 36.77 38.29 37.41 37.11 31.01 34.09 31.37 28.97 30.13 31.80 31.28 29.19 25.49 25.69 24.99
38.68 38.32 35.88 34.96 33.79 33.90 32.99 33.67 34.40 34.06 33.65 35.85 36.16 35.70 36.08 35.55 35.92 36.37 35.62 34.61 33.02 32.00 28.61 27.93 27.40 27.51 31.39 31.93 32.17 27.64 26.50 24.34
38.24 36.75 34.62 34.02 32.96 32.72 33.28 33.34 33.31 32.93 33.24 34.86 35.08 34.76 34.33 34.32 34.56 34.45 33.49 34.22 32.56 27.95 27.41 27.83 27.26 29.07 31.76 31.16 30.27 27.11 24.40 24.44

GFSFLT1_sfc_wetblb_015.txt.gz
Wetbulb
56.00 58.25 60.03 61.36 61.65 62.16 61.86 60.83 58.93 57.58 57.15 55.88 55.91 56.09 55.40 55.46 54.80 53.98 53.61 53.72 53.54 52.70 52.15 52.10 52.06 51.12 50.70 50.81 50.04 49.83 49.40 48.12
56.24 57.75 59.47 59.67 60.15 60.25 60.14 59.31 57.52 56.85 55.49 56.17 55.86 56.34 55.07 53.12 52.60 52.43 52.21 51.57 51.42 51.78 51.36 51.15 51.08 50.22 50.51 50.36 50.03 47.78 47.31 48.11
54.42 56.31 58.22 59.60 59.56 59.02 58.96 58.01 56.67 57.33 57.86 57.29 57.54 55.83 54.35 51.68 50.77 50.71 50.40 50.61 50.45 50.37 50.82 50.60 50.75 50.28 49.90 49.16 47.96 46.48 46.85 47.57
53.42 54.60 56.93 57.66 58.16 56.87 55.59 55.59 56.01 55.83 55.55 54.57 54.06 54.13 53.23 51.80 50.04 49.23 48.98 49.86 50.01 50.69 50.68 51.35 50.55 49.42 48.63 47.39 46.81 45.78 43.79 45.33
52.35 51.53 51.50 52.28 51.85 53.25 53.58 53.23 52.69 52.21 52.59 52.94 52.62 52.30 51.62 49.75 48.56 49.08 50.26 49.72 50.33 50.03 49.73 49.44 48.72 48.31 47.01 46.32 45.53 44.39 42.96 39.95
49.62 49.58 49.66 50.09 50.90 51.70 51.60 51.34 51.07 50.98 51.90 52.31 51.46 50.02 49.16 48.79 49.49 49.04 48.77 49.28 48.69 48.00 47.82 48.06 47.63 46.69 45.75 44.96 43.91 42.13 42.02 39.99
49.58 50.40 50.83 49.88 50.41 50.57 50.43 49.89 49.52 50.67 51.04 51.22 50.89 49.52 48.15 48.77 49.08 48.84 49.12 49.10 49.28 48.57 47.08 47.01 46.41 45.49 44.44 43.76 42.77 41.36 41.10 40.82
49.31 49.76 49.73 49.51 49.48 49.26 49.07 48.97 47.74 48.62 48.58 48.23 48.20 47.75 47.75 47.67 48.12 48.19 48.07 48.10 48.55 48.51 46.64 45.66 44.60 43.57 43.39 42.55 41.41 40.23 40.57 39.53
49.59 48.89 47.90 47.51 47.81 48.05 48.27 48.21 47.64 48.31 48.33 48.08 48.82 48.86 48.08 47.11 46.30 45.70 45.56 45.83 46.42 47.23 46.13 44.60 43.77 43.37 42.36 42.04 42.01 41.53 40.96 40.28
48.43 47.24 47.30 47.07 47.26 47.49 48.00 47.20 45.80 44.99 45.89 45.86 45.15 44.96 44.38 44.02 44.53 44.87 44.58 45.39 45.05 45.68 44.88 43.67 44.42 43.50 42.51 42.70 41.49 41.05 40.52 40.34
47.19 46.96 46.55 47.40 47.94 47.80 46.76 44.97 43.42 43.54 44.02 43.94 43.04 43.24 43.51 43.71 43.57 42.63 43.17 44.29 44.68 44.87 43.93 44.06 43.61 43.18 42.60 41.78 40.69 40.72 39.51 39.41
46.14 45.23 45.83 46.10 46.74 45.38 43.26 41.05 43.02 42.43 42.55 42.52 42.69 42.75 43.11 43.25 42.74 42.70 42.70 43.59 43.93 43.67 43.82 43.12 42.50 41.14 40.60 40.14 40.02 38.87 37.17 37.64
44.87 44.73 43.94 43.59 42.88 42.09 39.99 42.84 42.54 42.16 41.56 41.59 41.80 42.32 42.57 42.14 41.88 42.10 42.80 42.04 42.40 41.74 41.77 40.75 41.25 41.40 40.39 38.66 37.78 37.07 36.36 36.18
43.85 43.30 41.97 40.54 39.72 40.77 42.08 41.23 40.87 40.51 40.23 40.73 41.23 41.24 41.45 41.51 41.51 41.91 42.03 41.42 41.22 41.25 40.75 40.22 39.48 40.63 38.79 37.27 36.24 35.83 35.55 34.85
43.66 43.12 42.10 40.34 40.59 41.44 40.03 41.28 40.86 40.29 40.04 40.16 40.10 40.93 41.24 41.26 41.35 41.46 41.22 41.44 41.21 41.69 40.76 39.06 38.79 37.06 36.45 35.89 35.27 34.83 33.68 33.13
42.46 42.26 41.38 40.44 39.72 39.94 41.56 40.70 40.17 40.34 39.67 39.53 39.87 40.70 40.98 40.95 40.79 40.63 40.56 40.77 40.95 41.68 40.47 37.35 37.01 35.83 34.55 34.91 34.04 33.40 32.79 32.43
42.60 42.55 41.56 39.12 40.75 41.68 40.27 39.42 39.39 39.62 39.19 38.95 39.44 39.55 40.03 40.31 40.08 39.52 39.44 39.83 39.78 39.82 37.89 37.12 35.94 33.69 32.77 32.93 33.16 32.78 31.63 30.08
42.55 42.36 42.86 41.98 41.85 40.27 39.58 39.11 38.77 38.20 37.97 38.22 38.37 38.47 38.75 39.21 38.75 38.32 38.06 38.11 38.20 38.55 37.90 35.22 33.44 33.91 32.41 31.70 30.05 30.75 29.08 28.18
42.52 42.58 42.89 42.92 40.67 39.24 38.48 37.66 37.11 36.80 36.90 37.18 37.72 37.67 37.62 38.19 37.74 37.00 36.95 37.03 37.10 37.54 35.08 33.27 33.31 32.00 30.60 28.99 27.90 29.35 28.19 27.50

GFSFLT1_sfc_wetblb_018.txt.gz
Wetbulb
60.91 62.29 63.44 64.64 66.03 66.51 66.02 64.66 64.42 63.25 61.05 61.32 61.31 59.83 59.88 59.98 59.42 58.65 57.71 57.59 56.99 57.59 56.79 56.28 55.78 55.05 54.51 54.09 53.37 54.06 53.00 52.23
61.60 62.76 63.81 64.49 65.29 65.15 64.94 63.55 63.54 63.23 62.13 60.71 59.61 59.50 59.55 58.41 57.82 56.76 56.26 55.97 55.47 55.34 55.33 55.38 55.00 54.06 53.72 53.61 53.05 52.21 51.07 51.72
60.60 62.33 63.30 63.85 64.20 64.43 64.14 63.56 63.01 62.70 62.42 62.11 62.35 60.86 58.92 57.18 56.70 55.48 55.06 54.45 54.31 54.20 54.61 54.16 54.18 53.09 53.11 52.72 51.53 49.52 49.65 50.36
60.00 61.33 63.05 63.64 62.72 63.58 63.28 62.54 61.63 61.63 61.05 60.27 59.27 58.88 57.33 56.95 56.14 55.94 54.17 54.42 54.10 53.81 53.76 53.42 52.94 52.28 50.78 51.25 50.28 48.43 46.73 48.04
60.47 60.05 60.21 61.76 61.43 60.74 60.54 60.15 59.47 57.93 57.33 57.82 57.39 56.75 56.07 54.70 54.59 54.62 55.21 54.26 53.91 53.34 52.80 52.48 51.88 51.50 50.70 50.57 49.53 47.49 45.65 43.93
56.94 57.36 58.55 58.55 58.60 58.25 57.85 57.05 56.33 56.90 57.20 57.46 56.37 54.70 54.02 54.20 54.72 53.02 53.61 53.78 53.63 52.63 52.21 51.61 51.51 51.13 50.35 49.29 47.29 46.20 45.86 44.30
55.34 55.79 55.57 55.59 56.40 56.49 56.53 55.97 55.40 55.83 55.62 55.18 54.31 53.07 51.92 51.53 51.05 50.23 49.46 49.49 49.70 50.36 50.96 51.51 51.31 50.52 49.26 47.80 46.50 46.23 45.16 43.74
53.80 53.38 53.83 54.03 54.80 55.20 55.12 54.37 53.39 53.68 53.07 52.13 51.66 51.31 50.73 48.60 47.64 46.81 46.23 46.07 46.49 47.18 48.39 49.18 49.66 49.65 48.07 46.55 45.28 45.63 43.46 42.16
54.14 54.39 54.42 54.35 54.06 54.04 54.05 53.33 52.07 51.57 51.04 50.68 49.74 47.70 46.45 47.06 46.53 46.31 45.96 45.60 45.81 47.35 47.97 48.93 49.46 48.15 45.52 44.82 46.08 44.89 43.71 42.50
54.25 54.04 54.01 53.83 53.51 53.71 53.09 51.46 49.80 49.06 47.59 46.70 46.74 46.31 46.91 46.31 46.47 46.62 45.77 45.85 45.18 46.42 48.15 48.25 47.86 47.11 46.25 45.12 45.11 43.81 43.54 42.75
54.06 53.18 52.70 53.31 53.45 52.53 51.35 49.73 47.67 46.01 45.70 46.36 47.19 46.69 46.54 46.43 46.36 45.28 45.00 45.26 45.32 45.56 46.32 46.87 46.24 46.79 46.34 44.57 44.23 43.50 42.33 41.97
53.39 52.65 52.73 52.72 52.43 50.40 48.66 47.91 45.31 43.82 46.67 46.91 46.41 46.37 46.59 46.04 45.45 44.88 44.50 44.82 44.60 44.18 44.59 45.34 45.19 44.52 43.64 43.97 43.43 42.92 41.42 40.29
53.38 51.85 51.48 51.36 50.35 48.52 47.51 46.82 44.58 47.16 46.24 45.56 45.14 46.31 46.11 44.91 44.71 44.30 44.58 43.90 44.35 44.01 43.84 43.54 43.44 43.23 43.48 42.44 42.38 41.52 39.61 38.99
51.80 50.71 49.63 49.32 48.15 47.09 46.14 45.29 45.93 45.87 45.22 44.78 45.25 45.18 44.57 44.26 44.39 44.01 43.82 43.40 43.46 43.69 43.58 43.06 42.62 42.45 42.46 42.10 40.50 39.55 39.43 38.96
50.44 49.68 48.72 47.95 46.40 45.32 44.15 44.86 47.66 46.44 44.98 44.36 44.07 44.41 44.29 44.33 44.05 43.57 43.33 43.26 42.70 42.85 43.27 43.04 42.92 41.34 40.35 40.12 39.37 38.89 38.46 37.86
49.27 49.15 48.37 46.90 45.33 44.20 44.83 48.16 47.87 45.79 44.39 44.11 44.32 44.51 44.37 44.03 43.68 43.07 42.98 42.68 42.49 42.62 42.23 42.31 41.77 40.59 39.26 38.66 38.85 38.00 37.61 36.78
49.21 49.19 48.84 46.83 45.85 43.54 47.52 47.22 45.60 44.99 43.98 43.61 43.99 43.56 43.38 43.11 42.87 42.32 42.06 41.58 41.60 41.54 41.32 41.50 40.92 39.67 32.57 33.07 32.80 36.55 36.06 34.88
49.00 49.14 48.75 47.50 45.49 47.24 46.41 46.06 44.80 43.46 43.14 42.68 42.49 42.63 41.96 41.72 41.79 41.52 41.04 40.57 40.94 40.46 40.79 40.75 39.63 38.84 32.54 30.97 29.46 35.17 34.39 33.38
49.81 50.06 48.15 47.89 47.08 46.73 46.41 44.42 43.00 42.30 41.57 41.27 41.45 41.08 40.45 40.93 41.22 40.78 40.80 40.55 39.83 39.79 39.48 38.90 38.17 36.17 30.64 28.67 28.32 34.42 33.48 32.29

GFSFLT1_sfc_wetblb_021.txt.gz
Wetbulb
62.97 63.65 63.61 64.07 65.92 67.46 67.06 66.16 65.09 64.50 63.45 62.91 63.21 63.12 62.90 62.21 61.43 60.46 59.85 59.08 58.81 59.26 58.50 57.75 57.16 56.37 56.09 55.93 55.06 55.06 54.06 52.97
63.44 64.17 64.74 65.14 66.65 67.02 65.01 64.13 64.31 62.99 63.84 63.24 62.68 60.25 60.63 60.50 59.55 58.87 58.41 57.77 57.05 57.04 56.98 56.80 56.71 55.57 55.14 54.93 53.98 52.75 50.32 51.46
62.45 63.74 64.52 65.04 65.53 66.06 64.61 64.44 64.18 64.68 64.50 63.39 62.23 62.08 60.52 59.13 58.66 57.74 57.22 56.77 56.45 56.09 55.93 55.49 55.30 53.89 53.42 52.55 51.96 49.82 49.35 50.35
61.43 62.82 64.07 65.04 64.15 63.95 63.84 64.08 64.52 63.96 63.53 62.32 61.41 60.31 58.70 57.55 57.48 57.03 56.14 56.26 56.08 55.63 55.11 54.46 53.57 52.25 50.40 50.98 50.69 49.62 46.65 47.66
62.12 62.73 63.48 64.00 64.35 65.31 64.65 63.71 62.74 62.16 61.22 59.58 58.84 58.72 57.21 56.71 56.59 56.22 56.42 56.08 55.14 54.65 53.60 53.05 52.34 51.52 50.81 50.32 49.95 48.77 47.25 44.44
61.63 62.23 62.53 62.94 62.41 62.11 62.11 61.14 59.01 59.04 59.48 59.45 58.19 56.90 56.31 56.13 55.65 53.46 53.48 52.86 51.77 51.10 50.85 51.22 51.82 51.23 50.95 50.32 49.37 48.21 47.01 45.73
59.64 60.30 60.22 59.63 60.19 59.60 58.82 57.89 57.53 58.22 57.89 57.49 56.45 54.43 53.06 52.08 50.67 49.16 48.66 48.39 48.58 48.90 48.61 48.95 49.45 50.14 49.95 49.65 49.11 47.53 46.67 45.72
57.02 56.94 56.88 57.18 57.30 57.64 57.69 57.15 55.99 56.42 55.19 53.87 53.41 52.15 50.07 48.72 47.85 47.08 46.62 46.65 46.69 47.20 47.97 48.11 48.16 48.98 49.50 48.86 47.56 46.45 46.35 44.06
55.91 55.88 56.27 56.47 56.79 56.73 56.48 55.90 54.69 53.86 53.03 51.49 49.96 48.58 47.29 47.54 47.72 47.33 46.62 46.01 46.18 47.10 47.07 47.87 48.47 48.71 48.26 47.30 46.20 46.24 45.57 44.19
55.44 56.21 56.55 56.56 56.42 56.08 56.31 55.40 53.37 51.74 50.70 50.42 48.09 47.20 47.90 48.39 47.66 47.89 46.44 46.49 45.78 46.15 46.63 46.52 47.47 47.58 47.57 46.91 46.24 45.75 44.70 43.90
55.91 56.18 56.36 56.57 56.34 56.43 55.99 54.00 51.17 50.59 49.61 48.40 46.59 48.14 48.40 48.74 48.54 46.65 45.84 46.00 45.88 45.52 45.30 45.37 45.67 46.24 46.71 46.84 45.52 45.09 43.82 43.71
55.97 56.00 56.01 55.94 56.14 54.98 53.30 51.25 50.75 49.93 47.99 46.91 48.28 47.63 47.67 47.91 47.28 46.67 45.70 45.55 45.32 44.60 44.57 44.42 44.31 44.36 44.58 44.18 43.80 43.70 42.80 42.44
56.62 55.98 55.37 55.14 54.44 53.27 51.31 50.86 50.77 48.58 48.44 46.79 47.56 47.72 47.81 47.00 46.85 46.34 45.91 44.89 44.98 44.22 43.95 43.79 43.89 43.85 43.46 43.24 42.54 42.59 41.65 40.57
56.69 55.96 54.46 54.40 53.77 51.99 50.70 50.66 49.69 48.61 46.51 46.88 47.18 47.12 46.88 46.51 46.18 45.88 45.40 44.62 44.05 43.89 43.73 43.23 42.92 42.54 42.00 42.35 40.95 40.70 40.23 40.01
56.44 55.55 54.23 54.09 53.70 51.58 50.21 49.74 49.97 47.91 47.18 46.67 46.40 46.43 46.57 46.46 46.25 45.33 45.03 44.43 43.44 43.22 43.44 42.97 42.95 42.11 41.42 40.90 39.99 40.02 39.68 39.38
55.36 54.57 53.84 53.50 52.65 50.89 49.75 49.52 49.91 48.51 47.00 46.10 45.91 46.51 46.56 46.18 45.29 44.88 44.54 43.90 43.32 43.11 42.62 42.49 42.60 42.14 40.34 40.34 39.84 39.50 38.50 37.70
54.37 53.90 53.52 52.33 51.34 49.47 48.31 49.29 48.62 48.72 46.56 45.59 46.01 45.75 45.44 45.13 44.34 43.99 43.48 43.14 42.78 42.27 41.84 41.44 41.61 41.06 33.18 33.10 32.66 36.61 37.11 36.30
53.70 53.45 53.08 52.61 51.38 49.50 47.90 49.33 48.85 46.89 45.59 45.43 44.90 44.65 43.91 43.41 42.97 42.18 42.05 42.24 42.40 41.56 40.96 40.56 39.91 38.92 33.44 31.36 29.83 34.55 35.78 35.49
53.58 53.64 53.36 53.46 52.60 49.72 49.51 48.63 47.11 45.53 44.33 43.57 43.77 43.25 41.71 41.62 41.33 41.53 41.80 42.09 41.50 40.53 40.18 40.02 39.36 36.64 32.00 29.75 29.35 33.59 35.49 34.78

GFSFLT1_sfc_wetblb_024.txt.gz
Wetbulb
61.27 61.47 61.48 63.07 65.45 65.46 65.05 65.26 63.56 63.44 62.44 61.47 62.07 62.20 62.02 60.86 60.44 59.00 59.04 57.54 57.48 56.64 56.29 54.79 54.33 53.99 53.24 52.73 51.69 51.44 50.22 47.40
62.03 63.30 64.03 63.27 65.26 65.28 64.93 63.27 63.18 63.12 61.82 60.79 61.15 60.29 59.68 59.51 57.62 57.93 57.23 56.51 55.74 54.41 54.61 54.46 53.93 52.38 51.87 50.98 48.98 47.81 46.87 46.93
61.81 62.67 63.82 64.67 65.32 65.02 64.04 63.41 63.10 63.00 62.78 62.27 61.52 59.63 59.23 57.28 56.68 56.23 55.72 55.59 54.60 54.62 53.43 52.66 52.12 50.36 49.31 48.71 47.46 45.88 45.59 45.94
60.82 62.09 63.05 64.40 63.97 63.98 63.56 63.40 63.37 63.66 62.95 61.77 59.39 57.79 56.59 55.23 55.07 54.16 54.30 54.80 54.35 53.55 52.77 51.36 49.98 48.95 47.21 47.38 46.29 45.82 42.69 43.00
60.93 61.72 62.34 62.53 62.85 62.87 63.75 63.27 63.40 62.46 61.93 59.70 57.48 55.53 53.99 54.78 54.52 54.28 54.08 54.44 53.17 51.81 50.86 50.09 49.76 49.08 47.83 47.26 47.04 44.89 43.12 40.15
60.56 61.48 61.93 62.06 63.25 63.56 63.28 62.40 60.63 59.83 59.07 58.72 57.07 54.88 54.73 54.28 52.80 51.17 50.58 50.03 49.02 48.30 47.72 47.27 46.60 46.43 47.37 46.93 46.34 44.57 43.05 41.10
60.91 62.51 62.10 61.64 62.06 61.06 60.29 57.89 57.20 58.07 57.60 56.63 54.86 52.49 50.67 49.20 47.80 46.47 46.95 46.57 46.43 46.75 46.97 45.77 45.97 45.86 45.69 46.52 45.50 44.93 43.72 42.52
59.97 59.58 58.73 58.63 58.20 57.72 57.18 56.21 55.72 56.09 54.64 52.94 51.99 49.43 48.73 47.03 45.50 46.07 45.09 44.47 44.17 44.48 44.59 44.51 44.71 45.43 46.02 45.79 44.29 43.03 42.39 41.38
57.81 57.77 57.24 56.77 56.46 56.29 56.07 55.26 54.51 53.60 52.61 50.45 49.25 48.62 46.99 46.55 47.39 45.59 44.75 43.97 43.57 44.12 44.16 44.39 44.44 45.45 45.14 44.68 43.17 42.47 42.37 42.08
56.11 56.18 56.03 55.72 55.83 55.79 55.76 54.79 53.53 52.19 49.99 49.31 48.16 47.69 46.89 46.85 46.92 46.09 44.90 44.69 44.15 43.72 43.78 43.35 43.40 43.31 44.30 42.30 43.28 43.20 43.20 41.37
55.37 55.08 55.59 55.87 56.19 55.88 56.20 55.13 52.32 50.26 49.88 48.85 47.53 47.11 48.41 47.60 46.57 45.04 44.04 43.60 43.67 43.57 43.15 42.74 42.54 42.33 42.20 42.62 42.22 41.57 40.34 39.96
54.94 55.09 55.83 56.20 56.07 55.25 55.10 53.55 49.86 49.07 49.21 48.02 47.01 47.20 47.81 47.14 46.12 45.13 43.80 43.70 43.55 42.90 42.75 42.15 41.62 41.47 41.62 41.04 40.30 40.38 39.87 39.04
55.61 55.57 55.79 55.40 54.87 54.68 53.55 51.16 49.54 49.98 48.21 46.81 46.90 47.85 46.79 46.39 45.74 44.89 44.32 43.01 43.43 42.46 42.41 41.78 41.82 41.60 40.72 40.00 39.23 39.45 38.49 37.74
56.11 55.57 54.81 54.45 54.29 53.74 51.87 50.35 50.12 49.07 47.67 46.89 46.71 46.67 46.23 46.03 45.03 44.74 44.36 43.10 42.46 42.13 41.88 41.31 41.04 40.83 40.54 39.84 39.10 37.83 36.97 36.66
56.14 55.35 54.87 54.19 54.17 53.04 51.60 49.94 50.43 48.83 48.30 47.25 45.20 45.90 45.82 45.11 44.91 44.39 43.52 43.44 41.89 41.28 41.32 41.12 41.00 40.57 40.27 40.19 38.80 36.85 36.68 36.63
55.20 55.74 54.61 54.27 53.60 53.18 51.52 50.12 49.71 49.45 47.82 45.76 45.29 46.08 45.65 45.05 45.07 44.29 43.53 42.68 41.95 41.68 40.79 40.22 40.08 40.21 38.43 37.32 36.66 35.54 34.90 34.31
54.53 55.69 55.74 54.16 53.57 53.08 51.30 49.66 48.87 49.94 47.22 45.44 46.06 45.98 45.13 44.72 44.27 43.11 42.59 42.00 41.29 40.90 40.09 39.72 39.22 38.90 34.14 33.47 32.20 31.38 33.22 32.77
53.27 54.56 55.17 54.71 53.68 52.73 50.14 48.88 49.81 48.29 45.70 45.63 45.63 44.96 43.78 43.12 42.50 41.48 40.66 40.54 40.90 40.22 39.89 39.06 38.09 34.19 33.79 32.24 30.75 30.57 31.05 30.92
53.21 53.85 54.47 54.42 54.08 51.97 50.23 49.01 48.75 46.13 44.69 44.03 43.87 43.57 42.30 41.16 40.15 39.82 40.02 40.14 39.47 39.05 37.94 38.39 37.80 34.73 33.36 31.65 30.16 27.78 30.25 30.78

GFSFLT1_sfc_wetblb_030.txt.gz
Wetbulb
60.66 61.78 62.36 61.87 61.39 61.49 61.35 60.27 58.91 58.41 57.57 57.54 57.72 57.30 57.38 56.72 55.90 55.55 53.54 52.62 53.54 51.38 49.99 49.65 49.36 47.81 46.07 45.85 44.70 44.50 44.24 42.45
58.96 61.45 61.48 60.31 60.43 60.17 60.53 59.24 58.58 57.94 57.02 56.28 56.12 55.94 55.54 55.05 53.76 52.78 51.77 51.03 51.05 49.83 48.99 48.04 47.55 46.22 44.61 45.19 43.56 42.80 42.08 41.47
56.08 58.83 59.62 59.41 59.43 60.74 60.14 59.74 58.78 58.00 58.05 57.04 57.58 56.34 53.54 51.84 50.98 50.40 50.41 50.28 49.91 49.67 48.16 47.11 46.72 45.35 44.07 43.26 42.44 41.17 41.54 39.93
54.16 56.12 58.17 58.87 59.01 60.12 60.03 59.74 59.42 58.44 58.23 58.10 55.01 52.10 50.47 49.15 48.19 48.50 49.28 50.11 49.93 49.02 48.08 46.34 45.24 45.14 44.19 43.17 42.87 41.62 39.09 39.21
56.11 56.38 58.13 58.76 59.71 60.36 60.43 60.57 59.92 59.33 58.43 57.17 54.31 52.88 50.34 48.33 48.01 48.12 48.76 49.44 45.92 45.25 43.88 42.75 42.33 42.02 40.92 41.38 44.25 40.88 39.23 37.72
55.73 57.64 59.39 59.92 60.27 59.96 60.16 60.27 59.89 59.69 59.17 55.37 52.98 50.17 48.97 48.94 47.85 46.20 43.25 42.78 43.78 43.96 42.96 41.45 41.25 41.05 40.47 40.42 40.61 40.69 39.56 37.56
55.49 58.58 60.48 59.97 60.31 60.22 60.16 59.29 58.67 57.80 58.95 53.20 51.72 48.69 47.36 45.37 42.05 40.60 41.01 41.85 42.78 42.12 42.25 40.83 40.31 40.33 40.73 41.02 40.34 39.65 39.61 39.09
56.06 57.75 59.00 59.39 59.35 59.18 59.13 56.17 50.79 50.37 51.04 49.44 48.61 45.64 45.23 42.95 41.43 41.25 41.06 42.22 41.69 40.90 40.69 41.32 39.92 40.06 39.83 40.98 39.75 39.32 38.73 37.76
56.46 57.07 57.60 57.98 57.88 56.16 53.83 51.65 47.42 46.51 46.66 44.84 44.18 43.48 43.04 42.39 42.22 43.19 42.96 41.87 41.24 41.19 41.20 39.78 39.33 39.32 38.21 37.90 38.29 38.98 39.03 37.79
54.08 53.59 53.79 52.01 50.90 50.53 51.46 50.11 48.19 45.57 44.81 45.11 45.27 44.57 43.86 43.03 42.99 42.35 42.72 41.71 42.23 41.41 39.78 38.54 40.53 39.61 38.18 37.60 37.44 38.00 38.56 38.06
52.59 53.01 52.10 51.82 50.91 50.22 49.38 48.84 47.74 45.70 44.82 44.54 44.43 44.05 44.10 43.12 43.46 42.31 42.46 42.22 41.73 41.43 40.34 40.00 38.25 38.00 37.73 37.77 37.26 36.92 36.48 36.31
53.02 52.96 52.51 52.17 51.42 50.18 49.45 47.67 45.07 44.87 43.91 42.87 43.38 43.38 43.66 44.19 43.94 42.95 42.34 41.95 41.78 40.64 39.41 39.87 38.20 38.26 37.64 36.48 36.49 36.65 36.44 36.28
52.96 52.63 52.00 51.20 51.02 49.94 49.32 47.42 45.35 44.51 44.23 43.07 42.86 43.08 44.98 44.44 43.68 43.06 41.56 41.31 40.85 39.45 38.75 38.61 38.52 38.71 38.08 36.79 36.45 36.79 36.10 34.90
51.25 51.05 51.09 51.02 51.05 50.61 49.59 47.29 45.53 44.88 45.34 43.15 42.24 43.15 44.24 43.52 43.57 41.56 40.80 39.02 38.82 38.36 38.06 38.01 38.27 38.43 38.37 38.41 37.24 36.08 34.54 34.96
49.53 49.99 50.77 51.33 51.32 50.81 48.54 45.48 45.68 45.82 44.28 42.37 42.46 44.36 44.58 42.02 42.43 40.39 39.68 39.28 39.76 38.44 38.26 38.15 39.05 37.73 38.25 38.36 36.28 34.82 34.65 34.76
48.32 47.98 48.92 49.19 49.17 48.91 46.31 45.61 46.49 44.97 43.85 42.55 43.37 44.56 43.76 42.84 40.27 39.32 39.84 39.45 39.19 38.83 38.11 38.60 38.63 38.11 37.70 36.64 35.37 33.26 31.48 31.01
47.70 48.93 48.87 48.95 49.02 48.76 47.68 45.91 45.48 44.87 44.05 43.75 44.77 44.45 43.23 41.94 40.71 39.51 37.41 38.14 38.38 38.53 37.87 37.29 36.00 37.38 36.02 36.20 33.46 30.48 31.26 30.15
48.23 48.70 48.61 48.43 48.99 48.47 47.41 46.13 44.78 43.92 44.02 44.84 43.36 41.99 39.77 39.07 38.90 38.19 37.80 37.88 37.87 37.46 36.50 36.68 36.48 35.95 35.27 35.16 33.73 29.94 28.96 27.92
44.95 46.19 48.41 48.00 47.94 47.19 44.97 45.60 45.00 44.27 41.62 40.69 39.99 39.19 38.13 38.25 38.27 38.19 37.97 37.57 36.69 35.84 35.70 36.35 35.83 35.20 34.85 34.66 32.38 27.55 27.53 28.37

GFSFLT1_sfc_wetblb_033.txt.gz
Wetbulb
58.59 58.82 59.72 60.42 61.28 60.85 60.41 59.60 58.28 57.45 56.73 56.99 57.13 56.71 56.29 56.33 55.95 55.77 53.87 53.97 52.57 50.23 49.61 48.81 47.48 45.59 44.71 44.04 42.85 42.87 42.09 41.27
59.33 59.76 60.04 61.19 59.93 59.38 59.90 58.30 57.51 56.91 56.43 55.91 54.90 54.91 54.83 54.47 54.13 51.90 51.36 51.98 50.61 48.90 47.71 47.04 46.11 44.60 43.88 43.76 42.32 41.24 41.18 39.84
58.91 59.51 60.33 60.49 59.84 59.63 59.56 58.81 57.56 56.96 57.12 56.05 56.51 55.37 53.78 52.79 51.69 49.91 50.12 49.69 49.21 48.54 46.95 45.82 44.74 43.80 42.75 42.19 41.58 40.51 40.59 38.89
57.32 58.80 59.62 59.15 58.52 59.04 59.48 58.97 58.06 57.28 56.96 56.91 53.58 51.06 50.03 48.52 47.59 47.34 48.27 49.18 48.85 47.68 46.16 44.89 44.02 43.98 41.99 41.54 41.53 40.54 38.82 39.43
55.94 58.02 58.60 58.38 57.94 59.37 59.93 59.46 58.41 57.53 57.34 56.62 54.31 52.49 50.67 47.80 47.18 47.20 47.63 47.74 45.27 43.77 42.69 41.83 41.38 41.17 40.26 40.55 41.93 40.10 38.79 37.34
53.76 56.27 58.23 58.70 58.27 58.86 59.28 59.02 59.45 58.57 57.40 56.99 54.42 51.25 48.68 47.60 46.97 46.29 41.45 42.28 42.87 43.10 42.62 42.25 41.68 40.38 39.73 39.51 39.92 39.80 38.96 37.01
53.26 54.60 57.34 57.61 58.44 58.86 58.73 59.17 58.93 58.75 57.77 55.69 54.04 50.38 47.67 46.88 44.22 40.87 40.42 40.84 41.36 41.17 41.85 41.13 42.30 41.68 40.27 40.92 39.38 39.29 39.27 38.48
54.13 56.63 57.16 57.71 58.03 58.54 58.73 58.91 58.32 57.98 57.73 53.83 51.35 49.21 48.03 47.04 43.98 41.00 41.44 40.72 40.25 41.08 42.09 41.78 41.64 40.98 41.05 40.99 39.24 38.94 37.69 36.91
55.36 57.33 58.22 57.94 58.16 58.50 59.20 58.09 52.62 52.05 53.21 49.98 47.58 47.47 47.60 48.69 46.86 44.06 42.93 42.09 41.63 41.73 41.76 41.73 41.11 41.01 39.63 36.71 36.83 37.41 38.06 37.33
55.35 57.49 58.41 58.01 58.40 57.89 57.03 52.18 49.56 47.72 46.95 45.36 44.10 45.42 45.58 45.91 45.52 43.74 42.50 42.16 42.11 41.71 41.24 40.70 40.84 39.89 37.57 36.94 36.31 36.64 37.84 37.40
53.71 55.75 55.29 55.87 54.75 51.90 51.14 49.43 47.52 45.48 45.15 45.36 45.01 45.60 45.31 44.16 43.17 42.32 41.90 42.15 42.41 41.37 40.70 40.54 39.80 38.64 37.75 36.35 36.49 37.29 36.68 35.70
53.27 54.48 54.23 53.35 51.56 50.40 49.18 47.10 44.71 44.09 45.03 44.11 43.32 42.59 43.01 42.38 42.65 42.41 42.34 42.52 41.76 41.47 41.24 39.99 38.35 37.41 37.73 37.00 36.20 35.77 35.17 34.74
53.25 53.16 52.04 50.46 50.76 50.20 48.94 48.00 45.84 45.39 44.89 44.17 43.73 42.81 42.64 43.24 42.93 42.49 42.17 41.55 40.98 40.79 39.27 38.12 37.70 37.56 37.41 36.29 35.04 35.87 34.91 33.26
51.06 50.96 50.89 50.56 50.35 49.91 49.57 47.86 45.95 44.65 45.07 44.36 42.13 42.92 43.67 43.22 42.68 42.30 40.58 38.89 38.94 38.19 37.57 37.29 37.50 38.00 37.67 36.39 35.49 35.21 34.07 33.39
49.61 49.46 50.46 51.34 50.83 49.35 48.15 46.96 45.15 45.50 45.47 43.84 43.07 43.57 44.08 43.45 43.33 41.79 40.93 40.09 38.81 38.34 38.46 38.68 38.37 37.58 36.84 36.68 35.98 34.25 33.55 33.66
47.39 47.98 48.78 49.39 49.35 48.80 47.22 45.96 46.75 46.97 44.27 43.37 44.16 44.16 44.56 43.34 42.25 41.06 40.38 39.94 39.67 39.38 38.93 38.81 38.68 38.06 36.85 35.97 34.83 33.42 31.92 31.15
47.60 47.90 48.48 48.93 48.58 47.61 46.18 45.77 46.14 44.62 44.15 43.90 43.85 43.97 41.89 41.36 40.12 39.09 38.42 38.34 38.76 38.89 38.54 37.92 37.11 36.73 36.54 36.64 34.51 31.27 30.74 29.19
45.74 46.88 46.68 47.11 47.19 47.52 45.26 44.43 43.69 42.97 44.12 44.05 41.98 39.94 38.54 38.27 38.77 38.63 38.31 38.39 38.59 37.57 36.79 36.25 35.98 36.03 36.23 36.72 35.22 30.02 28.88 28.00
39.71 39.31 43.66 45.37 45.28 43.71 43.36 43.38 42.34 40.94 39.42 38.64 38.82 38.57 38.45 38.83 38.77 38.64 38.56 38.31 37.57 36.84 35.62 35.30 34.87 34.74 35.65 35.80 34.32 28.56 27.44 27.45

GFSFLT1_sfc_wetblb_036.txt.gz
Wetbulb
56.14 56.47 57.08 57.64 58.85 60.41 59.84 59.39 57.97 57.35 56.79 56.89 56.71 56.49 56.47 57.11 56.63 56.93 56.09 54.63 51.79 50.12 49.53 47.96 46.48 45.14 44.26 43.26 42.35 42.27 41.90 41.50
55.81 57.25 57.25 58.02 59.26 59.24 58.86 57.71 56.91 56.97 55.93 55.50 54.24 54.34 54.64 54.03 54.53 52.97 53.37 51.71 50.34 49.15 47.72 46.15 45.27 44.04 43.12 42.87 42.00 40.92 40.72 39.54
55.66 57.08 57.11 58.48 59.31 59.26 58.61 58.11 56.81 57.14 57.63 55.03 55.51 54.25 53.51 52.74 51.21 49.68 51.01 49.80 48.76 47.92 46.08 44.75 43.80 42.99 42.36 41.98 41.31 40.36 40.38 38.72
55.97 57.32 57.46 58.35 59.26 58.99 59.20 58.24 57.09 57.00 56.40 55.71 52.33 51.23 50.21 49.41 47.69 47.15 48.14 48.66 48.01 46.53 45.32 44.02 42.95 42.36 40.86 40.90 40.76 40.12 38.37 38.51
56.39 57.35 57.52 58.19 58.98 59.02 59.22 58.30 57.23 56.85 56.64 55.79 53.45 53.28 50.34 48.94 47.33 46.59 46.93 47.23 45.11 44.02 42.43 41.34 40.60 40.48 39.86 40.44 40.88 40.36 39.48 37.55
54.71 56.50 58.27 58.99 58.09 57.03 58.52 58.40 58.02 57.98 57.11 56.76 54.72 52.98 51.84 50.17 46.61 45.20 42.23 41.89 41.94 41.85 41.54 40.38 40.05 40.32 40.64 42.48 42.39 41.42 39.36 37.67
53.41 55.23 56.80 57.86 56.25 56.83 57.77 57.88 58.29 57.94 57.13 55.89 54.62 51.36 48.87 48.15 45.66 41.88 40.64 40.25 40.43 40.42 40.26 39.98 39.89 40.06 41.54 41.87 39.59 39.27 38.53 38.22
50.34 51.33 54.43 55.38 55.95 56.81 57.57 58.26 58.21 58.13 56.99 55.11 53.58 51.52 50.81 49.94 46.17 42.73 40.65 39.74 39.32 39.94 41.11 40.51 41.41 41.48 41.60 41.04 39.46 39.95 38.22 37.19
51.05 52.52 53.97 55.72 56.45 57.11 57.51 58.08 58.62 58.05 57.29 55.85 54.36 54.33 51.49 50.15 46.51 42.83 42.66 41.19 41.74 42.57 42.04 42.21 42.31 41.87 40.28 39.49 37.99 36.83 37.19 37.24
51.78 53.12 54.83 55.74 56.55 57.26 57.47 58.28 58.80 57.33 57.01 54.59 52.02 51.51 50.53 48.33 45.58 45.06 42.27 42.02 41.40 40.73 43.56 42.31 41.79 40.56 39.66 38.95 38.00 37.01 37.58 37.64
51.73 54.46 55.77 56.44 56.64 57.12 57.39 58.34 56.83 53.93 52.54 51.10 49.71 48.86 49.14 48.31 45.45 43.19 41.97 40.55 41.58 43.14 42.55 41.11 40.54 40.07 39.29 38.36 37.54 37.14 36.79 35.68
52.04 54.14 56.17 56.81 56.73 55.81 55.43 53.29 50.36 46.53 46.63 45.56 45.16 45.79 47.34 47.14 45.85 43.63 42.86 41.97 42.85 42.60 41.08 40.51 39.80 38.97 38.24 36.43 36.85 36.24 35.53 35.17
51.27 52.41 52.62 52.78 53.33 52.24 52.44 49.45 46.81 45.86 46.12 45.72 45.88 45.77 45.32 44.56 43.40 42.19 41.62 42.04 42.57 41.28 40.85 39.53 39.40 38.46 37.32 36.18 36.07 36.34 35.31 34.30
50.45 50.58 50.80 51.63 50.79 50.36 49.83 47.88 45.89 44.74 46.00 46.10 46.23 42.99 43.45 41.37 41.49 42.21 41.72 41.04 40.08 39.50 39.80 39.32 38.83 37.94 37.70 37.63 35.89 35.30 34.82 34.19
49.36 49.45 49.61 49.55 50.02 49.96 48.14 46.83 44.85 44.71 45.11 44.41 41.88 43.54 43.26 42.61 41.56 40.77 40.46 40.44 39.45 38.06 39.40 38.93 38.42 38.07 38.07 37.25 36.02 34.88 34.45 34.00
47.99 48.42 48.51 49.16 49.24 48.48 48.06 46.48 45.10 45.98 43.91 42.13 42.00 43.45 42.14 40.98 41.01 40.44 40.21 39.69 39.22 39.29 38.86 39.30 39.32 38.90 37.58 36.75 35.44 34.26 32.91 32.04
46.32 46.59 47.42 48.42 48.76 48.09 46.89 45.17 44.54 44.92 43.10 42.13 42.59 41.96 41.10 40.95 40.53 39.29 38.39 38.74 39.18 39.79 39.28 38.42 38.04 37.69 36.55 36.87 35.46 32.76 31.62 30.49
40.44 42.46 44.40 45.23 46.00 46.58 44.40 43.50 43.18 42.24 42.33 42.12 40.62 40.16 38.82 38.03 38.16 39.49 39.40 38.90 39.20 38.65 38.09 37.77 37.30 36.39 35.97 36.85 36.26 31.76 30.42 29.54
36.69 36.98 38.44 39.05 41.17 41.23 41.44 41.39 39.46 38.19 37.44 37.87 38.90 39.52 39.79 40.12 39.48 38.73 38.63 38.92 38.34 38.03 37.20 36.90 35.59 35.05 35.10 35.47 35.08 31.89 29.65 29.08

GFSFLT1_sfc_wetblb_039.txt.gz
Wetbulb
58.70 59.47 60.00 60.69 61.49 62.04 62.20 62.76 63.71 63.24 62.51 62.01 62.42 62.97 63.50 63.36 63.35 62.95 61.18 60.60 57.96 57.19 56.02 55.11 54.73 53.28 52.33 52.02 51.30 51.05 50.71 50.40
58.65 59.58 60.09 60.28 61.07 61.75 62.37 62.78 63.19 62.14 61.22 60.54 60.78 61.40 61.81 61.78 61.64 61.67 60.79 59.00 56.61 56.16 54.88 53.66 53.49 52.81 51.53 51.49 50.50 50.13 49.87 49.92
58.34 58.80 59.33 59.92 60.11 61.44 63.01 62.92 62.48 62.32 62.22 61.46 61.53 61.32 60.56 60.21 59.38 58.73 59.42 57.23 56.13 55.30 53.97 52.84 52.26 51.00 50.98 50.96 50.79 49.38 49.82 48.91
57.15 57.91 58.90 59.95 59.92 60.81 62.09 62.74 62.08 62.18 62.42 61.04 58.48 57.99 57.19 56.66 55.59 55.84 56.70 55.59 54.94 54.05 53.15 51.92 51.49 51.54 49.91 49.94 49.58 48.51 46.09 47.04
58.84 58.23 58.67 59.56 60.02 61.55 62.11 62.58 61.93 61.71 61.23 60.64 59.50 59.56 57.46 57.32 55.92 55.16 54.46 54.17 53.15 52.63 51.74 51.08 49.74 49.15 48.66 48.24 48.38 48.22 47.25 45.22
58.23 59.32 59.95 60.77 61.39 61.92 62.45 62.65 62.39 61.87 60.84 61.27 60.23 59.31 58.76 56.24 53.79 52.70 52.32 52.07 51.71 50.12 49.48 48.71 48.36 47.98 48.21 48.20 47.64 46.28 45.47 44.16
57.38 60.11 61.19 61.30 61.98 62.03 62.43 61.98 61.64 61.21 59.74 59.82 59.28 58.90 55.61 54.04 52.16 50.28 49.70 49.34 48.52 48.30 47.69 48.16 48.01 47.21 47.31 46.07 44.73 44.61 43.33 46.81
56.21 56.95 58.81 60.74 60.77 61.28 61.69 61.51 59.62 59.53 59.21 58.62 58.39 57.16 55.83 55.18 52.26 49.53 47.17 46.74 46.98 46.04 46.97 46.24 45.98 46.74 45.36 43.55 43.37 44.37 46.47 45.86
56.23 56.79 58.15 59.79 60.65 61.13 61.17 60.90 60.12 58.97 58.85 58.70 58.89 57.64 56.28 56.09 53.43 49.78 47.90 47.86 46.41 46.49 46.46 46.97 46.49 45.96 45.38 42.56 43.38 44.75 45.56 45.46
55.21 56.09 56.93 58.47 59.88 60.32 60.97 61.09 61.07 59.39 59.17 59.51 58.50 57.78 56.47 55.23 52.24 49.62 49.13 47.31 46.17 46.41 46.97 46.93 46.38 43.26 44.00 43.78 43.97 44.56 45.08 45.37
53.22 55.07 56.20 57.71 59.47 60.55 61.02 61.26 60.90 60.92 60.38 59.58 57.84 58.15 57.47 54.82 50.71 49.23 49.17 47.36 46.39 45.86 46.60 46.72 44.35 45.24 41.55 44.43 44.42 44.17 43.98 44.90
54.29 55.50 57.73 58.54 59.39 59.79 60.09 60.60 60.93 60.56 59.22 58.45 57.83 55.97 55.54 53.38 51.02 50.01 47.67 47.00 46.89 45.72 46.36 43.56 42.20 44.23 44.28 43.95 43.10 43.03 42.77 43.45
55.09 56.43 57.71 58.61 59.15 59.21 59.12 59.42 58.96 58.16 57.05 54.84 55.03 54.21 51.90 50.90 50.15 49.11 47.69 46.96 46.32 45.96 44.58 42.41 42.25 43.61 43.60 42.71 42.04 41.26 41.60 41.56
54.78 55.60 56.39 57.12 57.22 56.56 57.03 56.78 56.36 53.69 52.31 52.33 51.62 50.50 50.88 50.99 50.58 49.96 47.93 46.64 45.60 43.31 41.96 41.28 43.35 43.69 42.73 41.52 41.15 42.65 41.30 41.41
53.85 54.23 54.83 55.14 55.24 56.05 55.69 53.65 51.89 50.62 50.76 50.60 50.39 49.62 50.00 49.62 47.25 45.82 44.29 43.96 42.20 43.65 42.33 41.86 42.17 41.06 42.30 41.91 41.54 41.28 41.04 40.83
51.79 52.92 53.76 54.03 54.03 53.64 52.94 51.56 50.20 50.00 48.88 48.50 47.84 47.91 47.18 46.11 44.75 42.67 42.40 41.89 41.51 41.14 41.65 42.09 41.64 41.37 41.26 40.65 41.14 41.41 40.58 40.22
47.75 49.10 51.04 51.88 52.55 52.87 50.88 49.88 49.15 49.40 48.26 46.67 46.45 44.80 43.69 42.77 41.78 40.96 40.11 40.11 41.62 42.18 40.37 40.61 40.34 41.15 37.67 37.42 37.75 39.58 39.82 38.78
43.68 44.71 45.81 47.07 48.47 49.90 49.07 48.28 47.86 46.97 46.19 45.36 44.44 42.32 40.29 40.20 40.72 41.05 40.16 40.98 41.32 40.30 40.57 41.42 40.78 40.09 37.55 37.18 36.20 38.70 39.36 39.49
40.69 41.79 42.14 42.67 44.72 44.79 44.87 44.67 43.75 43.08 42.32 41.80 42.28 41.99 40.99 41.00 40.78 41.41 40.20 40.68 40.70 40.89 41.82 40.03 38.67 38.77 36.01 35.23 34.41 38.57 38.55 38.53

GFSFLT1_sfc_wetblb_045.txt.gz
Wetbulb
59.34 60.02 59.30 59.49 60.50 59.95 59.46 61.53 61.95 63.80 64.89 63.76 62.73 61.92 63.20 63.22 63.70 64.92 66.12 66.33 65.79 65.07 64.71 64.22 63.47 62.50 61.67 60.92 59.77 58.35 56.74 55.89
60.69 59.82 60.87 60.25 60.93 61.95 62.21 61.83 62.54 63.90 63.47 62.14 61.04 59.84 61.12 62.41 64.37 65.37 66.22 66.19 65.37 64.76 64.39 63.73 63.10 62.00 61.16 60.42 58.56 56.28 54.87 54.67
60.51 61.86 62.09 62.69 62.32 62.61 62.46 62.13 62.80 64.35 64.59 64.41 62.83 62.06 61.17 62.72 64.45 65.78 65.87 66.19 65.60 64.68 64.51 63.15 62.65 61.19 60.51 59.03 57.41 55.44 55.10 54.28
59.52 61.01 62.22 62.83 62.31 62.68 62.91 63.48 64.09 64.62 65.07 65.13 64.33 62.84 62.67 61.50 63.14 64.30 65.13 65.62 65.68 64.86 64.39 63.07 62.00 61.42 58.82 57.92 57.00 55.83 52.72 54.16
59.34 60.09 61.93 62.79 63.44 64.41 64.66 64.65 64.78 64.14 65.64 64.73 63.58 60.94 60.69 63.03 63.87 64.17 64.42 65.43 64.93 64.18 63.01 62.44 61.20 60.18 59.16 57.90 56.85 55.75 54.51 52.87
59.85 59.69 60.11 63.13 64.33 64.18 64.80 64.84 64.84 65.67 65.92 65.37 64.88 62.96 62.91 64.04 64.38 64.15 64.29 64.46 63.98 62.91 62.21 61.39 60.33 59.39 58.96 57.72 55.62 54.52 53.91 51.12
60.47 61.66 61.80 61.34 62.93 64.63 65.79 64.32 64.32 65.19 65.82 65.50 65.31 64.12 63.93 64.31 64.39 62.83 62.76 62.67 62.38 61.89 60.92 60.33 59.94 58.32 57.32 55.85 54.60 53.31 51.15 50.65
59.76 60.42 61.58 62.36 62.56 63.61 64.76 63.94 63.07 65.03 65.88 64.61 65.20 64.83 64.77 61.46 62.45 62.02 61.20 60.91 60.14 60.01 59.82 58.14 56.43 55.12 55.68 54.29 51.98 50.55 49.07 46.49
60.21 60.54 61.46 62.67 63.76 64.15 64.43 63.99 63.78 64.31 64.61 63.59 64.23 64.88 64.01 63.03 61.63 61.05 59.86 59.33 58.65 59.34 57.03 54.02 53.20 53.41 52.04 50.75 50.29 48.16 46.89 47.53
59.89 61.08 61.89 62.76 63.99 65.72 66.58 65.22 64.58 64.70 64.81 62.18 63.15 63.94 63.37 63.15 62.22 61.98 59.71 58.58 58.50 56.21 53.04 51.43 51.60 50.24 50.97 51.08 47.81 45.15 48.47 47.86
58.58 60.19 61.84 63.19 64.41 66.40 68.27 66.80 65.77 65.06 63.90 64.55 63.79 63.44 62.82 62.55 62.07 61.00 59.03 58.82 56.10 52.84 51.78 50.92 50.75 50.93 50.64 48.45 47.40 46.57 45.75 48.15
58.71 59.87 60.90 62.25 64.09 65.02 65.93 66.69 66.61 65.15 65.05 64.49 64.25 63.05 62.66 61.88 60.98 60.74 59.15 56.80 54.06 52.63 52.18 50.32 48.81 49.45 47.64 46.56 44.69 45.29 46.22 45.90
59.29 60.63 61.65 62.13 62.58 63.55 64.76 65.58 65.88 66.05 64.61 63.96 63.79 62.85 62.82 60.67 60.00 59.01 58.15 56.32 55.77 53.52 50.69 48.24 49.12 47.99 45.48 43.95 44.83 44.81 45.33 44.30
58.72 60.77 61.45 62.12 62.90 63.37 64.02 64.56 64.76 65.35 65.42 64.33 62.47 60.76 59.09 58.45 56.93 55.90 54.33 53.64 52.03 49.52 48.80 49.50 46.56 45.79 44.91 43.88 44.33 43.80 43.85 44.00
57.72 59.99 61.13 62.15 62.93 63.09 63.39 63.90 64.80 64.55 64.16 63.50 61.91 58.40 56.95 56.38 54.94 53.09 51.22 50.23 49.40 49.81 48.40 45.38 45.89 44.65 43.74 43.92 43.19 42.85 43.10 43.92
56.25 59.47 60.93 61.87 62.17 62.81 62.90 61.93 61.48 61.53 61.04 60.59 58.37 57.91 57.81 56.81 55.96 54.32 52.69 51.00 48.66 46.16 45.26 45.33 43.94 43.11 43.33 42.98 43.21 44.47 43.85 43.01
57.53 59.62 60.68 60.82 60.84 61.06 59.96 59.46 59.16 59.31 58.00 56.26 56.17 55.06 53.81 52.78 52.01 50.75 50.30 49.27 47.52 45.74 42.58 43.13 43.18 43.88 40.83 39.33 40.33 44.06 41.99 41.33
56.93 58.15 58.98 59.49 59.13 58.83 57.57 57.10 57.12 55.69 54.40 53.23 52.12 51.04 49.47 48.44 47.78 46.96 45.94 45.68 45.88 44.60 44.12 44.41 44.13 45.70 38.91 38.69 37.86 41.13 40.52 40.71
54.79 55.44 56.10 56.90 57.19 56.36 55.75 55.33 54.26 52.99 51.66 50.56 50.14 49.11 47.69 47.45 47.36 46.48 46.51 46.10 45.53 45.19 45.20 45.50 45.21 42.86 38.35 38.26 37.19 40.94 41.97 41.63

GFSFLT1_sfc_wetblb_048.txt.gz
Wetbulb
57.77 57.27 56.89 56.29 56.38 56.27 55.31 54.94 54.99 57.42 58.63 55.44 57.92 59.85 60.88 61.19 61.00 61.67 64.00 64.34 64.66 63.77 62.92 61.97 60.93 60.21 59.40 58.65 57.00 55.91 54.13 52.35
58.12 57.72 57.77 57.56 55.76 56.32 55.73 54.57 56.04 58.89 58.85 57.70 58.91 58.05 59.87 60.55 60.79 61.61 64.15 63.98 64.38 63.47 62.51 61.94 60.54 59.89 58.91 58.72 56.48 53.83 50.97 50.60
57.49 56.53 57.60 57.45 56.99 57.15 57.94 58.54 58.59 59.78 60.12 60.50 60.70 59.71 59.17 60.29 61.19 62.62 64.40 63.76 63.87 63.07 62.11 61.21 60.31 59.68 58.87 57.27 55.48 52.31 52.16 51.16
56.99 57.26 57.44 58.49 58.53 58.40 58.97 59.84 59.70 60.69 62.01 62.46 62.09 60.75 59.47 58.39 59.90 62.50 63.66 64.16 63.54 63.09 62.36 61.75 60.61 59.90 57.80 56.48 55.42 53.24 49.85 49.52
58.19 58.76 58.45 58.95 59.81 60.79 61.38 61.20 61.15 61.11 63.03 62.10 61.62 59.41 57.77 58.02 58.81 61.96 63.30 63.73 63.14 63.39 63.05 61.86 60.43 59.02 57.25 56.11 55.60 53.35 51.45 48.66
58.68 59.30 60.59 60.76 61.56 61.70 61.80 61.68 61.80 62.48 62.80 62.92 61.37 60.60 59.38 60.74 59.92 61.68 61.95 62.83 63.38 62.85 62.24 61.06 59.75 59.01 58.00 56.30 55.01 53.98 50.93 48.96
58.63 59.66 61.07 61.34 62.40 62.60 62.20 62.14 62.20 63.28 62.73 62.08 61.89 60.75 60.76 60.26 61.03 61.19 61.47 61.58 61.84 61.32 61.42 59.80 59.29 58.03 57.42 56.39 54.31 52.37 48.65 48.68
58.56 58.56 58.37 60.39 61.43 61.86 62.46 62.75 62.14 62.93 63.38 62.73 62.45 62.25 62.64 61.46 61.24 60.41 59.60 59.38 59.13 59.20 59.89 58.58 57.44 56.91 54.97 53.27 51.41 50.37 48.17 46.66
58.40 59.46 59.38 59.09 60.13 62.18 62.48 62.56 61.94 62.70 62.88 63.39 62.91 62.66 62.36 62.23 61.77 60.98 59.54 59.00 59.16 58.32 58.05 57.25 55.03 53.53 51.87 50.57 49.58 48.42 46.72 45.55
58.61 59.49 60.59 60.71 60.65 60.98 61.91 62.43 62.56 62.49 63.02 63.20 62.04 61.27 61.91 62.23 61.55 60.82 60.08 59.23 58.86 57.74 57.05 52.92 51.94 50.57 49.60 48.64 47.18 45.06 45.08 46.02
58.29 59.56 60.16 60.78 61.85 61.97 62.17 62.51 62.13 62.79 63.03 63.45 62.54 59.95 60.71 62.74 62.38 60.98 60.63 59.56 57.91 55.74 52.60 51.52 50.10 49.01 49.48 47.06 45.46 44.84 45.21 45.48
58.05 58.80 60.31 60.97 61.79 62.43 63.01 63.51 63.27 63.11 63.84 63.74 62.72 62.23 61.72 62.10 60.83 60.23 60.33 58.29 54.45 52.25 51.39 50.44 49.29 48.64 48.07 46.25 44.86 44.07 44.08 43.51
58.64 59.58 60.23 60.27 60.95 62.85 64.54 64.69 64.76 63.56 63.49 63.36 62.90 62.73 61.98 59.97 59.60 58.99 57.93 54.07 52.79 51.65 51.04 49.84 48.73 47.88 47.09 45.17 42.86 42.92 44.59 43.49
57.45 59.55 60.13 60.62 61.34 61.86 63.06 64.54 64.66 63.16 64.26 63.09 62.56 61.30 59.65 58.55 56.99 55.59 55.37 54.25 53.19 50.63 49.43 47.87 47.51 46.25 44.92 43.29 43.88 44.02 43.35 43.45
55.52 58.58 60.09 61.17 61.78 62.24 62.85 63.19 64.16 63.59 63.29 61.94 59.21 57.81 56.58 54.94 53.51 51.64 50.38 49.51 47.90 47.30 47.79 47.03 45.22 44.15 44.12 44.47 43.66 42.75 42.39 42.83
54.82 56.77 59.64 61.10 61.62 62.15 62.56 61.77 61.74 61.94 61.26 58.98 56.95 56.74 56.39 55.00 53.27 52.46 50.86 49.88 48.26 45.87 44.74 44.22 44.19 43.55 43.43 43.05 42.80 41.86 41.36 40.97
55.24 56.64 59.83 60.57 60.93 61.43 60.90 59.82 59.78 60.17 57.61 56.54 56.29 55.82 55.38 54.59 53.33 51.66 50.21 47.47 45.52 44.67 43.60 42.50 41.19 43.01 40.04 40.74 41.22 41.91 42.21 41.23
56.55 57.90 60.00 60.46 60.46 59.71 58.79 58.47 58.34 56.59 55.10 54.31 53.05 51.56 49.39 48.33 47.28 46.51 45.59 44.15 44.25 42.54 42.15 42.49 42.77 43.08 39.42 39.09 38.08 40.42 40.33 40.38
56.99 58.46 58.92 58.74 58.66 57.91 57.10 56.43 54.68 53.26 51.85 50.89 49.80 48.43 46.86 46.23 45.85 44.85 44.00 43.94 43.23 42.89 42.67 43.68 43.78 40.94 38.77 38.75 37.87 39.38 39.04 39.14

GFSFLT1_sfc_wetblb_051.txt.gz
Wetbulb
53.09 53.27 52.61 54.23 54.65 54.64 55.23 55.13 55.00 55.73 56.58 55.71 56.10 55.71 55.56 57.40 58.30 58.59 61.32 61.04 61.52 61.70 60.96 60.16 59.29 57.75 57.02 56.51 55.43 54.33 52.16 49.92
54.36 54.08 53.05 52.90 53.19 52.88 53.27 53.63 53.78 54.73 54.90 53.84 53.24 53.36 56.04 56.17 57.73 58.57 59.97 61.73 62.02 61.35 60.51 59.82 59.17 57.60 56.69 56.17 54.73 52.49 49.28 47.71
54.14 53.68 53.49 53.46 53.73 53.21 52.92 53.14 53.66 53.54 56.69 53.70 53.52 55.29 56.25 58.53 58.56 58.05 59.81 61.98 61.95 61.44 60.35 59.21 58.44 57.67 56.97 55.77 53.28 50.03 48.95 47.20
53.59 53.27 53.63 53.00 52.60 52.87 52.59 52.73 53.61 54.90 57.38 56.84 55.81 57.42 56.46 54.78 55.74 57.48 59.72 62.49 61.79 61.67 60.63 59.72 58.18 57.84 56.22 54.42 52.69 50.50 48.23 47.77
54.40 54.05 53.62 53.49 52.81 54.48 54.93 53.84 53.89 55.95 58.03 57.01 55.89 56.78 55.79 56.00 54.76 56.95 60.78 61.78 61.24 61.81 61.06 59.95 58.41 58.52 56.71 54.97 54.62 52.57 51.57 48.10
54.28 53.74 54.38 55.05 54.93 54.65 55.95 55.91 55.78 57.12 58.12 58.44 58.40 58.25 57.82 55.98 56.06 56.14 60.14 60.31 60.55 60.63 60.42 59.82 58.76 59.24 58.04 56.16 54.55 53.28 52.30 49.73
55.69 56.01 55.87 55.99 56.95 56.26 56.58 56.92 57.39 58.08 58.15 58.76 60.11 60.06 58.79 56.38 56.06 57.03 60.23 60.23 60.32 61.55 61.38 59.69 59.37 57.72 57.29 55.62 53.60 52.96 50.36 49.29
55.43 56.07 56.33 56.56 56.72 57.43 57.88 58.32 57.98 58.65 58.33 58.59 60.30 59.66 59.45 58.36 57.50 57.98 57.85 58.67 57.56 58.74 59.58 58.46 57.88 57.02 55.82 54.26 51.76 49.54 49.15 48.46
56.06 56.78 57.59 58.15 58.20 58.63 58.46 58.64 58.42 59.07 59.04 59.83 60.63 60.31 59.99 59.84 58.81 57.99 58.58 58.76 58.46 58.13 58.20 57.37 56.00 54.97 52.74 51.44 49.96 48.84 48.49 47.39
55.64 57.13 57.94 58.24 58.93 58.95 59.14 59.17 59.31 59.98 59.97 60.37 59.96 60.20 59.87 60.11 58.79 58.99 58.50 56.80 56.26 56.08 57.02 55.29 54.58 51.95 50.44 49.79 48.64 47.67 47.38 45.13
55.48 56.37 56.74 57.99 59.40 59.87 60.04 60.56 60.61 60.84 59.85 60.94 60.97 60.87 59.11 59.54 59.47 57.84 57.84 57.60 56.26 55.24 55.16 53.44 51.70 50.05 49.01 48.07 46.85 45.83 45.27 44.74
52.52 55.12 57.12 57.59 57.92 58.85 60.15 60.48 60.07 60.46 60.36 60.62 60.97 59.39 58.54 59.60 59.43 58.80 58.40 56.76 54.84 54.16 52.29 51.59 49.85 48.83 48.17 46.46 45.46 44.68 45.16 44.30
53.03 53.72 54.44 55.38 57.99 58.26 59.08 59.93 60.57 60.72 60.32 60.45 60.68 59.69 59.36 59.02 58.16 58.16 57.84 56.12 53.44 52.01 51.50 50.31 48.87 48.08 46.95 45.62 44.10 43.78 43.81 43.67
52.87 54.10 54.95 55.64 55.96 58.54 58.67 59.47 59.15 59.54 61.08 61.59 60.67 60.05 59.93 58.53 57.56 56.32 55.04 53.00 52.17 51.12 50.40 49.22 48.05 47.21 46.00 44.86 43.36 43.86 44.14 43.79
53.03 53.56 54.88 56.09 57.05 58.31 59.76 60.49 60.75 60.97 61.56 60.54 57.80 57.06 55.90 55.62 54.42 53.08 52.11 52.61 50.46 49.21 48.85 47.91 47.13 45.84 44.49 43.93 43.79 43.61 43.61 43.17
50.37 53.59 54.57 55.78 57.10 58.16 58.31 58.76 60.08 60.74 59.58 57.50 55.38 54.68 54.03 53.40 51.93 51.07 50.28 49.13 48.04 47.61 46.13 44.86 44.36 44.11 43.76 43.68 43.77 42.70 41.67 41.22
49.81 52.21 56.75 57.76 58.38 57.62 57.33 57.05 56.80 57.33 56.18 55.24 55.29 54.89 53.97 52.54 51.08 49.92 48.80 46.58 45.34 44.36 43.60 43.45 42.72 43.05 39.95 40.42 41.44 40.84 41.12 40.62
51.21 53.17 56.89 56.96 57.81 57.29 55.87 55.47 55.41 54.51 54.26 54.75 54.09 51.90 50.74 50.81 50.25 47.68 44.38 41.88 40.79 39.97 39.56 40.11 40.09 40.62 39.21 39.13 38.28 39.85 39.69 39.80
52.74 55.91 55.77 56.50 56.40 55.84 54.50 53.32 51.96 50.87 49.43 49.25 48.95 47.25 45.50 45.27 44.43 43.30 41.58 40.91 39.74 39.46 39.69 40.11 40.11 39.79 38.42 38.55 37.57 38.95 36.76 36.66

GFSFLT1_sfc_wetblb_054.txt.gz
Wetbulb
52.33 53.96 54.10 55.25 54.59 54.65 54.57 55.40 55.22 55.77 55.96 55.65 56.03 55.93 56.06 56.81 57.54 57.25 59.16 59.80 59.89 59.86 59.76 59.31 59.16 57.00 55.77 55.16 54.38 53.76 52.51 50.72
52.17 52.87 53.39 54.38 54.50 54.34 54.25 54.34 54.96 55.58 54.85 54.03 54.07 53.52 54.20 54.94 56.15 56.89 57.40 59.26 59.55 59.08 60.01 58.94 58.48 57.50 56.51 55.55 54.32 52.94 49.71 48.33
51.97 52.02 51.93 53.33 52.96 53.59 53.98 53.51 54.30 55.10 55.36 54.57 53.71 53.27 52.83 54.96 55.80 56.35 57.11 58.52 59.77 59.84 59.57 59.01 58.32 57.18 56.03 55.17 53.49 50.20 49.72 46.46
51.96 52.08 50.78 52.71 52.16 52.22 53.23 53.22 53.21 53.89 55.13 54.06 51.23 51.59 54.46 54.29 55.23 55.49 56.49 58.14 59.49 59.96 59.75 58.73 57.56 56.92 56.18 54.82 53.03 51.37 50.21 48.86
52.73 52.30 51.09 51.68 52.40 52.71 53.22 53.60 53.05 53.20 54.28 54.72 51.39 51.70 51.78 54.57 55.11 55.83 56.18 58.16 59.69 60.52 60.48 58.85 57.75 57.88 56.39 55.51 54.32 52.20 52.52 49.43
52.09 52.42 52.21 52.57 53.23 52.40 52.76 52.69 53.32 53.46 53.46 56.25 53.75 51.75 53.77 55.84 55.04 53.68 55.61 58.31 59.91 60.54 60.14 58.78 58.15 58.18 58.45 56.71 55.05 53.04 52.55 50.21
53.51 53.61 53.43 53.16 52.74 52.33 51.96 51.60 52.79 53.56 53.27 55.47 54.99 53.23 53.94 55.25 54.66 53.51 54.65 58.10 59.17 59.81 60.47 59.39 58.39 58.38 58.04 57.85 55.95 54.46 51.84 50.19
53.53 52.70 52.65 53.18 52.05 52.02 53.15 52.13 51.50 52.61 52.96 54.49 55.48 55.18 55.15 56.56 56.73 54.79 54.57 57.58 57.33 58.99 59.80 58.85 58.54 57.75 57.98 57.29 54.40 53.19 50.06 49.02
53.71 53.48 53.56 53.64 53.77 53.25 53.50 53.85 52.66 53.16 53.51 54.80 55.74 56.12 57.10 58.73 58.98 56.68 55.85 57.48 58.17 57.95 58.06 57.38 57.09 56.87 55.53 53.84 51.92 50.18 49.39 48.98
54.52 54.78 54.19 54.31 54.60 54.78 54.34 54.69 54.76 55.01 55.37 56.03 56.43 56.93 57.54 59.10 59.24 57.45 57.54 57.27 56.89 57.19 57.20 56.17 55.05 54.93 53.00 50.85 49.37 48.33 48.80 47.91
54.18 55.48 55.77 55.93 56.05 56.32 56.37 56.44 56.05 57.02 57.53 57.55 57.52 57.68 58.99 59.46 58.31 57.92 57.37 57.21 55.79 55.55 55.17 54.85 53.75 51.83 49.98 49.40 48.25 47.75 46.61 45.83
54.12 55.63 56.55 57.48 58.06 57.60 57.17 57.39 57.88 58.21 58.82 58.61 58.40 58.56 59.12 58.40 58.82 58.43 58.09 57.99 56.61 55.29 55.07 53.01 51.07 48.84 47.71 48.21 47.19 46.24 45.60 45.02
54.27 54.66 56.29 56.93 57.55 57.87 58.21 58.36 58.45 59.12 59.39 59.66 59.20 59.70 59.18 59.22 58.43 58.21 58.81 57.31 56.09 55.63 53.36 51.47 49.94 48.42 47.19 46.80 45.43 45.87 44.89 43.85
51.07 52.08 53.53 55.02 55.87 56.66 57.96 58.87 59.15 59.88 60.37 59.63 59.34 59.03 59.03 59.30 58.97 58.68 57.15 55.73 54.48 53.36 52.27 50.69 49.33 47.79 46.41 45.96 44.98 44.21 44.29 43.96
50.45 51.20 52.42 54.24 55.41 55.89 56.65 58.72 59.79 60.21 59.68 58.89 59.13 58.17 58.76 59.80 58.94 57.05 56.31 55.25 53.19 52.34 51.92 49.73 48.13 46.57 45.66 44.12 43.96 43.84 43.81 43.84
50.40 51.56 51.82 53.58 55.10 55.65 56.70 57.49 58.48 58.80 57.92 57.28 57.44 58.70 58.48 57.98 57.73 55.35 53.27 52.89 51.40 49.63 47.52 46.56 46.04 44.85 44.16 43.76 43.54 43.46 43.13 42.39
49.74 52.64 53.21 55.59 57.03 56.78 57.12 57.38 58.05 58.44 57.90 58.26 57.01 55.79 54.75 54.38 52.80 50.94 50.05 48.31 48.66 46.11 45.12 44.12 43.49 43.92 39.86 40.52 42.28 42.19 41.74 41.18
47.31 51.79 54.60 56.66 56.69 57.00 56.13 56.71 56.89 57.93 57.33 55.77 55.09 53.88 52.49 51.27 50.57 48.89 47.00 45.75 45.68 43.42 43.28 43.32 42.89 42.98 39.19 39.54 38.83 40.86 40.08 39.39
47.00 51.09 54.50 56.17 55.84 55.16 54.64 54.74 54.76 54.95 54.36 53.31 52.95 52.13 51.16 49.59 47.42 45.32 43.32 44.03 42.10 41.31 41.30 41.20 40.71 40.09 38.32 38.11 37.01 37.20 36.37 36.07

GFSFLT1_sfc_wetblb_057.txt.gz
Wetbulb
52.17 53.74 54.87 55.06 55.24 55.69 55.85 55.81 55.77 55.55 55.28 55.84 55.81 55.51 56.23 57.25 57.15 58.57 59.69 60.00 60.08 59.46 59.02 58.83 59.35 57.86 56.75 54.84 53.76 52.95 51.77 50.27
51.36 53.58 54.36 54.46 54.01 54.13 54.64 54.66 55.37 55.35 54.74 54.04 53.94 53.50 54.46 55.30 56.81 57.58 58.41 59.14 58.89 58.70 58.79 58.28 57.98 56.72 56.04 55.28 53.27 52.32 50.41 49.00
50.99 51.75 52.98 53.94 53.41 53.78 54.28 54.28 54.81 55.04 54.62 54.91 54.26 53.55 53.65 55.12 55.57 55.90 56.81 57.28 58.20 58.29 58.58 58.24 58.22 56.92 55.31 54.28 53.00 50.71 51.00 47.47
50.12 50.57 50.90 53.23 53.25 53.29 53.33 54.02 54.37 54.67 55.12 54.19 52.78 52.66 53.10 53.88 54.40 55.04 55.68 56.75 57.62 58.50 58.10 57.78 56.81 56.23 55.89 54.28 53.51 51.35 50.90 47.36
51.15 51.31 49.60 51.11 52.67 53.61 53.25 52.71 52.77 53.59 55.36 54.07 52.64 51.65 51.49 51.63 53.64 54.75 55.43 56.23 56.58 57.99 58.43 57.90 57.05 57.11 55.63 55.51 54.96 52.36 51.81 49.70
51.29 51.10 50.36 51.10 52.62 51.18 52.82 52.95 52.57 53.00 53.23 54.20 52.17 50.00 50.43 51.15 53.63 53.78 53.88 55.05 56.29 57.59 58.24 57.66 57.46 57.61 57.36 55.89 54.16 52.08 51.81 51.97
52.02 52.36 51.81 50.72 51.70 51.43 51.37 52.29 52.79 52.50 52.17 53.43 53.23 50.88 49.98 50.93 52.15 52.96 53.74 53.82 55.89 57.26 58.32 58.43 58.02 57.57 56.73 56.65 55.75 54.45 53.38 52.91
51.48 51.11 50.83 50.97 50.96 51.28 51.19 51.36 51.67 52.49 52.06 52.20 53.91 53.96 51.52 51.31 52.33 53.37 53.42 53.03 54.22 56.72 57.78 57.45 58.39 58.75 58.61 57.83 56.41 55.91 54.10 52.36
52.21 51.93 51.67 51.41 51.68 51.54 51.52 51.29 51.18 52.21 52.12 51.74 52.44 54.29 54.40 53.32 52.99 54.44 54.82 54.49 55.17 56.70 57.09 58.02 58.33 56.53 55.77 55.47 55.16 54.50 52.11 50.79
52.66 53.18 52.64 51.84 52.26 51.67 51.50 51.79 51.31 51.84 52.57 52.31 51.88 53.12 53.77 54.08 54.12 55.05 56.98 55.47 55.59 55.79 57.66 57.36 55.79 55.47 55.36 53.38 51.91 50.41 49.86 49.67
53.31 53.73 53.63 53.47 53.39 52.97 52.30 52.60 52.01 51.85 51.88 52.33 52.09 52.88 54.03 54.72 55.16 56.02 57.55 57.55 56.83 55.87 55.61 55.49 54.73 54.34 53.78 51.68 48.60 47.94 48.41 48.04
52.86 54.32 54.78 54.58 54.61 54.14 53.49 52.98 53.18 53.35 53.21 53.14 53.09 53.62 54.58 55.31 55.78 57.22 57.48 57.18 57.50 57.09 56.49 55.47 54.52 52.53 50.18 48.12 46.95 47.62 47.09 46.16
52.81 53.65 55.01 54.60 54.15 54.45 54.43 54.84 54.48 55.04 54.96 54.94 54.74 55.30 55.92 56.26 56.87 58.26 58.21 57.71 57.80 57.52 57.82 55.45 53.26 52.20 51.11 49.82 47.38 47.22 46.20 45.52
51.34 52.51 53.46 54.70 55.17 55.04 55.05 55.54 55.82 56.17 56.76 56.30 57.03 57.35 57.00 57.02 57.62 58.63 59.05 59.06 58.14 56.47 55.19 53.78 51.94 51.59 49.83 49.50 47.72 46.93 45.97 45.35
49.05 50.33 52.79 54.78 55.54 56.18 56.44 56.15 56.60 56.91 57.06 57.29 57.00 57.62 57.69 57.70 58.22 58.68 59.14 59.34 56.99 54.46 53.76 52.31 50.93 49.97 49.20 47.63 46.70 45.01 44.50 44.61
47.98 49.55 50.99 52.42 53.78 55.49 56.65 57.33 57.47 57.72 57.21 57.21 57.33 58.11 58.16 58.41 58.41 58.61 58.40 56.55 55.03 53.31 52.06 50.16 49.23 47.93 46.61 44.90 44.72 44.27 43.54 42.95
47.58 50.38 51.18 51.94 52.65 53.55 54.22 55.21 56.64 57.84 57.46 57.48 58.04 57.64 57.42 57.62 58.19 56.45 54.84 53.05 52.13 50.37 48.70 47.31 46.69 45.76 40.64 40.78 43.13 43.43 43.07 42.32
46.20 49.53 51.91 53.77 54.58 54.43 53.50 54.11 55.39 57.07 57.43 56.82 56.27 57.33 57.09 55.97 53.43 51.61 50.85 50.13 48.73 46.50 46.14 45.28 45.10 44.79 39.53 40.06 39.65 42.32 41.49 40.83
45.66 46.66 51.61 53.52 54.43 54.42 53.41 54.51 55.59 55.71 55.65 56.11 55.87 55.07 53.44 51.95 50.85 48.84 46.12 46.42 45.58 45.00 44.79 45.01 43.85 42.18 38.54 38.43 37.68 39.92 38.54 37.29

GFSFLT1_sfc_wetblb_060.txt.gz
Wetbulb
52.54 53.63 55.13 55.94 56.48 57.08 56.54 55.97 56.14 56.50 56.85 56.53 55.82 56.32 56.99 58.53 58.36 58.21 58.71 58.32 58.00 57.24 57.64 57.60 57.31 56.64 55.27 54.66 53.91 52.98 52.19 50.93
52.14 53.26 54.83 54.64 55.19 55.41 55.49 54.95 55.49 55.45 55.80 55.60 55.27 54.80 54.71 56.11 56.94 58.77 59.33 59.26 59.38 58.52 58.54 58.29 58.20 57.28 56.58 55.82 53.68 52.72 51.23 50.22
51.94 51.94 53.68 53.48 53.45 54.42 54.84 54.85 55.27 55.33 56.89 57.00 55.42 54.36 54.19 55.22 55.97 56.65 58.16 58.70 58.93 58.76 58.81 58.23 57.92 57.14 55.98 54.81 53.70 51.83 51.67 48.79
50.58 50.60 51.81 52.97 52.87 53.56 54.38 54.48 54.83 55.09 55.51 54.96 52.60 52.93 54.27 53.36 54.14 54.45 55.61 56.57 57.27 58.43 57.98 58.12 57.42 57.08 55.33 53.99 53.28 52.19 50.96 48.53
50.68 50.30 50.15 52.55 53.11 53.77 54.22 54.47 54.58 54.55 54.87 54.26 52.82 53.18 53.05 52.94 53.57 54.46 55.24 56.36 55.72 57.06 57.26 56.78 56.56 56.22 55.41 54.87 54.70 52.97 51.81 49.09
50.39 50.27 50.46 51.90 53.58 53.25 53.50 53.00 54.19 54.49 53.67 53.27 51.94 49.57 51.23 51.40 53.70 54.00 54.64 55.25 55.16 55.58 56.59 56.56 56.40 56.38 56.00 55.03 53.75 52.05 51.86 50.14
51.39 51.36 50.37 50.34 51.10 52.02 52.79 51.59 52.13 53.17 53.37 53.06 52.42 51.27 50.11 49.55 49.93 51.39 52.46 53.22 53.81 55.21 56.12 55.77 55.87 55.98 56.02 55.74 54.76 54.74 53.88 53.33
50.68 50.09 49.35 49.61 49.55 50.32 50.95 51.95 51.19 51.61 51.77 52.92 53.02 51.64 50.64 50.01 49.28 49.89 50.94 51.76 51.93 53.27 54.97 55.33 55.32 56.26 57.04 57.14 56.72 56.16 55.24 54.11
50.90 51.13 50.77 50.01 50.25 50.65 50.99 51.10 51.40 51.83 51.03 50.88 52.10 53.31 52.54 51.46 50.61 50.50 51.25 52.00 52.47 53.44 54.32 55.33 55.67 56.12 56.96 57.56 57.16 56.50 55.48 54.52
51.17 51.30 51.37 50.69 50.52 50.90 50.87 51.05 51.20 51.64 51.69 51.06 50.74 51.67 53.11 53.15 51.80 50.85 52.43 52.88 53.36 53.35 54.73 55.05 55.01 55.08 55.22 56.00 55.62 54.25 52.86 51.54
51.00 51.78 51.61 51.90 51.59 51.57 51.71 51.49 51.05 51.42 51.71 51.98 51.63 51.38 52.00 53.09 53.14 52.67 52.86 53.78 54.27 53.92 53.88 54.61 54.91 54.62 54.12 53.31 52.18 50.08 50.80 47.91
51.16 52.19 52.91 52.80 52.45 51.84 51.30 51.41 51.33 50.83 51.19 51.64 52.20 51.90 51.61 52.09 52.63 53.47 53.83 54.59 56.38 56.52 56.50 56.42 56.12 54.84 54.68 54.03 52.08 49.70 49.64 48.16
50.60 52.26 52.57 52.70 52.25 51.95 51.37 51.36 51.56 52.03 51.98 51.50 51.92 52.65 52.68 52.21 52.34 53.13 53.75 55.24 56.91 57.20 57.39 57.29 57.12 55.16 52.37 51.67 50.24 49.92 49.25 47.01
48.67 50.33 52.48 52.88 52.76 52.89 52.57 52.40 51.99 52.77 53.09 52.15 51.76 51.82 52.22 52.23 52.55 53.31 54.46 55.85 57.06 56.90 57.12 56.68 56.20 54.40 53.45 52.12 51.41 49.99 48.80 47.24
46.70 48.76 51.51 53.30 53.45 53.30 53.34 53.56 53.88 53.45 53.22 53.11 52.53 52.40 52.80 53.03 53.93 54.79 55.56 56.99 56.82 57.34 57.28 57.06 55.70 52.78 51.87 50.93 49.51 47.90 47.74 47.42
45.47 47.94 50.14 52.11 53.25 53.68 53.92 54.05 54.40 54.86 54.09 53.68 53.62 54.27 54.65 55.39 55.91 56.00 56.60 57.02 57.26 57.61 57.24 54.50 52.51 50.61 49.60 48.62 48.06 47.35 45.52 44.69
45.35 47.32 48.54 50.48 52.87 53.65 54.56 54.72 54.64 54.91 54.71 54.51 55.10 55.15 55.54 55.93 56.25 56.37 56.54 56.97 57.71 57.51 54.68 53.18 49.88 49.03 43.09 42.53 44.95 45.31 44.58 43.65
45.37 46.36 49.02 50.29 51.05 53.05 53.67 54.76 54.98 55.29 54.96 55.13 55.31 55.54 55.52 55.83 56.47 56.76 56.94 56.74 54.39 52.89 50.78 49.84 48.43 46.79 40.40 41.05 40.38 44.10 43.08 42.58
46.06 46.13 46.74 49.83 50.84 50.84 50.89 51.29 52.44 54.52 55.07 55.25 55.39 55.43 55.89 56.24 55.72 54.88 52.65 51.34 51.10 48.97 48.79 47.55 46.23 42.61 39.54 38.95 38.72 41.47 40.23 39.76

GFSFLT1_sfc_wetblb_066.txt.gz
Wetbulb
57.83 57.43 57.38 59.01 58.97 59.81 59.52 59.27 57.57 59.95 61.21 60.28 60.76 60.68 60.34 60.94 60.86 62.19 62.64 61.91 62.30 61.83 61.60 61.74 62.19 62.22 62.08 61.56 61.28 61.31 60.39 59.53
58.35 57.72 56.78 57.72 58.00 57.71 58.82 57.54 57.62 59.67 59.36 58.31 58.45 58.67 60.10 59.62 59.52 60.28 62.39 61.44 61.94 62.90 61.68 61.44 61.92 61.47 62.59 62.38 61.79 60.74 59.75 60.56
57.14 57.15 57.05 57.32 57.64 58.44 57.81 58.24 59.45 58.96 59.37 58.90 60.16 60.49 59.97 60.03 59.47 59.97 61.18 62.23 60.57 60.76 62.15 61.05 61.77 61.76 62.08 62.21 61.92 60.47 60.86 60.39
56.74 56.39 56.97 56.73 56.95 57.62 58.01 57.87 58.25 60.02 59.58 59.71 57.86 58.06 58.27 59.17 59.54 59.38 60.29 61.04 59.40 60.18 61.49 62.09 62.46 62.45 61.26 61.73 61.64 61.54 59.68 60.61
58.45 57.44 56.97 58.16 56.74 58.07 59.07 58.09 57.75 58.45 58.99 57.69 57.75 55.25 54.34 60.13 60.12 59.82 59.15 61.33 59.90 60.07 62.09 62.75 62.63 62.81 61.88 62.11 62.08 61.64 61.79 59.70
58.65 58.14 58.04 58.46 59.17 57.81 59.50 58.98 57.67 57.71 57.72 57.22 56.48 55.43 56.09 58.66 59.04 59.99 58.41 59.91 61.12 61.11 62.27 62.66 62.28 63.12 62.83 63.63 62.26 62.49 62.59 62.02
59.93 59.69 59.25 58.68 58.91 59.45 59.00 59.43 58.44 57.64 57.20 57.83 56.59 58.04 58.08 58.05 57.23 58.25 57.49 58.00 59.93 59.84 60.29 61.56 62.03 61.87 62.37 61.84 63.25 63.54 62.98 62.75
59.65 59.10 58.32 58.17 57.97 58.54 57.81 58.51 58.22 58.54 56.84 57.46 57.30 57.47 56.92 55.88 56.85 56.66 57.20 57.33 57.49 58.11 60.66 61.26 60.99 60.77 61.47 61.20 62.44 62.94 62.88 62.23
59.67 59.77 59.45 58.30 57.96 58.80 58.84 58.84 58.67 58.64 58.80 58.58 59.10 57.93 57.32 58.55 57.36 57.42 56.50 57.65 59.08 58.72 60.16 60.85 60.73 61.76 62.26 62.45 63.00 62.42 63.21 62.66
59.46 60.17 60.18 59.65 58.08 58.65 59.03 58.96 59.26 59.54 59.38 59.23 58.51 59.24 59.10 59.63 60.16 59.75 58.92 58.61 59.07 59.96 61.20 59.72 60.29 61.48 61.94 62.02 62.35 61.97 62.49 63.12
59.37 60.11 60.21 60.16 59.43 59.13 59.65 59.60 59.12 59.83 60.02 60.30 60.06 60.18 60.16 60.34 60.68 60.45 60.70 61.24 61.13 61.39 61.32 61.11 61.18 61.23 61.31 61.69 61.85 61.87 61.84 62.98
59.07 60.05 60.88 60.87 60.56 59.27 58.83 58.93 58.96 59.23 59.77 60.03 59.90 60.48 61.17 61.22 60.81 60.81 61.12 61.12 61.08 60.58 60.53 60.28 60.33 60.30 61.47 61.43 61.07 61.03 60.72 60.86
59.46 60.19 60.37 60.49 60.36 59.67 58.86 58.67 58.70 59.28 59.78 59.91 59.93 60.21 60.08 60.00 60.23 60.96 61.61 61.11 61.37 61.23 61.05 59.97 60.19 60.68 61.37 61.15 60.97 60.09 59.65 57.92
57.29 59.38 59.93 60.05 60.45 60.08 59.42 59.07 58.80 59.27 59.58 59.45 59.62 59.57 59.70 59.73 59.52 59.90 60.39 60.21 60.98 61.27 60.51 60.68 60.71 60.58 60.51 60.87 60.05 58.09 56.46 55.73
56.32 57.83 59.20 60.30 60.49 60.65 60.13 59.81 59.86 59.45 59.09 59.04 59.00 59.51 59.73 60.05 59.95 59.86 60.06 60.21 59.56 60.07 60.84 60.37 60.86 60.65 60.22 60.57 59.75 57.07 56.40 55.27
55.18 55.62 57.96 60.01 60.41 60.73 60.64 60.70 60.53 60.25 59.30 58.71 59.35 59.91 59.81 59.87 59.56 59.51 60.02 60.56 59.53 59.60 59.96 60.49 60.86 60.14 59.87 60.48 59.52 59.07 57.60 56.41
55.12 55.79 56.29 57.41 59.53 60.59 60.38 60.54 60.62 60.71 59.60 59.35 59.60 59.43 59.26 59.43 59.57 59.93 59.70 59.77 59.28 59.35 59.67 59.92 60.03 58.98 49.72 45.99 52.13 58.91 57.35 55.85
54.54 55.41 56.40 57.01 58.33 60.01 60.70 61.11 61.44 60.32 59.63 59.94 59.74 59.81 59.16 59.14 59.13 58.89 58.66 59.12 59.40 59.30 59.43 59.26 59.24 59.86 45.61 44.88 45.07 56.28 55.37 53.51
53.62 54.95 55.82 56.28 56.84 58.46 60.57 61.29 61.35 60.77 60.14 59.60 59.73 59.58 59.39 59.73 59.44 58.84 59.15 59.88 59.14 59.25 59.03 59.16 59.69 59.44 44.88 45.43 44.16 52.58 49.38 47.82

GFSFLT1_sfc_wetblb_069.txt.gz
Wetbulb
61.01 60.36 61.41 60.55 61.49 61.14 60.03 59.82 59.76 59.38 60.83 61.03 59.93 59.75 60.03 60.63 60.31 60.65 62.42 62.68 63.17 62.64 62.82 63.99 63.82 61.85 61.62 62.28 62.37 61.99 61.34 60.53
61.43 60.58 60.61 60.08 59.23 59.44 59.02 57.88 58.42 59.07 59.43 59.39 57.98 57.69 58.54 59.08 59.23 60.84 61.84 62.92 62.68 62.89 61.54 62.50 62.58 61.92 61.67 62.92 62.64 62.38 60.81 61.48
60.28 60.02 59.45 58.42 58.67 58.90 59.27 58.64 58.80 59.03 60.49 60.23 59.69 58.26 58.89 58.07 59.24 59.96 62.53 63.20 62.43 61.95 61.69 61.86 62.41 62.18 63.48 63.38 62.74 60.96 60.89 62.14
60.00 59.54 59.37 58.89 58.43 59.39 59.09 59.16 59.20 59.60 60.34 60.14 59.45 59.20 58.95 57.44 57.89 58.53 60.58 62.27 62.21 61.67 62.95 62.56 61.90 63.31 62.91 63.41 63.65 62.74 59.42 61.61
60.62 59.87 59.28 59.56 58.50 59.19 59.84 59.67 59.75 59.52 60.50 60.02 58.57 58.70 57.22 57.30 57.28 58.74 58.92 61.84 61.24 62.00 62.68 61.66 62.28 63.52 63.52 63.40 63.65 63.40 60.99 58.40
60.53 60.21 60.07 60.64 59.75 58.45 59.43 59.18 59.22 60.14 60.43 60.44 58.49 56.70 59.77 58.38 57.60 57.88 58.79 59.78 61.25 60.71 60.68 60.72 60.37 63.35 63.37 64.02 62.88 62.65 62.04 59.52
61.14 61.33 61.16 60.03 61.33 60.11 59.77 58.66 58.57 59.43 60.18 59.92 58.70 58.19 58.63 56.67 58.06 57.87 57.73 58.92 61.32 61.73 60.05 60.01 61.00 61.54 62.70 62.12 60.87 61.05 60.98 62.21
60.77 60.22 60.26 59.64 60.16 60.62 60.05 59.32 57.84 58.32 58.46 59.37 60.49 59.21 56.78 56.70 58.77 59.26 57.91 57.93 59.09 61.12 60.01 58.88 58.80 59.71 60.89 61.81 59.62 61.21 61.56 61.99
60.89 60.67 60.92 60.03 59.82 60.55 60.80 59.80 58.65 58.62 58.14 58.30 60.07 60.04 59.58 58.88 59.91 60.85 59.45 58.72 57.73 59.93 60.29 59.49 61.05 60.77 61.55 61.66 62.03 60.47 62.43 60.57
60.74 61.36 61.33 60.95 60.24 60.20 60.59 60.17 60.55 59.82 58.81 58.79 59.26 60.84 59.91 60.28 60.30 60.83 61.05 60.96 58.54 58.25 59.31 60.82 61.56 61.70 61.78 61.79 61.48 61.37 60.20 60.44
60.54 61.39 61.53 61.69 61.13 60.74 61.28 61.04 60.54 60.83 60.35 59.95 59.19 60.09 60.74 60.93 61.14 60.89 60.63 60.89 60.66 60.05 59.83 60.24 59.96 59.63 60.44 60.53 60.44 62.00 61.50 61.85
60.20 61.24 62.35 62.34 62.05 61.11 60.79 60.84 60.99 61.04 61.19 61.20 60.49 60.93 60.84 61.40 61.83 62.26 61.99 62.39 61.98 61.25 60.96 60.88 60.45 60.53 60.97 61.35 61.15 61.22 61.02 61.25
60.22 61.44 61.83 62.16 61.96 61.47 60.66 60.88 60.69 61.20 61.88 61.34 61.95 62.19 62.01 62.00 61.75 62.50 62.97 62.39 63.02 62.13 62.53 61.87 61.80 61.59 61.82 61.29 61.09 61.05 60.81 60.66
58.61 60.63 61.05 61.58 62.05 62.01 61.17 60.95 60.68 60.98 61.34 61.51 61.88 62.23 62.36 62.50 62.70 62.98 63.13 62.73 62.69 62.53 62.08 61.38 61.59 61.67 61.64 61.85 61.56 61.28 61.05 60.88
56.78 58.79 60.59 61.72 62.07 62.37 62.04 61.57 61.54 61.10 60.69 60.51 61.19 62.04 62.22 62.55 62.87 62.94 62.79 62.88 62.38 62.19 61.93 61.67 61.61 61.46 61.47 61.48 61.28 61.01 61.09 60.96
55.70 56.68 58.89 60.82 61.67 62.17 62.38 62.49 62.11 61.78 60.66 60.25 61.00 62.63 62.66 62.08 62.44 62.57 62.37 62.46 62.28 62.37 62.09 61.93 61.99 61.71 61.15 61.23 61.20 60.72 59.84 59.28
55.42 56.43 57.22 57.89 60.24 61.61 62.21 62.61 62.94 62.46 61.84 61.39 61.62 62.02 61.93 62.08 62.39 62.44 62.26 62.01 61.89 61.84 61.31 61.34 61.25 60.54 51.57 47.17 53.67 61.00 59.05 59.54
55.00 55.70 56.35 57.62 58.78 59.94 61.64 62.53 63.01 62.95 62.25 61.71 61.98 62.05 61.60 61.88 61.87 61.46 61.32 61.47 61.85 61.43 61.15 61.06 60.98 61.44 48.00 45.83 44.51 58.41 59.32 56.84
55.65 56.55 56.79 57.34 58.72 58.56 59.06 61.27 62.63 62.29 61.87 61.84 62.17 62.18 61.76 61.83 61.49 61.15 61.36 61.29 60.82 60.72 61.00 61.22 61.05 60.57 46.48 44.19 42.72 57.26 58.90 58.73

GFSFLT1_sfc_wetblb_072.txt.gz
Wetbulb
61.14 60.93 61.28 60.52 61.53 60.49 60.15 60.37 60.61 59.84 60.24 59.93 59.81 59.39 59.16 59.16 59.97 60.45 60.16 59.84 60.89 61.58 61.33 60.91 62.31 60.85 60.30 59.62 58.43 58.79 57.98 56.89
61.42 60.62 60.79 59.84 60.87 59.25 59.58 59.38 59.33 59.46 59.13 58.10 57.96 57.80 58.27 57.61 58.57 59.79 60.16 60.77 61.20 61.42 61.17 61.62 61.05 59.54 59.29 60.09 59.56 58.62 58.40 58.26
60.18 59.55 59.66 58.78 58.61 59.33 58.59 58.54 58.87 59.21 59.71 58.86 58.53 58.61 58.68 57.81 58.00 59.41 60.25 60.41 60.57 60.37 60.24 60.12 60.34 60.04 59.55 59.34 58.93 57.96 57.93 58.00
59.14 58.84 58.62 58.28 57.57 58.84 57.79 58.52 59.18 59.51 59.66 59.25 58.63 58.37 57.98 57.09 56.80 57.44 58.98 60.25 60.34 60.29 59.77 59.41 59.99 59.92 59.73 59.88 59.79 58.46 56.64 57.52
59.83 58.99 58.39 57.93 58.38 59.15 59.24 58.75 58.76 59.35 60.03 58.64 57.36 56.27 54.77 55.66 55.39 56.52 58.42 59.97 59.89 60.18 60.11 59.84 59.75 60.20 60.51 60.15 61.13 59.32 58.83 55.93
59.36 59.30 59.22 58.96 59.07 58.50 59.55 59.23 58.91 59.37 59.32 58.68 57.85 56.80 56.82 56.86 55.41 55.45 57.72 58.51 59.30 59.92 60.09 60.31 59.67 59.56 60.71 60.25 60.06 59.68 59.20 57.03
60.19 60.51 60.15 59.20 59.51 58.35 59.64 59.59 58.99 58.85 58.94 58.83 58.66 57.83 57.00 56.34 55.33 55.05 56.81 57.32 59.27 59.09 60.03 60.46 59.88 60.90 60.66 59.61 59.73 59.45 58.18 57.38
59.49 59.17 58.79 58.73 58.46 58.32 58.82 58.47 57.95 58.96 58.75 58.64 58.70 58.62 57.92 57.18 55.58 55.21 56.24 56.57 57.28 58.80 58.85 59.29 58.60 59.26 60.35 60.41 58.99 58.49 58.04 57.11
59.46 59.61 59.23 58.35 59.30 58.67 58.41 58.42 58.15 58.67 59.04 58.55 58.79 59.02 58.04 58.32 57.54 56.53 56.29 56.97 57.81 58.83 59.11 58.81 58.70 59.00 58.89 58.42 57.81 58.23 57.60 57.54
59.40 60.06 59.76 58.89 58.94 59.39 59.16 58.75 58.19 58.12 58.24 58.63 59.13 59.15 59.12 57.89 58.09 58.76 58.14 57.99 58.04 58.19 59.05 58.64 57.94 57.71 57.68 57.41 57.52 57.22 57.52 57.42
59.48 60.09 60.05 59.87 59.40 59.82 60.58 59.69 58.92 58.53 58.17 58.16 58.67 59.02 59.25 58.43 58.15 57.88 59.16 59.28 58.69 57.94 58.09 58.85 58.09 57.56 57.60 57.62 57.40 57.54 57.49 57.41
59.01 60.12 60.80 60.65 60.33 59.82 59.72 59.80 59.35 59.55 58.51 58.28 57.85 58.36 59.39 59.66 58.99 58.93 58.80 59.68 59.37 58.17 57.73 57.64 57.44 57.07 57.61 57.67 57.59 57.48 56.69 56.47
59.59 59.87 60.80 60.35 60.22 59.55 59.33 59.63 59.51 59.98 59.99 59.05 58.60 58.64 59.09 59.05 59.04 59.05 59.33 58.83 59.35 59.02 58.13 57.84 57.61 57.75 57.66 57.10 56.71 57.06 56.26 55.69
58.94 60.07 60.14 60.41 60.46 60.09 59.40 59.77 59.71 60.54 60.80 60.11 59.41 58.75 58.81 58.83 58.77 59.26 59.49 59.42 59.13 59.19 58.87 57.98 57.92 57.80 57.40 57.35 56.95 56.66 56.72 56.66
57.09 58.70 59.83 60.83 61.36 61.34 60.63 59.97 60.22 60.18 60.22 60.15 59.46 59.55 59.35 59.58 59.46 59.45 59.31 60.05 59.19 59.08 59.17 58.74 58.78 58.42 58.51 58.09 57.68 57.11 56.90 57.20
55.37 55.74 57.82 59.85 60.91 61.78 61.85 61.40 60.51 60.41 59.53 59.35 59.48 60.23 60.72 60.54 60.05 60.32 60.20 59.73 59.92 59.67 59.31 59.31 59.13 58.81 59.04 58.39 58.47 57.83 57.47 57.54
54.98 55.66 55.86 56.33 59.59 60.86 61.80 61.97 61.63 61.15 59.87 59.15 59.66 59.79 60.51 60.11 60.19 60.41 60.34 60.09 59.96 59.74 59.29 58.86 58.51 58.64 51.24 47.08 52.61 57.49 57.33 56.73
53.99 55.37 56.35 56.59 56.77 58.19 58.10 61.56 62.59 61.71 60.36 60.44 60.08 59.84 59.46 59.76 60.18 59.87 59.57 59.23 59.55 59.07 59.04 59.02 58.67 58.63 47.89 45.87 44.74 56.29 56.91 56.86
53.58 54.90 56.20 57.36 57.79 57.51 58.30 59.11 58.20 61.57 61.28 60.98 60.82 60.43 59.72 59.74 59.46 59.18 59.13 59.31 58.74 58.51 58.36 58.65 58.35 58.46 46.71 45.71 43.02 52.27 55.51 55.98

GFSFLT1_sfc_wetblb_075.txt.gz
Wetbulb
57.13 57.87 58.23 58.81 59.90 59.29 57.96 58.39 59.33 59.56 59.41 60.42 60.28 60.05 60.22 60.31 59.88 59.73 60.34 60.35 60.55 60.28 60.93 60.85 60.94 59.11 59.09 58.40 57.12 55.41 55.66 55.25
57.30 57.58 57.68 58.24 58.98 59.29 58.71 58.25 58.77 59.20 58.48 58.09 58.09 57.35 58.77 59.00 59.48 59.61 60.07 60.09 60.46 60.29 60.63 60.29 60.77 59.71 58.68 57.77 56.17 55.87 54.65 55.08
55.98 56.60 56.46 57.18 58.41 58.89 58.82 58.17 58.72 59.10 58.87 58.57 58.51 57.87 58.23 59.04 59.51 59.17 59.21 59.04 59.60 59.53 59.88 59.54 60.36 59.48 58.97 57.04 56.77 56.04 55.88 55.41
54.92 55.87 55.31 55.69 57.52 58.17 57.99 57.48 58.27 59.12 59.27 58.78 58.82 58.49 57.75 57.00 57.95 57.59 58.11 59.04 59.85 59.67 60.00 59.73 59.71 59.59 58.16 57.12 56.81 56.00 55.11 55.90
55.41 55.18 54.80 54.74 55.68 58.13 58.11 58.18 58.26 59.19 59.13 57.96 57.55 56.52 55.21 55.98 56.84 57.43 57.92 59.57 59.17 58.98 59.00 58.38 58.57 58.29 57.68 57.91 58.06 56.87 56.84 55.03
54.88 54.99 55.11 55.25 55.46 57.86 57.50 58.37 58.39 58.69 59.05 58.24 57.36 56.38 56.83 56.89 56.30 56.40 57.35 58.19 59.19 58.82 58.70 57.89 56.99 57.47 57.99 58.45 57.96 58.04 57.32 55.93
55.88 56.10 55.73 55.46 56.50 57.86 57.96 57.69 57.73 58.66 58.87 58.09 57.23 56.52 55.85 55.30 55.25 55.04 56.14 57.20 58.19 58.34 58.29 57.76 57.04 57.21 58.22 58.79 58.40 58.13 57.32 56.59
55.26 55.03 54.66 55.07 55.52 56.91 58.09 57.39 56.65 58.19 58.37 57.81 57.26 56.87 55.52 55.13 54.05 53.69 54.48 56.06 56.34 56.89 57.22 57.91 57.83 57.69 58.18 58.94 58.76 58.46 57.66 56.74
55.53 55.35 55.10 55.40 55.66 55.70 57.54 57.78 57.68 57.77 58.08 57.87 58.25 57.98 56.39 55.50 54.50 53.40 54.31 56.11 56.76 58.46 57.80 59.05 57.91 57.65 59.61 58.34 58.08 58.05 57.96 57.44
55.64 55.80 55.37 55.61 55.70 55.57 56.16 56.24 57.15 58.19 57.85 58.06 58.13 58.19 57.61 57.05 55.95 54.79 54.54 56.14 57.24 57.35 58.01 57.58 58.20 57.73 57.81 57.93 57.78 57.06 57.35 57.43
55.88 56.05 55.37 56.58 56.48 56.39 56.50 56.86 56.41 56.91 58.43 58.67 58.20 57.99 58.08 57.92 57.85 55.93 55.00 55.87 56.96 57.42 57.86 58.21 57.83 57.63 57.65 57.14 56.39 56.25 56.29 56.55
55.99 56.37 56.54 56.37 57.40 56.92 56.47 57.02 56.82 56.77 57.13 57.76 58.27 58.16 58.48 58.45 57.34 57.22 56.75 56.27 56.12 56.88 57.68 58.20 58.18 57.31 56.80 56.37 56.25 55.78 55.69 55.80
55.80 56.67 56.80 55.72 56.21 57.34 57.11 57.06 56.97 57.00 56.89 56.88 56.96 58.23 58.72 58.16 57.26 56.92 57.20 57.61 57.70 56.98 56.80 57.02 57.56 57.26 56.66 55.68 55.37 55.82 55.53 55.38
54.71 56.37 56.54 56.21 56.17 56.63 57.26 57.67 57.20 57.13 57.30 56.58 56.22 56.29 57.34 57.60 58.10 58.08 57.20 56.82 57.81 58.04 57.41 56.41 56.26 56.58 56.31 55.83 55.62 55.49 55.64 55.78
53.57 54.13 56.04 57.05 56.93 56.92 57.11 57.33 57.90 57.80 57.70 57.04 56.23 56.00 56.24 56.71 57.95 58.40 58.32 57.63 57.11 57.55 57.68 57.00 56.44 56.39 56.21 56.02 55.78 55.37 55.41 55.64
52.73 52.96 53.16 55.01 56.57 57.07 57.53 57.58 57.85 58.15 57.78 57.47 57.01 57.18 57.27 57.12 57.05 57.75 57.79 57.75 57.74 57.58 57.30 57.47 57.20 56.69 56.67 56.17 56.25 55.62 55.13 54.95
52.34 53.93 54.48 54.10 54.75 55.62 56.81 57.31 57.78 58.38 57.51 57.23 57.58 58.00 57.92 57.53 57.47 57.54 57.50 57.51 57.63 57.62 57.30 57.17 56.84 57.11 50.34 46.55 51.69 55.75 55.56 54.97
52.18 52.47 52.53 51.91 51.95 53.47 54.15 55.89 57.07 57.49 57.60 57.76 57.53 57.38 57.85 58.21 58.25 57.93 57.56 57.46 57.62 57.17 57.32 57.30 56.77 57.15 47.12 45.66 44.52 55.56 55.88 55.92
51.20 49.95 48.61 47.75 48.32 52.09 53.58 52.11 52.01 52.65 54.89 55.93 57.28 56.77 57.13 57.51 58.08 58.04 57.93 58.25 57.73 57.61 57.59 57.55 57.40 57.60 46.42 44.67 42.38 51.42 55.16 55.43

GFSFLT1_sfc_wetblb_078.txt.gz
Wetbulb
56.61 57.62 58.59 58.15 57.07 56.15 56.08 57.45 58.37 59.41 60.38 61.14 61.59 61.79 61.92 61.87 61.96 61.78 61.35 60.88 59.58 57.56 57.77 59.03 57.01 56.34 56.20 56.57 55.37 54.48 54.37 53.44
56.97 57.26 58.37 57.93 56.49 56.21 56.16 56.85 58.79 58.83 59.11 58.63 59.04 58.79 59.72 60.17 60.64 60.53 60.62 60.67 60.28 58.75 57.80 59.56 58.50 57.55 57.52 56.91 55.23 54.32 52.29 52.79
55.82 56.22 57.68 57.52 57.04 56.51 57.07 57.01 58.47 58.13 58.42 58.68 58.60 58.74 59.41 59.71 59.98 59.67 59.82 59.76 59.54 59.57 58.65 59.54 59.92 58.46 56.97 55.01 55.13 53.94 53.58 53.65
54.70 55.39 56.19 57.02 56.60 56.49 57.41 57.71 57.68 58.11 58.54 58.56 58.25 58.02 58.09 58.13 58.51 58.54 58.90 59.54 59.57 59.50 59.58 59.67 59.74 59.08 57.03 55.09 54.85 55.67 53.52 52.92
55.10 54.95 55.36 56.01 56.25 57.08 57.48 57.67 58.46 58.28 58.14 57.74 56.99 56.38 55.63 57.26 57.97 58.39 57.82 58.70 59.16 58.98 59.16 59.26 59.09 59.00 57.58 57.46 56.91 54.82 54.50 53.28
54.41 54.39 55.13 55.77 56.19 56.25 57.64 57.83 58.23 58.88 58.35 57.24 57.08 56.28 56.58 57.00 57.58 57.30 57.36 57.84 58.79 58.52 58.90 58.96 58.77 58.27 57.85 58.01 57.96 56.31 55.47 54.56
54.76 55.10 54.83 54.29 55.61 55.77 57.35 57.29 57.79 58.71 58.28 57.79 56.83 56.12 56.06 55.58 56.05 55.80 56.26 57.13 58.08 57.98 57.91 58.46 58.51 58.35 57.19 57.86 58.68 57.30 56.10 55.80
53.02 53.34 53.44 53.57 54.64 55.31 57.01 57.45 57.02 58.02 58.31 57.85 57.17 56.16 56.32 55.70 55.27 55.52 55.56 56.03 56.79 57.48 57.31 57.26 57.69 58.14 58.21 58.09 58.26 56.34 55.61 54.94
53.16 53.61 53.86 53.87 54.81 55.57 56.26 56.98 56.82 57.63 58.21 57.53 57.62 57.31 56.53 56.15 55.78 54.91 55.49 56.24 56.95 57.98 57.71 57.57 57.36 57.09 57.66 58.10 57.37 56.98 57.02 56.28
53.46 53.78 54.09 54.58 54.66 55.45 56.15 56.60 56.70 57.06 58.10 57.73 57.34 57.49 56.81 55.22 55.20 54.93 54.14 55.71 57.12 57.47 57.46 58.07 57.82 57.69 57.78 57.69 57.35 56.68 57.10 56.26
53.96 54.09 54.23 54.87 55.13 55.62 55.98 56.56 56.93 57.70 57.91 58.07 57.82 57.70 57.44 56.09 54.82 53.41 53.79 54.67 56.31 57.04 57.36 56.76 58.00 57.82 58.02 58.04 57.21 57.00 57.10 56.70
53.97 54.01 54.82 55.22 55.26 55.18 55.65 55.57 56.12 57.25 57.68 58.03 57.88 58.02 57.83 57.30 56.02 54.60 53.61 54.08 55.17 55.83 56.89 57.26 57.30 57.88 57.53 57.15 57.45 57.06 56.62 56.53
54.31 54.24 55.02 54.98 54.97 55.25 55.45 55.80 55.85 56.07 57.09 57.30 57.65 57.93 58.00 57.54 57.37 56.97 55.65 53.94 54.33 55.35 56.22 56.70 57.17 57.26 57.12 57.15 56.54 56.29 55.20 55.48
53.20 53.76 54.01 54.99 55.27 55.41 55.48 56.09 56.01 56.52 56.61 56.61 56.62 56.82 57.26 57.50 57.61 57.65 57.50 56.03 55.02 54.54 55.51 55.77 56.18 56.72 56.54 56.02 55.59 55.20 55.04 54.82
51.93 52.03 53.27 54.18 54.79 55.78 56.05 55.99 56.69 56.71 56.67 56.05 55.88 56.10 56.55 57.04 58.04 57.91 57.17 57.48 57.19 56.80 55.69 55.66 55.71 56.06 56.65 56.41 55.74 54.96 54.39 54.20
51.63 51.29 52.09 53.82 54.30 54.95 55.63 56.16 56.45 56.64 56.51 55.99 55.46 55.77 56.32 56.39 56.67 57.17 58.00 57.62 57.01 57.07 57.15 56.91 56.34 56.09 55.73 55.77 55.82 55.07 54.35 54.12
48.38 48.69 48.56 49.15 51.92 53.64 54.32 55.52 55.83 57.14 56.05 56.23 56.65 56.37 55.89 55.79 55.93 56.02 56.41 56.87 57.72 57.49 56.41 56.47 56.37 56.47 49.78 46.61 51.61 54.83 54.69 54.01
45.63 44.88 44.69 45.50 47.17 48.94 48.59 49.86 51.61 53.80 56.08 55.90 55.65 56.76 56.39 56.27 56.42 55.99 55.76 55.94 56.59 56.43 56.30 56.28 55.95 56.38 46.96 45.33 44.17 54.52 54.74 54.21
42.34 42.23 41.68 41.64 45.08 45.63 46.08 46.49 47.16 47.64 47.91 48.21 48.33 48.10 50.59 52.87 56.99 56.45 56.24 56.46 56.18 56.15 56.15 56.52 56.41 56.66 45.95 44.78 43.06 52.09 54.75 55.28

GFSFLT1_sfc_wetblb_081.txt.gz
Wetbulb
55.35 55.52 57.04 56.58 56.36 55.34 56.32 56.20 58.14 59.60 60.30 61.47 61.99 62.23 61.55 62.40 63.16 62.60 60.98 60.24 58.91 57.36 56.46 55.24 55.37 53.89 54.18 54.86 54.47 52.57 54.11 54.78
54.75 56.82 57.45 55.94 54.74 54.68 56.28 56.38 57.74 59.09 59.35 59.13 59.74 59.72 61.10 62.12 62.51 62.14 60.75 59.32 57.53 56.01 56.47 55.11 55.01 53.36 54.65 56.01 54.62 52.64 51.70 53.27
55.23 56.82 57.40 57.14 55.72 54.70 55.50 56.04 57.72 57.31 59.14 58.87 59.24 59.77 60.14 61.15 61.34 61.48 61.33 59.18 57.23 56.37 57.34 55.30 55.67 54.70 55.65 55.44 54.02 52.09 51.45 52.06
54.07 56.14 56.71 56.80 56.04 55.43 56.20 56.08 56.58 57.40 58.78 58.45 58.43 58.73 58.85 58.57 59.29 59.85 60.26 60.11 59.14 56.91 57.72 56.97 56.82 56.89 56.22 55.90 54.57 53.48 52.01 51.46
54.42 55.69 56.09 55.96 56.02 56.49 56.74 55.62 57.25 58.07 58.59 57.81 57.44 57.14 56.18 57.69 58.56 58.91 58.77 59.64 59.30 58.96 58.61 59.29 57.88 57.52 57.10 56.22 56.01 55.28 54.03 51.73
53.78 55.05 56.39 56.44 56.37 55.80 56.36 55.83 57.36 58.13 57.82 57.91 57.23 56.18 56.67 57.91 58.61 57.63 57.74 58.28 59.02 58.74 59.12 58.89 58.88 58.62 57.96 57.14 55.72 55.01 54.17 52.49
53.90 55.09 56.34 55.54 55.99 55.92 55.40 55.78 56.64 57.88 57.76 57.08 56.78 56.37 55.77 56.50 56.93 56.56 56.91 57.33 58.17 58.40 58.61 58.80 58.79 58.28 58.05 57.79 57.58 56.14 55.45 54.38
53.07 53.42 54.40 54.36 54.50 54.94 55.24 55.47 56.24 57.73 56.68 56.42 56.45 56.42 56.12 55.07 56.18 56.36 56.48 56.50 57.22 57.70 57.99 58.02 58.01 57.91 57.66 57.76 57.62 57.20 56.14 54.20
53.08 53.11 53.82 54.54 54.76 54.99 55.47 55.59 56.46 57.80 57.45 56.99 56.54 56.39 56.33 56.22 55.55 56.48 56.50 56.68 56.95 58.06 57.34 57.79 57.88 58.03 57.15 56.94 57.08 57.14 56.58 55.95
52.69 53.35 53.38 53.89 54.33 54.80 54.87 55.53 56.14 57.25 57.98 57.21 56.83 56.28 56.47 55.97 55.85 56.16 56.44 56.54 56.56 57.39 57.40 57.00 56.95 57.59 57.33 56.94 56.56 56.49 57.04 56.65
52.49 53.38 53.25 53.93 54.52 55.09 55.05 55.83 55.76 56.58 58.15 57.80 56.89 56.34 56.02 55.97 54.64 54.33 54.01 54.27 55.17 55.79 56.55 56.39 56.92 57.09 57.36 57.26 57.03 56.83 56.65 56.86
52.62 53.48 53.76 54.29 54.82 55.09 54.93 55.05 55.31 55.60 57.72 57.86 57.37 57.15 56.97 56.57 54.68 52.89 53.08 53.08 54.15 55.35 56.62 56.89 56.69 57.01 57.10 56.85 57.12 56.84 56.26 56.16
53.17 53.14 53.80 53.83 53.87 54.50 54.50 54.72 55.27 56.11 57.34 57.83 57.38 57.70 57.51 56.62 55.23 53.87 52.53 52.36 53.41 54.82 55.56 56.72 57.05 56.81 56.64 56.76 56.23 56.26 55.63 55.45
51.49 52.88 53.15 53.39 53.68 54.40 54.82 54.56 54.30 54.97 55.66 56.06 56.18 56.81 57.36 57.05 56.66 56.65 55.25 52.92 52.55 53.80 54.77 55.06 55.72 56.06 55.78 56.12 56.69 56.40 56.10 55.99
51.77 52.19 53.47 54.50 54.85 55.01 55.25 55.73 55.59 55.33 55.49 55.23 54.85 54.59 55.43 56.54 57.23 57.30 57.30 56.25 54.70 53.40 53.50 54.45 54.92 55.37 55.98 56.03 55.68 55.43 55.45 55.27
48.43 49.57 51.17 52.92 53.46 54.50 55.21 55.21 55.85 55.94 55.45 55.43 55.27 54.97 55.43 55.47 55.41 56.16 56.75 57.25 56.81 56.10 55.11 54.38 54.36 54.49 54.80 55.06 55.61 55.34 54.57 54.05
45.21 46.55 47.60 48.08 48.61 49.52 50.12 50.55 52.11 55.99 55.79 55.17 55.65 55.33 55.39 55.21 55.47 55.39 55.53 55.51 55.64 56.18 56.57 56.34 55.49 55.03 48.07 45.34 49.66 54.51 54.54 53.99
41.97 41.88 43.53 44.31 44.71 45.49 45.18 46.91 48.31 49.19 49.94 49.98 50.27 54.11 55.71 54.97 54.97 54.99 54.98 54.84 55.55 55.45 55.32 55.58 55.70 56.48 46.63 45.42 44.37 53.78 54.45 54.30
39.23 39.65 40.07 41.28 42.14 42.54 42.63 43.17 44.07 43.91 43.78 43.80 44.42 46.89 47.98 50.08 51.96 55.94 55.35 55.45 55.05 55.59 55.78 56.27 56.03 55.67 42.21 43.80 43.07 52.01 54.53 54.55

GFSFLT1_sfc_wetblb_084.txt.gz
Wetbulb
50.62 54.28 55.72 56.36 56.24 55.92 56.80 54.67 56.74 59.96 61.60 62.45 62.38 60.59 60.61 60.91 61.43 62.05 61.40 61.76 62.84 62.20 60.07 57.63 57.72 56.13 55.34 54.16 53.53 54.34 55.26 54.87
49.30 54.22 56.04 55.43 54.99 56.42 56.70 55.45 55.47 58.52 59.17 59.91 60.34 59.93 60.11 60.45 61.93 62.51 62.16 61.77 62.31 60.26 57.54 55.87 56.59 56.03 54.91 54.22 53.68 53.32 52.61 54.18
52.79 54.70 55.64 55.98 55.62 56.40 56.34 56.77 56.54 58.81 57.70 59.36 59.89 59.91 60.95 61.17 61.82 61.09 60.27 59.47 58.58 57.96 56.07 55.61 54.56 54.39 54.63 54.54 53.69 51.52 51.83 54.60
53.32 54.82 55.06 56.34 55.26 55.32 55.28 56.05 56.63 57.56 59.16 58.63 58.75 59.31 59.09 59.91 60.80 59.95 59.24 58.19 56.99 57.26 55.93 55.32 53.85 54.40 54.15 54.76 53.54 52.91 52.86 52.47
53.67 54.81 54.80 56.25 55.78 56.06 55.76 55.73 56.23 56.93 58.09 58.11 57.43 57.52 56.98 57.78 59.37 60.36 58.54 57.72 56.76 57.15 56.00 54.88 54.63 54.73 54.54 55.40 55.11 53.82 53.92 51.71
53.19 54.31 55.13 56.94 56.32 55.87 56.02 55.28 55.67 57.92 57.71 58.13 57.89 56.96 57.28 58.18 58.97 58.73 58.92 58.43 57.20 57.59 58.23 56.47 55.59 55.93 56.20 56.13 55.30 54.57 54.26 53.01
53.72 54.09 56.06 56.21 55.89 55.50 55.75 55.50 55.95 57.32 57.50 57.77 57.15 56.18 56.94 57.26 57.14 57.08 57.92 58.20 58.01 57.62 57.97 58.35 58.12 57.21 57.16 56.34 55.91 55.28 54.18 53.67
52.92 53.61 54.55 54.94 54.53 54.67 54.93 55.04 55.51 57.22 56.06 56.78 56.82 56.43 56.08 57.00 56.84 56.94 57.22 57.44 57.54 57.84 58.00 56.96 58.11 57.89 57.54 57.35 56.58 55.81 54.87 53.87
52.66 53.60 54.55 54.65 54.52 54.50 54.54 54.34 55.02 56.24 56.87 56.33 56.50 56.49 56.65 56.89 57.46 57.37 57.48 57.79 57.97 58.49 58.39 58.63 58.14 57.97 57.74 57.61 57.47 56.99 56.02 55.20
52.29 53.31 54.52 54.55 54.30 54.54 54.55 54.26 55.33 56.00 55.92 56.69 56.39 56.17 55.73 56.05 56.02 56.88 57.34 57.62 57.87 57.97 58.15 57.99 58.34 58.48 57.84 57.15 57.20 56.94 56.79 55.98
51.93 52.93 54.04 54.67 54.80 54.83 54.81 54.95 55.22 56.28 56.65 56.45 56.71 56.21 56.24 56.11 55.90 54.26 54.82 56.21 56.99 57.21 57.29 57.39 57.41 57.80 57.98 57.05 56.34 56.52 56.61 56.62
52.37 52.80 53.48 54.55 54.87 54.78 54.39 54.12 54.42 55.02 56.93 55.84 56.54 56.63 55.68 54.80 54.35 53.45 53.53 53.61 55.05 56.38 57.09 57.18 56.68 56.90 56.98 56.51 56.16 56.16 55.61 55.71
52.74 52.24 53.05 53.32 53.44 53.81 53.87 53.33 53.68 54.02 55.12 56.44 57.01 56.47 56.10 55.81 55.30 54.30 53.00 52.93 53.79 54.94 56.10 56.42 56.56 56.42 56.63 56.55 56.29 56.64 55.80 55.58
51.58 52.56 52.49 53.13 53.67 53.56 53.62 53.00 53.18 54.18 55.30 56.58 56.89 56.73 56.53 55.42 54.69 53.89 52.21 52.10 52.58 53.67 54.65 55.32 55.72 56.14 56.43 56.30 56.12 55.56 55.50 55.48
51.87 51.93 52.43 53.19 54.24 54.24 54.55 54.41 54.25 54.41 54.36 54.01 53.71 54.06 55.48 56.49 56.30 55.50 54.10 53.11 51.82 52.40 54.00 54.49 54.35 54.49 55.70 56.14 56.09 55.81 55.79 55.75
48.09 49.28 51.00 52.26 53.28 54.27 54.57 54.84 54.78 54.80 54.24 53.81 53.65 53.72 54.08 54.18 54.32 54.79 55.36 55.03 54.04 52.80 52.72 53.34 53.87 54.12 54.77 54.95 55.11 54.77 54.63 54.41
44.14 45.07 46.34 47.04 47.80 48.38 49.25 49.79 52.12 56.08 54.16 54.08 55.75 53.94 54.12 53.74 53.62 53.74 53.79 53.95 54.27 53.99 53.53 53.73 53.26 53.64 47.17 45.08 51.02 55.10 55.33 54.85
40.22 41.01 42.27 42.56 42.86 43.77 44.10 45.38 47.84 48.38 48.26 47.66 48.21 51.32 54.55 54.56 54.76 55.10 55.04 55.38 55.20 54.43 54.55 55.21 55.11 54.81 43.45 44.10 43.48 53.48 54.29 54.42
36.65 38.48 38.90 39.47 40.41 40.44 40.89 40.82 40.87 41.11 41.01 41.02 42.77 44.06 45.06 46.61 47.92 47.84 51.25 53.65 55.10 55.24 55.04 55.32 55.60 39.75 35.93 36.60 36.78 47.95 53.30 54.23

GFSFLT1_sfc_wetblb_087.txt.gz
Wetbulb
53.36 53.74 58.09 60.34 61.74 62.84 62.95 62.66 62.26 63.93 63.89 63.17 62.88 61.69 61.75 61.48 61.57 61.89 62.87 62.71 63.79 63.00 62.28 59.92 60.63 60.17 59.70 59.68 59.48 60.23 59.92 59.52
53.39 52.83 57.42 59.47 61.05 61.24 61.31 61.42 60.82 61.93 62.15 61.28 60.92 59.98 60.46 60.72 61.53 62.43 61.64 62.70 63.06 62.53 60.98 59.47 60.11 60.23 59.51 59.63 59.72 59.15 58.83 60.08
52.38 55.50 57.63 58.66 59.41 60.42 60.00 60.88 60.70 60.52 61.92 62.10 62.06 61.50 61.55 61.67 61.58 62.40 61.83 61.59 62.63 61.18 59.15 59.05 59.41 60.71 59.37 58.20 58.64 58.33 58.43 58.97
52.34 55.31 57.07 58.43 58.49 59.24 58.84 60.31 60.18 60.40 60.68 60.64 60.75 61.31 61.02 61.04 60.62 61.21 61.63 61.68 62.02 60.32 59.33 59.58 60.51 59.72 58.52 58.75 59.13 58.72 56.11 58.13
52.24 55.07 56.71 57.60 58.11 58.52 59.26 59.82 60.05 60.35 60.81 59.86 59.07 58.49 58.12 58.75 60.61 59.92 59.16 60.07 60.49 58.68 59.41 59.54 58.68 58.24 58.79 58.40 58.16 58.11 58.58 57.09
52.44 55.21 57.10 58.31 57.71 56.88 57.83 59.01 58.48 58.99 59.57 59.70 59.14 58.18 58.92 60.11 59.87 58.66 57.53 57.15 57.53 57.64 58.29 57.55 56.92 57.48 58.47 57.77 56.38 58.35 60.00 58.61
52.93 56.70 57.81 58.19 57.10 56.65 56.89 56.55 58.04 57.93 58.25 59.27 59.26 59.08 58.80 58.53 58.22 57.37 56.59 56.25 57.17 56.47 56.42 56.30 56.74 57.75 57.78 58.45 58.19 58.12 58.27 59.11
54.92 55.81 56.68 57.48 56.04 56.37 56.66 56.02 57.55 57.91 58.34 58.83 59.07 59.15 59.51 58.65 57.47 57.67 56.87 55.79 56.59 57.51 57.25 57.12 57.32 58.33 57.08 57.21 58.65 57.54 56.78 57.23
54.07 56.36 56.93 57.01 55.77 55.73 56.23 56.13 56.75 56.89 57.54 57.96 58.58 58.63 58.68 58.44 58.08 57.99 58.03 57.23 56.79 57.10 56.66 56.77 57.85 57.99 57.83 57.39 57.82 58.15 57.27 58.29
53.00 56.18 57.14 56.87 56.35 55.27 55.77 55.84 56.26 56.92 57.07 57.67 57.60 58.19 58.09 58.17 58.67 58.22 58.18 58.87 58.35 57.19 56.55 55.93 55.79 55.42 56.57 57.74 57.31 56.85 57.32 58.63
52.39 55.07 56.56 56.97 57.46 55.71 55.95 56.06 55.99 56.47 57.06 57.55 57.15 56.96 57.48 58.18 57.83 57.65 57.84 58.10 58.77 58.51 57.96 57.10 56.45 56.28 55.29 56.40 56.88 57.97 57.65 57.36
53.73 55.29 56.72 56.61 55.88 55.56 55.07 55.47 55.51 56.13 56.80 57.89 57.25 56.77 56.91 57.22 57.36 58.39 57.77 57.40 57.73 57.81 57.94 57.85 57.86 56.86 55.62 55.10 54.79 56.73 56.80 56.50
54.11 53.80 54.09 54.56 54.47 54.59 54.61 55.19 55.32 56.40 57.04 58.14 57.91 57.63 56.69 56.43 56.76 57.16 57.95 58.52 59.22 58.85 58.21 57.55 57.35 57.37 57.60 56.78 55.35 55.60 56.54 56.53
53.03 53.14 52.93 53.18 53.59 54.45 54.60 55.57 57.19 57.83 57.19 57.95 57.47 57.40 57.08 56.52 56.59 56.34 56.12 56.98 58.00 58.45 58.77 58.58 58.37 57.27 56.65 56.90 57.10 56.98 56.20 56.16
49.76 51.84 52.50 53.43 53.98 54.14 54.53 56.64 57.87 58.28 58.64 58.86 57.94 57.48 57.97 57.47 57.22 56.25 55.64 56.27 56.99 58.07 58.47 58.82 58.99 59.03 58.99 57.90 57.23 57.29 57.18 57.00
43.40 45.57 48.85 51.61 53.36 54.23 54.93 56.00 57.44 57.94 57.64 57.96 57.73 58.43 59.20 59.12 58.84 58.60 58.13 57.08 56.56 56.84 57.43 58.14 58.60 58.77 58.53 58.77 57.97 57.36 57.03 56.89
40.00 41.19 42.77 44.35 46.05 47.95 48.19 50.94 56.43 57.28 56.53 55.76 56.84 57.44 58.01 58.30 58.43 58.43 58.64 58.33 57.58 56.95 56.42 56.97 56.76 55.57 47.62 46.22 52.64 56.78 56.98 56.88
36.54 38.02 39.00 40.43 41.31 42.39 43.53 44.12 45.56 45.72 45.67 45.76 47.50 51.32 51.15 51.86 54.80 56.12 56.78 56.81 57.52 56.62 56.27 55.56 55.08 49.77 37.02 39.02 40.83 55.98 56.67 56.32
34.11 35.32 37.10 37.40 38.33 38.15 38.85 39.74 40.12 39.95 39.93 40.17 41.52 43.45 43.77 44.28 45.26 46.21 48.73 47.82 45.02 46.78 44.48 47.44 40.38 36.41 35.62 35.93 35.71 48.17 51.52 53.88

GFSFLT1_sfc_wetblb_090.txt.gz
Wetbulb
56.82 57.87 58.81 59.53 63.32 65.45 66.91 68.44 66.98 66.01 66.10 66.36 66.19 65.53 64.60 64.47 63.00 62.93 63.17 63.71 63.85 63.89 63.08 62.66 62.00 60.54 60.30 61.59 62.69 63.76 63.54 62.84
57.06 58.09 59.11 59.97 62.95 64.73 65.73 67.19 64.91 64.84 65.01 64.38 63.99 62.87 62.89 62.55 62.90 62.62 62.79 63.30 63.33 63.46 62.71 61.69 60.75 59.84 60.03 62.52 62.63 62.88 62.38 63.05
55.38 57.12 58.34 61.27 62.41 64.13 65.02 66.46 63.63 65.60 66.81 66.54 64.96 62.95 63.08 63.00 62.59 62.21 62.62 62.57 63.53 63.07 61.74 60.96 60.68 59.53 59.38 62.82 62.44 61.92 61.87 62.51
53.86 55.47 57.56 61.44 62.24 63.54 64.46 65.88 64.71 66.45 66.30 65.64 64.12 63.61 62.75 62.39 61.52 61.19 61.73 62.66 63.21 62.42 61.10 60.77 60.40 60.13 59.31 61.80 62.91 62.17 59.89 61.49
54.08 54.79 56.71 60.34 62.63 63.88 64.64 65.30 65.82 65.55 65.75 64.58 63.50 62.21 59.84 61.54 61.04 62.03 61.94 61.46 61.98 61.32 60.94 60.59 60.55 60.55 60.66 62.20 63.56 62.86 62.22 59.63
54.86 55.28 56.65 59.85 62.82 63.30 63.86 65.00 64.97 64.92 64.65 64.54 62.60 61.12 61.54 63.48 63.28 61.34 60.88 61.33 61.23 60.40 60.29 60.24 59.81 60.14 61.60 63.02 62.95 62.67 61.92 61.38
55.96 56.83 57.78 60.43 62.75 60.68 62.01 63.73 63.94 64.33 64.04 63.29 62.80 61.75 60.50 61.47 59.84 59.57 58.49 57.93 59.87 59.70 60.07 60.10 59.80 60.00 61.22 61.79 61.40 63.05 62.58 62.66
57.39 57.61 59.28 60.44 60.59 57.93 60.04 62.69 62.53 62.84 62.64 62.19 61.66 61.34 61.99 61.81 59.12 57.20 56.34 56.04 55.88 56.87 57.72 57.70 58.23 60.15 61.23 61.03 61.47 62.26 61.85 62.08
57.97 57.81 59.76 60.56 58.36 56.79 58.40 59.98 61.73 61.24 61.05 60.79 61.05 62.36 61.51 61.36 59.43 58.32 56.28 56.64 56.36 56.72 56.44 56.88 57.93 58.99 60.01 60.54 60.85 60.22 60.73 61.20
58.01 58.09 59.91 60.99 59.24 56.75 57.55 60.19 61.81 61.16 60.18 59.57 60.78 61.49 60.77 59.91 59.37 58.85 57.50 57.58 57.16 57.47 57.37 57.86 58.48 58.56 58.72 59.71 59.38 57.65 59.00 60.32
57.94 57.01 58.95 60.85 60.08 57.14 58.03 60.53 61.11 59.99 60.02 59.35 60.35 60.22 60.32 60.70 60.41 58.89 58.45 57.62 57.26 56.58 56.38 56.58 56.65 56.20 56.66 56.81 57.12 57.36 57.35 57.33
56.36 57.58 58.52 59.87 59.21 56.84 57.02 58.84 58.71 58.63 58.73 58.79 59.99 59.11 59.64 59.53 59.22 58.72 58.12 58.68 57.40 56.36 55.57 55.43 54.55 54.23 54.65 53.76 53.69 55.53 57.42 57.13
54.02 54.67 56.83 56.81 55.96 56.16 56.39 57.05 57.11 58.92 58.15 58.50 58.68 58.38 59.68 58.45 58.62 59.06 58.11 58.35 58.86 58.75 58.03 57.30 56.63 55.63 54.58 53.97 53.74 53.77 55.94 56.37
46.81 53.15 54.28 54.78 55.11 55.34 55.68 56.41 57.06 58.92 57.76 58.36 58.02 57.97 59.14 59.46 59.84 60.37 61.02 59.81 59.05 58.71 58.13 57.68 57.30 56.68 55.43 54.92 54.57 53.44 54.39 56.18
43.88 44.41 50.55 53.97 54.69 55.18 55.30 56.33 57.30 57.32 57.42 58.01 58.23 58.72 58.35 58.78 59.32 59.59 59.71 60.53 59.80 60.13 59.96 59.09 58.67 58.33 58.10 57.00 55.54 55.81 55.42 56.58
40.22 40.35 42.46 45.44 53.46 54.64 55.58 57.45 58.12 59.15 58.87 57.53 57.34 58.29 58.59 58.61 58.61 58.55 58.17 58.09 59.20 60.43 60.10 60.05 60.15 59.49 58.96 58.60 58.49 57.96 57.01 58.59
37.08 38.31 39.33 40.79 42.80 48.42 49.45 54.43 57.53 58.47 57.52 56.73 58.64 58.81 58.99 59.46 58.97 59.24 58.98 57.96 57.79 57.66 57.96 59.22 60.01 58.25 37.97 40.56 53.41 59.77 59.32 59.00
34.09 35.97 36.58 37.50 38.86 41.60 43.06 44.63 46.12 46.66 46.61 46.50 48.00 49.91 50.16 50.72 55.60 57.37 57.85 58.34 59.17 57.52 57.10 57.48 47.02 42.58 36.32 37.35 37.19 55.68 58.11 57.84
32.43 33.26 35.57 35.41 36.57 37.42 38.71 39.24 39.96 40.26 40.14 40.66 42.31 43.31 43.72 45.26 46.01 46.51 44.43 44.00 42.87 42.72 41.73 40.18 38.12 36.33 35.58 36.31 36.10 49.25 54.02 40.59

GFSFLT1_sfc_wetblb_093.txt.gz
Wetbulb
56.85 58.08 59.02 58.63 59.79 62.71 65.50 69.13 70.43 67.73 67.74 67.58 67.07 67.25 67.54 66.53 66.54 67.02 66.06 66.06 65.53 66.16 64.81 63.71 65.10 62.50 62.23 62.66 61.42 61.75 61.98 62.12
56.27 57.82 59.38 59.67 60.37 61.94 65.08 67.28 70.10 67.39 65.65 64.48 65.07 64.68 64.50 65.10 64.92 64.83 65.34 65.10 64.26 63.93 63.28 63.55 63.55 61.25 61.58 61.72 61.40 60.36 60.36 64.11
54.40 55.98 58.29 59.63 59.97 61.43 64.56 66.21 68.63 67.03 65.42 66.56 67.52 65.96 65.76 65.17 65.29 64.28 64.52 64.17 64.08 63.20 63.42 62.78 61.91 60.85 60.73 60.35 60.83 59.43 59.79 62.22
54.18 55.13 56.84 59.16 60.02 62.12 63.74 65.69 67.69 66.87 67.62 67.81 67.00 66.00 64.06 63.13 63.69 64.15 64.32 64.26 63.57 63.32 62.92 61.92 61.03 60.83 60.60 60.35 60.92 59.78 59.23 60.95
56.61 55.98 56.25 57.80 60.43 63.10 64.51 65.66 67.60 65.76 67.84 67.29 65.86 62.46 61.05 62.72 63.49 63.69 62.75 62.66 62.51 62.83 62.34 61.69 60.70 60.85 60.09 60.30 61.10 60.50 61.03 59.17
57.18 56.61 56.83 57.37 60.13 62.63 64.76 65.57 66.85 66.64 67.83 67.40 66.10 64.61 64.77 64.06 63.64 63.75 63.05 62.09 62.00 62.19 61.66 61.09 60.44 60.34 60.39 60.43 60.49 61.57 61.47 61.17
58.56 58.48 58.17 57.19 59.61 64.12 65.01 65.18 65.84 66.45 66.84 66.65 66.15 64.95 64.29 62.37 63.33 63.08 62.08 61.43 61.06 61.05 60.97 60.82 60.63 60.27 60.46 60.50 61.50 61.35 61.79 62.76
58.57 58.50 57.37 58.07 59.92 63.57 64.50 64.43 64.85 65.86 65.75 65.73 65.65 64.67 63.82 62.42 62.47 62.50 60.09 59.10 59.45 60.22 60.08 60.18 60.17 60.14 60.41 60.69 60.77 62.36 63.09 62.47
59.27 59.38 60.03 60.42 61.77 62.77 61.96 63.97 64.28 65.03 65.04 64.98 64.76 64.10 62.34 63.00 62.79 61.26 59.57 57.62 58.35 59.53 60.08 60.08 60.15 60.20 60.20 60.77 61.49 62.49 62.39 62.31
59.18 59.88 59.85 61.69 62.27 59.24 59.34 63.36 64.16 64.08 63.90 64.21 63.18 62.58 62.08 62.36 61.72 60.00 58.32 57.65 56.84 57.32 58.26 59.08 59.55 59.91 59.99 59.96 60.05 59.98 60.93 61.24
54.87 59.64 59.48 61.90 61.21 58.32 58.76 62.48 62.62 62.46 62.44 62.98 61.79 61.25 62.05 62.26 61.09 58.51 57.33 57.62 56.98 56.74 56.98 57.18 58.04 58.94 59.23 59.02 58.95 59.86 60.61 61.30
49.64 55.73 60.60 61.64 61.39 58.35 58.14 60.73 61.59 61.32 61.73 60.46 60.50 60.22 60.87 61.34 61.24 59.27 57.43 57.02 56.88 56.81 57.11 57.14 57.20 57.54 58.37 58.59 59.12 58.59 58.52 58.12
47.03 48.45 55.85 58.36 58.04 58.11 57.42 60.17 60.39 60.09 60.34 59.76 59.74 60.24 60.09 60.08 59.71 59.02 58.12 56.81 56.68 56.51 56.10 55.74 55.08 54.91 55.20 54.94 54.53 55.09 54.61 54.61
43.59 44.65 46.21 54.19 55.87 56.28 56.87 57.89 58.12 59.05 58.75 58.87 59.65 59.62 59.25 58.75 58.92 59.67 58.85 57.94 57.03 56.47 56.00 55.56 54.45 54.06 53.89 54.22 53.63 53.60 53.97 54.12
40.44 41.17 42.76 45.09 51.57 55.70 56.23 56.91 58.37 58.62 58.29 57.81 58.64 60.15 60.06 59.86 60.47 60.69 59.20 59.76 58.39 58.28 58.07 57.51 56.90 55.96 55.16 54.53 53.98 53.73 53.79 54.31
37.48 38.27 39.40 40.91 42.62 46.16 55.95 56.65 57.37 58.12 57.62 57.62 58.24 59.94 60.10 60.60 60.21 60.11 60.56 60.78 60.05 59.63 59.59 59.09 58.66 57.89 56.64 55.64 55.22 54.79 54.32 53.87
35.65 36.11 36.49 37.75 38.92 41.00 44.85 50.52 55.72 59.81 57.75 56.95 58.29 59.65 58.74 59.03 59.56 59.34 58.98 59.21 59.49 59.92 59.62 59.84 59.23 45.25 37.51 38.88 50.60 56.53 56.03 57.18
33.77 33.59 34.94 35.52 36.32 38.00 38.88 43.49 47.06 47.06 46.52 47.28 49.27 51.45 51.45 51.96 55.43 54.94 54.59 56.58 57.17 53.36 51.94 46.23 42.04 39.86 36.46 37.84 37.98 54.12 56.02 52.11
31.94 32.06 33.57 34.47 35.19 35.51 37.34 38.33 40.14 40.60 40.58 41.26 43.31 44.82 44.73 45.05 45.57 44.18 42.43 41.67 41.93 41.99 40.83 40.42 39.09 36.65 35.87 37.05 37.49 49.33 40.89 38.17

GFSFLT1_sfc_wetblb_096.txt.gz
Wetbulb
56.06 57.16 57.38 58.26 58.22 58.73 63.20 70.49 69.84 69.05 68.93 67.60 67.46 66.83 66.82 68.03 67.56 66.86 66.83 67.03 66.57 65.68 64.68 64.16 64.31 63.17 62.85 62.42 61.19 61.66 61.12 60.65
53.83 56.98 59.28 59.00 59.62 60.14 62.86 67.18 69.22 68.20 67.12 65.85 65.41 64.72 65.40 65.76 66.85 66.61 66.40 65.68 65.16 65.08 64.19 63.58 63.48 62.53 62.23 62.15 61.20 60.34 60.12 61.01
52.58 53.89 57.14 58.84 58.66 59.94 61.98 65.86 68.86 67.60 66.94 66.47 65.62 64.68 64.97 64.99 64.74 64.90 65.08 64.81 64.48 64.31 64.06 63.12 62.69 62.07 61.65 61.60 60.87 59.57 59.98 60.65
53.52 55.11 55.93 57.34 58.87 60.55 61.59 64.06 68.78 68.19 67.17 65.91 65.58 65.46 65.40 64.39 63.72 63.02 63.65 64.30 63.92 63.53 63.46 62.96 62.42 62.06 61.05 61.15 60.56 59.25 58.30 59.44
56.73 56.66 56.97 57.05 58.91 61.06 61.10 62.94 64.78 68.17 66.66 65.29 64.92 64.01 62.09 62.44 62.59 62.81 63.05 63.56 63.42 63.43 62.92 62.73 62.17 61.64 61.03 60.79 61.14 60.05 59.20 57.24
57.08 57.55 57.74 57.64 57.92 60.97 61.89 62.66 63.82 67.06 66.03 65.85 65.30 64.07 63.05 62.58 62.59 62.30 62.41 62.53 62.78 62.65 62.74 62.38 61.47 61.31 61.01 60.80 60.56 59.93 59.77 58.44
57.99 58.78 58.57 57.41 58.11 60.71 62.40 62.81 64.35 66.31 66.00 65.87 65.78 63.30 63.00 62.13 61.50 61.76 61.38 61.44 61.51 61.83 62.06 61.80 61.00 60.81 60.59 60.53 60.67 60.28 59.69 59.23
57.39 57.27 58.12 57.60 57.42 60.55 62.70 62.76 63.23 65.39 64.93 65.42 65.95 64.42 63.99 63.07 61.72 61.51 61.47 60.39 60.25 60.77 61.26 60.90 60.35 60.38 60.46 60.93 60.46 60.19 59.68 59.18
54.86 55.43 59.19 59.35 59.48 62.49 62.60 62.92 63.04 65.06 64.56 65.15 64.75 63.33 63.35 62.39 61.33 61.97 60.80 59.64 59.79 60.91 60.52 60.60 60.53 60.29 60.39 60.58 60.22 59.92 59.68 59.40
52.37 53.93 56.92 60.35 61.95 62.04 62.09 62.18 62.84 64.55 63.77 62.95 62.73 63.11 62.07 61.27 61.50 61.08 59.95 58.83 58.73 59.35 59.93 59.93 60.12 59.97 60.05 60.25 59.87 59.06 59.02 59.68
49.37 51.54 52.38 58.34 60.20 59.97 60.63 62.12 62.22 62.78 62.16 62.01 61.55 61.12 61.47 61.48 60.91 59.35 58.08 57.96 57.62 57.61 58.01 59.61 59.54 59.62 59.79 59.93 59.47 59.56 59.26 59.39
46.07 46.75 49.14 51.54 59.46 58.56 59.01 60.29 60.53 60.35 60.66 60.75 59.99 60.16 60.49 60.70 60.19 58.79 57.87 57.09 56.97 56.79 56.85 57.17 58.81 59.03 59.34 59.20 59.14 59.05 58.65 58.70
43.71 43.17 44.08 45.06 49.52 57.77 57.74 58.92 58.68 59.54 59.88 59.47 59.49 59.57 60.10 60.40 59.16 58.50 57.51 56.71 56.96 56.81 57.01 56.59 56.23 57.25 59.00 58.44 57.84 57.95 58.04 57.32
41.28 40.55 40.76 41.38 43.41 48.28 57.21 57.16 57.87 58.76 58.77 58.79 58.67 58.88 59.06 59.02 59.13 58.39 57.04 56.65 56.51 56.45 56.01 55.07 54.73 54.60 54.40 55.91 55.97 55.25 55.23 55.15
38.54 37.98 38.07 39.10 40.34 42.06 45.36 56.46 57.95 58.13 57.93 58.13 58.18 58.11 58.25 58.47 58.97 58.61 57.69 56.82 56.09 55.79 55.89 55.13 54.52 54.01 54.03 53.81 53.45 53.35 53.81 54.02
36.33 35.33 36.16 36.98 37.31 38.67 41.22 45.00 56.83 58.11 57.57 57.20 57.71 58.67 58.76 59.26 59.62 58.69 58.88 57.86 56.89 56.63 56.68 55.87 55.04 54.56 54.45 53.78 53.63 53.21 53.07 53.52
33.28 33.39 34.24 34.49 35.14 36.25 38.41 40.11 45.25 57.24 54.79 55.78 57.62 58.50 59.09 58.96 58.83 59.20 59.00 58.67 58.35 58.00 57.26 57.15 54.73 42.68 37.84 40.81 50.89 54.12 54.06 53.94
30.85 31.31 32.11 32.96 33.89 34.32 35.63 37.39 41.12 45.08 46.60 47.55 49.52 50.88 50.48 49.51 49.86 49.12 47.92 49.55 47.63 45.44 43.92 42.18 39.29 38.79 36.85 38.80 43.23 54.05 53.76 51.10
29.23 30.31 31.39 32.07 33.06 33.47 34.54 35.35 36.43 37.98 38.98 40.86 43.22 43.71 42.90 42.54 41.93 41.00 40.00 40.01 39.87 39.28 38.45 38.44 37.37 36.89 36.83 38.14 40.76 42.43 38.93 36.93

GFSFLT1_sfc_wetblb_099.txt.gz
Wetbulb
52.51 53.00 53.87 53.41 55.27 54.64 63.50 68.54 68.01 67.82 67.86 66.63 65.85 66.12 67.01 65.62 64.37 65.17 65.89 66.00 64.82 63.83 63.23 63.25 63.32 62.84 62.61 62.44 61.88 62.22 61.76 61.14
49.80 50.48 52.11 52.60 53.83 54.74 60.86 67.73 67.47 67.76 66.51 65.37 64.74 64.35 65.67 65.87 66.07 64.58 66.10 66.39 65.36 64.56 64.02 63.64 63.42 62.60 61.76 62.06 61.57 60.98 59.98 61.29
47.82 49.62 48.28 52.06 52.02 53.25 60.73 67.72 67.39 67.30 66.74 66.13 65.27 65.14 65.13 65.23 65.49 65.40 65.52 65.32 65.18 64.57 63.86 63.31 63.22 62.43 61.95 61.53 60.88 59.98 60.03 60.73
46.71 48.62 48.71 48.94 52.53 53.07 63.25 67.47 67.14 66.73 66.22 65.27 63.89 63.36 64.34 63.74 63.91 64.16 64.33 64.78 64.43 63.96 63.61 63.14 63.03 62.71 61.66 61.59 60.84 60.03 58.37 59.54
50.45 52.82 52.59 51.63 52.06 53.24 63.00 67.31 66.53 65.80 65.40 64.65 63.04 62.46 61.64 63.10 63.46 63.58 63.60 64.09 63.69 63.40 63.48 62.88 62.68 62.41 61.48 61.41 61.21 60.23 59.48 57.64
53.32 53.93 54.06 54.20 52.85 53.50 60.20 66.73 66.16 65.48 64.94 64.12 63.31 62.15 62.10 62.96 62.87 62.12 62.59 62.70 63.30 62.63 62.58 62.63 62.12 61.83 61.38 61.10 60.80 60.14 59.96 58.84
53.66 54.58 55.04 55.86 56.34 52.83 55.24 63.91 65.97 64.98 64.04 63.35 62.85 62.32 61.58 60.94 60.68 60.74 61.43 61.50 61.87 62.11 62.41 62.30 62.31 62.00 61.26 61.11 61.06 59.98 59.88 59.38
50.93 51.63 52.08 53.50 54.13 53.47 55.98 59.08 64.47 64.10 63.20 63.11 62.91 62.56 61.77 60.09 59.64 60.00 59.25 59.97 60.33 60.76 61.68 61.39 61.63 61.66 61.21 61.03 60.76 60.46 59.91 59.03
48.01 49.01 50.53 51.27 55.98 55.55 57.07 60.96 63.20 63.31 63.07 62.45 62.57 63.03 62.95 62.25 60.36 60.37 59.84 60.01 59.96 60.17 60.75 61.32 61.42 61.32 61.08 61.07 60.74 60.63 60.02 59.39
45.23 46.25 47.74 48.10 55.71 56.98 56.77 57.99 60.13 61.88 61.46 61.70 62.14 62.98 62.24 60.80 60.84 60.52 59.03 57.79 59.05 60.21 60.92 60.62 60.69 60.58 60.51 60.53 60.28 59.84 59.77 59.54
42.72 43.50 45.37 46.06 48.23 55.08 56.70 58.00 58.24 60.24 60.89 61.61 61.46 60.65 60.86 60.52 59.81 58.04 56.61 56.59 57.84 57.89 59.35 59.93 60.11 60.16 59.96 60.03 59.67 60.06 59.56 59.20
40.19 40.93 43.06 43.85 45.32 46.67 51.29 56.91 57.33 58.02 60.74 60.11 59.68 59.57 60.19 59.76 58.67 57.30 56.98 57.07 56.79 56.75 57.11 57.93 59.01 59.41 59.59 59.35 59.39 59.34 58.65 58.59
38.14 38.36 39.22 40.35 40.82 42.06 44.26 49.06 57.62 58.42 59.04 59.42 58.82 59.46 59.62 59.28 58.26 56.59 57.35 56.61 56.83 56.65 56.81 57.13 57.45 58.57 59.05 58.97 58.39 58.54 58.08 57.91
35.70 35.87 36.44 36.96 38.37 39.62 40.89 43.35 46.94 58.15 58.54 58.45 58.39 58.62 59.15 58.37 58.08 57.27 57.03 56.73 56.59 56.77 56.37 55.70 55.20 56.63 58.49 58.60 58.73 58.26 58.05 57.89
33.40 33.04 34.01 34.86 36.49 37.59 38.93 40.49 43.22 49.07 57.98 57.84 57.75 57.85 58.19 58.46 57.95 57.04 56.88 56.74 56.23 56.11 55.87 55.37 55.21 54.50 55.70 57.25 57.07 57.29 57.01 56.91
31.48 31.23 31.89 32.92 33.93 35.28 37.57 38.63 40.75 44.22 56.52 57.46 57.55 57.76 58.07 57.90 57.92 57.20 57.06 56.43 56.11 56.30 55.69 55.07 54.70 54.41 52.30 54.52 55.03 55.51 54.99 54.24
29.56 30.16 31.20 31.31 32.30 33.72 35.63 36.45 38.08 40.91 45.26 51.99 56.03 56.95 58.17 57.84 58.08 57.66 57.49 56.55 56.17 55.95 55.71 55.17 47.08 43.02 38.09 41.42 50.50 53.55 53.78 53.42
27.83 28.67 29.97 31.01 31.76 33.01 33.44 34.83 36.22 36.89 37.56 40.91 45.75 47.54 47.49 47.95 47.91 46.42 46.24 44.71 43.39 42.57 41.63 41.47 39.52 39.18 37.40 39.38 42.18 53.56 53.04 52.40
27.11 27.72 28.98 30.61 31.78 32.23 33.61 34.12 33.87 33.70 34.59 35.49 38.14 40.34 40.03 40.42 40.15 39.08 38.13 37.66 37.10 36.87 36.74 37.15 37.10 36.94 38.05 38.79 38.71 39.86 36.92 36.09

GFSFLT1_sfc_wetblb_102.txt.gz
Wetbulb
49.18 50.26 51.68 51.98 53.02 53.21 64.12 67.10 67.55 68.04 68.08 67.68 65.65 65.64 65.53 65.99 65.96 66.35 65.20 65.50 64.85 64.35 63.49 63.40 63.45 62.95 62.77 62.54 61.70 61.67 60.31 60.33
47.47 48.35 49.48 50.29 51.16 52.02 58.90 65.31 66.80 67.71 66.89 66.04 64.86 64.84 65.44 64.78 65.19 65.58 65.54 64.62 64.24 63.74 63.21 63.24 63.88 63.13 62.53 62.51 61.83 60.97 60.63 61.21
44.48 45.42 46.21 47.92 50.38 51.38 55.91 64.56 66.41 67.46 67.08 66.67 65.80 66.01 64.75 65.07 65.09 65.44 66.62 65.79 65.01 64.30 63.53 63.41 63.52 62.76 62.30 61.81 61.00 60.49 60.57 61.31
44.07 45.06 44.75 44.49 46.81 49.32 55.31 63.09 66.21 67.20 67.28 66.61 63.88 64.10 62.85 62.26 64.17 64.83 65.08 65.50 65.12 64.52 64.04 63.77 63.41 63.07 61.67 61.46 60.87 60.46 58.87 60.18
47.17 51.17 51.49 51.62 49.91 48.14 54.74 62.09 66.04 66.76 66.90 65.44 64.14 63.73 62.74 63.82 63.90 64.56 64.53 64.50 64.70 64.17 63.70 63.25 63.05 62.96 62.03 61.73 61.84 60.82 60.00 58.11
50.71 50.77 51.94 53.03 53.58 53.55 61.02 63.97 65.88 66.64 66.01 65.36 64.15 63.19 63.38 61.91 62.52 63.31 63.34 63.75 63.77 63.24 63.53 62.87 62.77 62.91 62.30 61.92 61.42 60.58 60.25 59.00
48.65 50.30 50.85 51.23 54.36 56.56 57.67 65.46 65.75 65.79 65.46 64.80 63.78 62.53 61.52 61.41 62.16 62.03 62.24 62.80 63.11 62.97 62.80 62.73 62.63 62.52 61.93 61.82 61.43 60.70 60.24 59.12
45.01 45.90 47.07 48.10 49.27 55.05 53.34 64.94 64.97 65.17 64.49 63.89 62.98 62.16 61.37 61.34 61.17 61.08 61.41 61.33 61.48 61.98 62.06 61.85 61.97 61.99 61.72 61.60 61.21 60.63 60.28 59.28
42.47 44.39 45.27 45.86 46.94 48.58 55.73 60.36 64.15 63.81 62.87 62.55 62.57 62.25 61.64 61.36 60.91 60.08 60.53 60.58 60.11 61.22 61.71 61.85 61.75 61.85 61.76 61.46 60.95 60.69 60.44 60.03
39.54 41.51 42.44 43.33 44.03 45.46 48.09 56.69 59.01 62.02 61.56 61.82 60.98 61.15 61.15 60.97 60.03 60.64 60.63 60.15 59.75 60.47 60.62 60.35 61.23 61.45 61.35 60.97 60.51 60.24 60.04 59.90
37.48 39.37 39.40 41.13 42.12 43.57 46.00 48.26 52.78 58.41 60.12 61.20 61.63 61.16 60.17 59.79 60.03 60.12 59.47 58.71 59.03 58.92 59.45 60.15 60.49 60.45 60.76 60.63 60.13 60.37 59.91 59.61
34.52 35.98 37.53 38.67 40.17 40.65 42.62 44.92 47.29 51.45 57.97 58.40 59.30 58.98 59.37 58.94 59.25 58.44 57.64 56.82 56.30 57.35 58.49 58.77 59.41 59.69 59.88 59.73 59.77 59.88 59.34 59.15
32.29 33.93 35.16 35.67 36.77 38.21 40.75 42.88 42.80 46.30 54.79 57.28 58.54 59.61 59.45 58.53 57.96 57.64 57.06 55.38 55.90 56.76 55.42 56.72 57.10 57.81 59.35 58.99 58.79 59.07 59.02 58.52
30.72 31.43 32.58 33.58 34.87 35.98 37.48 40.08 41.02 43.90 47.68 57.28 58.40 58.68 58.55 58.10 57.64 57.20 56.26 56.48 56.38 56.16 56.40 56.30 56.26 56.36 57.66 58.62 58.84 58.41 58.58 58.56
29.54 30.06 31.01 32.26 33.52 34.48 35.76 37.66 39.81 42.18 46.58 57.66 57.56 57.92 58.18 58.14 57.80 56.72 56.04 55.98 56.28 56.24 56.26 55.80 55.14 54.78 55.78 58.01 58.11 58.08 58.32 58.16
28.36 28.76 29.74 30.71 31.96 33.06 34.73 36.04 38.04 40.57 41.75 44.75 51.11 57.88 58.31 58.02 57.04 56.70 56.60 56.68 56.30 56.12 55.63 55.16 54.66 51.37 47.12 49.59 57.85 57.75 57.49 57.39
27.29 27.81 28.93 29.84 30.79 31.47 33.52 34.41 35.71 37.49 38.04 38.53 41.61 47.35 56.72 56.68 57.06 56.98 55.44 52.31 53.61 53.26 53.25 51.76 46.96 44.37 37.52 39.42 49.85 55.50 56.12 55.82
25.53 26.85 27.90 29.59 30.15 30.53 30.90 32.90 34.86 34.86 34.77 35.61 36.82 39.33 42.73 44.23 45.27 43.81 42.93 42.21 41.54 40.52 40.66 41.05 39.91 39.34 37.53 39.95 42.24 50.73 46.74 48.53
24.92 25.98 27.18 29.72 30.23 29.86 30.24 30.26 31.52 32.45 32.84 33.00 34.46 35.54 36.10 37.21 37.62 36.68 36.17 36.12 35.62 35.62 35.59 36.18 36.66 36.91 36.49 37.78 37.66 39.57 37.59 37.01

GFSFLT1_sfc_wetblb_105.txt.gz
Wetbulb
46.61 47.58 47.75 48.04 49.16 49.72 53.38 65.42 67.48 67.64 67.48 66.40 65.95 65.52 65.95 66.00 66.13 66.18 65.82 66.22 64.88 64.18 63.01 63.11 63.07 62.68 62.59 62.31 61.18 61.35 60.69 60.54
45.35 46.05 45.83 45.76 47.05 48.22 52.04 61.06 66.63 67.16 66.79 65.88 65.30 64.96 65.46 65.31 65.80 66.07 65.32 65.71 64.70 64.20 63.73 63.45 63.34 62.19 62.31 62.53 61.70 60.56 59.96 60.46
43.46 44.06 43.66 43.75 44.84 47.11 50.22 59.64 65.05 66.67 67.00 66.81 66.22 65.70 65.44 65.47 65.64 65.57 65.69 64.99 64.56 64.55 63.96 63.22 63.34 62.53 61.96 62.18 61.51 60.59 60.46 60.62
42.21 42.93 42.11 43.85 43.80 43.32 48.55 57.47 63.00 66.17 67.04 66.63 63.28 62.81 63.29 63.73 64.11 65.04 65.48 65.08 64.50 64.21 64.12 63.82 63.52 63.39 62.25 62.18 61.69 60.56 59.26 60.59
47.64 49.90 50.50 50.39 51.50 52.06 48.38 53.48 62.16 65.28 66.57 65.71 64.02 63.61 62.98 64.04 64.41 64.90 65.62 65.44 64.84 64.62 63.83 63.67 63.55 63.41 62.44 62.10 62.26 61.25 60.27 58.52
45.68 47.08 48.72 49.32 51.08 53.66 54.12 50.93 60.26 64.22 66.04 65.72 64.45 63.42 63.64 62.77 63.81 63.58 64.43 64.54 64.32 64.48 63.91 63.53 63.27 63.23 62.52 61.93 61.62 61.05 60.96 59.73
44.44 46.08 47.49 47.80 48.40 49.53 54.33 58.62 61.32 64.54 65.74 65.35 64.14 63.41 62.53 62.44 62.92 63.04 63.25 63.34 63.79 63.79 63.69 63.56 63.24 62.99 62.31 62.09 62.02 61.35 60.75 60.38
41.43 42.66 43.25 45.02 44.95 46.58 50.15 58.41 63.03 64.50 65.34 65.10 64.59 63.61 62.29 61.98 62.43 62.95 62.56 62.35 62.25 62.75 63.09 62.59 62.48 62.86 62.48 62.21 61.77 61.39 60.75 59.99
38.53 40.43 41.41 41.94 43.00 43.98 46.01 49.09 53.13 65.01 64.98 64.65 64.50 62.62 61.82 61.98 61.92 62.75 61.76 61.75 62.55 62.64 62.62 62.61 62.66 62.32 62.12 62.16 61.79 61.51 61.08 60.47
34.48 36.85 39.21 40.26 41.06 41.54 43.74 45.96 48.76 52.21 63.70 63.94 63.28 61.57 60.39 60.69 60.75 60.98 61.34 60.66 59.76 61.02 62.01 61.84 61.64 61.60 61.70 61.40 60.90 60.26 60.62 60.29
32.68 34.23 36.10 38.09 39.71 40.90 41.80 44.68 45.64 48.61 56.87 62.38 61.35 60.52 60.47 59.64 59.42 58.64 58.76 58.72 59.40 59.38 59.50 59.95 60.27 60.80 61.01 60.90 60.58 60.17 59.83 59.97
31.13 32.45 34.31 35.52 38.07 38.76 40.42 41.81 43.74 45.71 48.71 56.14 59.93 59.41 58.82 59.02 58.86 58.06 58.78 59.02 58.74 58.91 58.95 58.83 59.09 59.80 60.22 60.20 60.28 60.01 59.43 59.39
30.67 31.25 32.40 33.87 34.57 36.09 37.89 40.42 42.13 43.88 46.49 50.78 58.58 58.60 58.88 58.56 57.92 58.08 57.78 57.50 57.42 58.02 57.56 57.66 57.82 58.00 59.12 59.26 59.16 59.42 59.05 58.75
29.14 29.79 30.40 31.34 32.72 34.33 35.60 37.26 40.39 42.79 45.28 50.38 57.78 58.08 57.70 57.44 57.50 57.20 56.81 56.56 56.12 55.57 56.19 55.89 55.87 56.11 56.01 56.59 57.36 58.52 58.69 58.59
27.69 28.03 29.30 30.45 31.57 32.60 33.71 35.40 37.30 39.96 42.01 43.00 46.29 54.25 57.76 57.20 57.36 56.85 56.66 56.61 54.85 55.27 56.07 55.93 55.67 54.91 55.01 55.03 56.13 57.20 57.59 58.52
26.15 26.61 28.32 29.37 29.82 30.64 31.59 33.39 35.49 37.60 39.49 38.85 40.70 46.34 56.68 57.56 56.58 56.26 55.97 55.69 56.38 56.26 55.85 55.39 54.35 51.25 45.85 43.25 48.12 56.31 57.58 57.50
25.04 26.14 27.31 28.71 29.09 29.16 29.95 30.63 33.02 34.79 35.00 36.04 38.04 39.51 41.47 43.78 51.47 55.09 52.39 49.60 49.11 48.34 47.00 47.79 45.32 44.30 37.22 38.27 42.21 53.04 55.83 57.16
24.38 25.34 26.47 28.43 28.95 28.88 27.98 29.02 30.48 31.46 32.21 33.74 35.06 35.81 35.83 36.48 38.41 39.78 40.61 40.91 40.23 39.29 39.53 40.17 38.88 37.27 36.71 38.84 40.42 46.20 45.07 43.14
24.21 25.20 26.23 28.17 28.50 28.12 28.22 28.28 28.38 28.70 28.78 30.16 32.78 33.80 33.18 33.47 33.15 33.25 34.23 35.22 35.25 35.24 35.24 35.97 35.93 35.62 35.75 36.99 37.24 39.53 37.67 37.19

GFSFLT1_sfc_wetblb_108.txt.gz
Wetbulb
44.83 45.33 44.59 45.91 47.26 46.86 47.91 56.41 65.50 66.01 66.25 65.67 65.60 65.17 65.13 65.47 65.65 65.48 65.89 66.30 66.01 65.80 64.48 64.16 63.78 62.93 62.09 61.46 60.59 61.48 61.08 60.89
43.06 42.83 42.95 43.32 43.74 45.22 46.76 48.04 57.51 65.74 65.94 65.33 65.18 63.98 64.95 65.02 65.41 65.61 65.94 66.14 65.63 65.31 64.27 63.55 63.09 62.38 62.14 61.78 61.64 60.46 59.70 60.79
48.25 47.56 42.23 40.83 42.35 43.16 45.02 46.84 49.46 64.07 64.95 66.05 65.81 65.63 65.65 65.90 65.76 65.60 65.51 65.70 65.39 64.98 64.21 63.41 62.81 62.47 62.36 62.17 61.54 60.30 60.29 60.28
45.69 46.92 47.94 49.33 49.15 49.73 48.30 45.84 50.47 61.36 64.76 66.20 65.31 65.29 64.66 64.14 64.23 64.83 65.24 65.38 65.07 64.96 64.62 63.87 63.23 62.79 62.18 62.34 62.04 60.90 59.36 60.00
44.39 44.81 45.88 47.14 47.51 48.55 50.26 53.16 49.59 60.95 65.00 65.36 64.43 63.38 62.47 63.58 64.17 64.65 64.98 65.09 65.07 65.16 64.76 64.03 63.40 63.44 62.64 62.30 62.58 61.61 60.31 58.83
41.96 43.01 43.76 45.43 46.81 46.02 47.29 49.90 53.22 56.66 64.26 64.88 64.70 63.53 63.39 63.55 64.52 63.99 64.32 64.62 64.97 64.76 64.58 64.27 63.66 63.45 63.14 62.63 62.09 61.69 61.01 60.10
39.54 41.02 42.17 42.41 43.75 44.75 45.41 50.23 55.02 54.76 63.40 64.72 64.36 63.31 62.48 62.03 63.49 63.36 63.28 64.34 64.29 64.47 64.10 63.94 63.89 63.46 63.21 62.65 62.18 61.78 61.16 60.76
36.80 36.33 37.81 39.91 41.29 42.25 44.26 46.94 51.51 59.10 62.40 64.38 64.12 63.18 62.46 62.15 62.79 63.13 62.73 62.66 63.35 63.53 63.50 63.46 63.29 63.40 63.09 62.71 61.93 61.71 61.17 60.69
34.02 34.80 36.24 37.43 39.54 41.05 41.80 44.66 47.04 50.79 61.76 64.32 64.65 63.15 61.95 62.11 62.67 62.98 62.88 62.11 63.02 63.08 62.99 63.00 63.22 63.27 62.97 62.52 62.11 61.73 61.64 61.07
32.45 33.38 34.62 35.73 37.89 39.77 41.97 42.53 44.90 47.88 51.12 62.65 63.86 63.40 62.20 61.48 61.96 62.26 62.98 62.07 61.23 61.31 62.39 62.42 62.81 62.49 62.21 61.82 61.78 61.18 61.20 61.19
31.00 31.77 32.83 34.17 35.91 38.26 41.35 41.90 43.04 45.63 48.69 52.46 62.41 61.64 61.09 60.34 60.30 60.71 61.08 61.02 60.48 61.34 61.10 61.43 61.47 61.59 61.37 61.21 60.98 61.20 60.55 60.60
29.65 30.79 32.17 32.42 34.66 36.26 37.64 40.35 40.98 43.49 45.88 49.73 58.10 60.61 60.32 60.38 60.24 60.10 60.00 59.18 59.12 59.66 60.12 59.96 59.56 59.98 60.09 60.09 60.44 60.23 59.68 59.74
28.87 29.83 30.89 31.15 32.42 34.35 34.95 38.72 40.38 41.53 44.95 49.72 58.32 59.22 59.66 59.30 58.94 58.74 58.56 58.24 58.46 58.08 58.42 58.05 58.26 58.32 58.78 59.28 59.26 59.76 59.21 58.91
27.11 27.74 28.69 29.65 30.19 31.69 32.89 34.41 36.76 40.81 42.82 44.86 48.05 51.55 58.34 57.98 57.92 57.86 57.88 57.88 57.74 57.42 57.37 57.21 57.03 56.79 56.47 56.53 56.53 56.81 57.71 58.67
25.97 26.15 27.37 29.10 29.69 29.97 31.72 31.86 34.53 37.08 39.04 41.10 41.78 43.35 50.85 57.33 57.39 57.17 57.11 57.09 56.29 55.97 55.95 55.59 55.61 55.11 55.01 53.20 52.39 53.21 55.27 56.87
24.78 25.08 26.36 27.85 28.06 28.50 29.18 30.32 31.99 34.39 36.53 36.14 37.77 39.48 41.69 45.33 52.28 55.79 55.91 55.73 55.87 55.95 55.93 55.33 53.25 49.44 43.19 43.13 47.09 49.09 52.10 54.35
24.07 24.71 25.83 27.13 26.72 27.27 27.92 28.89 30.21 31.74 33.27 34.83 35.86 36.50 36.36 37.52 38.24 39.91 41.05 41.77 43.02 44.94 45.43 45.64 42.84 42.34 36.82 38.14 39.77 50.67 49.89 47.75
23.03 23.85 25.45 26.80 27.12 26.93 26.25 27.16 29.35 29.64 29.82 31.19 32.98 33.81 32.90 33.85 34.32 34.39 34.75 34.77 35.90 35.98 37.05 38.37 37.42 36.48 36.22 38.00 37.75 44.39 42.95 41.73
22.48 23.69 24.54 26.21 28.03 26.92 26.89 26.47 26.73 27.48 28.02 28.80 29.90 31.55 31.79 32.31 32.33 31.76 32.08 32.50 32.31 32.61 32.91 34.07 34.67 34.96 35.45 36.40 36.51 38.74 37.38 36.19

GFSFLT1_sfc_wetblb_111.txt.gz
Wetbulb
47.52 48.28 49.12 49.55 50.79 52.61 53.83 55.50 59.33 66.76 68.31 68.75 68.22 67.85 68.21 68.45 68.06 67.53 67.84 67.84 66.99 67.51 67.28 66.15 66.00 65.05 64.45 63.98 64.35 64.84 65.45 65.35
47.52 51.26 52.97 51.44 50.22 49.86 50.97 52.65 55.76 62.03 65.48 65.56 64.95 64.03 65.40 66.91 66.91 67.28 67.16 67.13 66.69 66.81 67.16 65.28 65.44 64.54 64.06 63.26 63.54 62.89 62.64 63.53
49.68 50.28 50.55 51.31 52.41 53.57 54.63 54.58 52.19 54.60 63.56 66.40 66.50 65.66 65.58 66.76 66.24 66.29 66.58 66.65 66.47 65.91 65.99 64.88 64.82 64.52 63.61 63.01 62.70 61.77 62.30 62.69
46.26 47.15 47.94 48.40 49.70 50.56 51.34 53.24 55.34 56.38 56.13 64.49 67.20 67.41 67.26 65.01 64.99 65.49 65.33 66.13 66.20 65.73 65.66 65.18 64.53 64.40 63.29 63.29 63.02 62.29 60.60 61.31
41.68 43.13 44.03 45.70 47.43 48.62 49.70 50.77 52.12 55.13 57.70 59.66 65.25 64.29 63.00 64.10 65.11 65.86 65.51 65.75 65.91 65.76 65.06 64.91 64.31 64.13 64.12 63.61 63.59 63.10 62.79 59.83
37.00 38.15 39.49 41.34 43.30 44.24 45.66 48.08 51.00 54.68 57.40 59.77 65.34 65.32 65.75 66.21 66.63 66.48 65.53 65.20 65.53 65.16 65.15 64.62 64.04 64.44 64.66 63.56 63.30 63.20 63.53 61.94
34.98 36.95 37.43 38.43 40.33 41.24 42.93 44.83 47.70 53.09 58.08 58.83 64.76 65.69 65.15 65.49 65.87 64.66 64.62 65.06 64.52 64.88 64.78 64.42 64.38 64.00 64.24 63.43 63.81 63.56 62.50 62.33
32.96 33.46 34.73 36.21 37.65 38.71 40.83 43.22 44.39 48.40 53.23 58.28 64.53 66.02 66.39 65.99 65.65 65.44 64.34 63.78 63.59 63.90 64.57 63.91 63.93 63.89 64.20 64.31 63.61 63.17 62.84 61.98
31.60 32.53 33.60 34.02 35.76 37.97 38.72 42.22 42.84 46.15 49.64 55.70 63.88 64.05 64.24 65.74 66.19 65.86 65.35 64.84 64.07 64.40 64.26 64.28 64.17 64.05 63.93 64.15 63.72 63.08 63.02 62.31
30.56 31.59 32.44 33.39 34.08 35.06 38.31 40.50 42.39 44.59 47.11 50.65 61.58 63.98 64.00 64.68 65.81 66.51 66.42 66.04 64.56 64.49 64.51 63.45 63.67 63.52 63.14 63.71 63.70 62.40 62.44 62.31
29.81 30.13 31.28 32.83 33.73 34.38 36.96 39.33 41.29 43.25 45.32 49.02 53.07 64.31 63.58 63.87 65.06 65.26 65.48 65.52 64.16 63.73 63.57 63.31 63.20 62.63 63.25 62.70 62.67 62.59 61.89 61.91
28.51 29.44 30.61 31.88 32.65 33.15 34.29 35.43 38.59 41.84 43.38 46.52 52.74 61.71 62.57 63.24 62.99 64.93 64.93 63.89 62.60 62.73 63.30 64.07 62.87 61.56 62.29 62.06 62.05 61.59 61.00 61.19
28.64 28.44 29.39 30.14 30.33 31.09 32.25 33.29 35.10 38.86 42.89 45.38 47.66 51.65 60.81 60.76 60.82 60.85 61.42 60.80 62.42 62.54 62.20 61.28 60.60 60.98 61.25 60.66 59.88 60.38 60.42 60.68
26.87 27.27 27.55 28.28 28.66 29.55 30.27 31.82 33.22 36.03 40.48 42.82 43.97 45.35 50.08 58.98 58.74 58.74 59.30 59.38 59.38 59.65 60.31 60.28 59.63 59.20 58.82 58.70 59.22 58.58 58.87 58.94
25.47 25.40 26.53 27.73 27.60 28.04 28.57 30.15 32.18 33.82 37.42 38.44 40.57 40.57 43.54 47.20 55.63 56.73 57.41 57.91 57.57 57.77 58.03 57.13 56.81 55.33 52.70 53.03 54.13 54.80 55.26 56.24
24.33 24.67 25.62 26.76 26.93 27.04 27.60 28.66 30.56 32.10 33.81 34.73 36.76 38.74 38.81 41.02 41.82 43.88 45.61 44.43 44.75 45.97 49.99 47.94 46.79 42.55 39.55 41.26 46.98 51.00 53.17 54.43
23.62 24.40 24.98 25.63 26.90 26.52 26.52 27.29 28.67 30.44 30.98 32.35 34.10 36.36 36.27 35.55 36.80 37.60 39.03 38.45 38.21 37.97 38.24 38.21 37.38 37.75 35.94 37.21 39.14 47.09 51.72 50.54
22.76 23.78 24.89 25.67 26.70 27.29 26.03 26.63 27.81 28.23 28.75 29.59 31.54 32.64 33.70 32.43 34.23 34.30 33.25 33.67 34.32 33.55 34.35 34.82 33.98 33.90 35.40 36.32 36.78 44.04 42.65 41.03
22.38 23.20 23.98 25.74 27.05 27.85 27.41 27.15 26.10 26.75 27.06 28.13 29.23 30.26 30.72 31.74 32.13 31.64 31.76 31.76 31.52 31.19 31.34 31.92 31.56 32.11 34.07 35.07 35.99 37.59 36.13 35.25

GFSFLT1_sfc_wetblb_114.txt.gz
Wetbulb
50.12 51.71 53.35 55.83 57.13 58.18 57.86 57.22 57.74 59.82 65.81 69.03 69.17 69.95 70.66 70.61 70.35 70.75 71.49 71.77 71.72 71.52 70.46 70.41 69.26 67.46 67.66 68.84 68.49 68.46 68.29 67.09
53.55 54.55 55.47 55.76 56.57 56.75 57.87 58.63 59.93 57.48 57.84 63.44 65.06 66.83 68.27 69.71 70.46 70.69 70.98 71.83 71.56 70.64 69.79 69.53 67.68 66.71 66.98 67.93 67.52 66.99 67.19 68.01
49.56 50.47 51.85 52.62 53.10 54.49 55.31 55.89 57.18 58.66 58.83 58.24 64.93 66.44 67.36 68.10 70.25 71.04 71.06 70.49 70.65 70.59 69.77 68.50 67.21 66.48 66.04 66.48 66.06 64.47 64.93 66.20
45.99 46.91 48.13 49.03 49.72 51.13 51.81 53.38 54.83 55.99 57.80 60.23 58.97 65.38 66.82 66.70 68.31 69.45 70.38 69.89 70.13 70.56 69.43 67.84 66.64 66.80 64.88 65.22 65.90 64.67 62.50 63.85
43.93 43.86 44.70 45.34 46.18 48.06 49.46 50.95 52.05 53.89 56.10 57.59 58.83 59.68 62.58 65.74 66.50 67.87 68.90 70.35 69.35 69.30 68.76 67.91 66.78 66.49 65.26 65.06 65.74 65.88 64.58 61.48
41.89 42.14 42.24 44.11 45.60 45.30 45.94 47.88 48.96 51.58 54.30 56.11 58.33 58.49 64.73 65.73 67.40 67.17 67.80 67.95 67.45 67.65 67.73 67.81 66.56 66.75 65.44 64.98 65.04 65.31 65.17 63.77
41.27 42.06 41.92 42.61 43.98 43.85 43.58 44.37 45.87 47.21 49.14 53.19 56.53 59.86 61.56 64.51 65.61 66.39 67.35 67.15 65.86 66.09 66.26 66.58 66.74 66.16 65.35 64.86 65.13 65.57 65.08 64.64
38.07 38.13 38.44 39.16 39.08 39.40 39.50 39.76 40.52 42.56 45.68 48.81 52.92 58.20 61.45 65.37 65.39 66.93 66.65 65.02 64.47 65.00 65.42 65.29 65.44 65.80 65.70 64.82 64.38 64.93 64.75 63.67
34.82 35.24 36.43 36.59 36.90 37.43 38.17 37.22 37.56 40.10 43.57 46.48 50.13 56.56 62.40 65.40 66.53 66.43 67.07 65.51 65.21 65.28 65.61 65.42 65.50 65.74 65.50 65.46 64.60 64.19 64.42 64.55
33.33 33.68 34.65 35.55 33.28 34.80 34.83 34.82 36.23 38.72 42.02 45.71 48.89 55.91 63.15 65.78 66.77 67.79 67.16 66.66 65.20 65.40 65.35 64.64 64.91 65.11 64.95 64.73 63.73 63.59 63.91 64.12
31.61 31.40 32.03 33.96 32.55 33.08 34.43 33.70 34.92 37.31 40.76 45.28 47.74 53.82 59.43 66.13 65.39 65.15 65.59 67.29 67.14 66.60 65.48 65.37 64.20 64.33 64.44 64.16 63.63 63.64 63.41 63.74
30.79 30.76 31.30 32.70 32.39 31.35 31.59 32.31 33.57 36.21 40.73 45.10 47.58 52.36 63.72 65.99 64.74 64.77 66.51 66.87 66.39 65.39 66.10 64.45 63.34 63.34 63.53 63.32 63.47 62.99 62.32 63.17
30.11 29.79 29.66 30.55 30.28 30.19 30.19 31.01 32.73 35.52 39.43 43.05 44.52 46.72 51.23 63.16 63.52 64.66 65.51 64.70 65.22 64.51 64.27 62.85 62.17 62.39 63.03 62.59 61.68 61.64 62.11 61.71
29.08 28.49 27.43 27.88 28.83 29.13 28.52 30.16 31.83 34.57 37.38 40.88 42.85 42.69 44.82 47.72 57.53 60.40 60.81 60.74 61.06 61.16 61.49 61.43 61.87 61.48 61.62 61.14 60.78 61.35 61.28 60.94
28.36 27.43 26.62 27.45 28.78 28.21 27.33 28.88 31.11 33.06 35.73 35.94 38.73 39.65 41.31 42.96 45.23 47.00 48.24 52.14 55.93 53.80 51.71 46.59 45.30 43.95 44.93 48.94 54.22 56.39 57.34 57.86
26.55 26.35 26.63 27.52 28.09 27.84 27.80 28.14 29.60 31.00 32.53 33.44 35.38 37.73 37.56 38.81 39.46 41.06 42.52 42.69 43.57 43.71 41.02 40.01 40.23 38.77 38.11 41.40 47.91 53.00 54.12 56.05
25.90 26.30 26.50 27.47 28.33 28.50 27.77 27.91 28.48 30.05 30.21 30.96 32.56 34.05 34.80 35.36 35.17 36.82 35.98 37.29 36.56 36.69 35.96 36.35 36.67 37.28 36.82 37.49 42.26 49.94 48.63 46.75
24.53 26.30 26.34 27.90 28.81 29.93 29.29 29.50 29.41 28.29 28.68 29.33 30.46 31.39 31.78 32.46 33.37 32.58 32.28 32.64 33.94 33.52 33.60 33.78 33.60 34.54 35.70 37.10 38.15 40.44 38.89 37.72
24.58 26.01 26.58 27.14 29.08 29.47 31.19 30.96 29.84 28.27 27.68 28.97 30.01 30.49 30.37 31.27 31.31 31.11 31.41 31.35 30.65 31.34 31.37 31.46 31.61 32.47 33.61 35.03 35.17 35.55 34.61 33.81

GFSFLT1_sfc_wetblb_117.txt.gz
Wetbulb
54.58 55.95 57.06 57.56 58.21 58.64 58.86 59.59 61.11 61.63 60.34 63.48 67.40 69.41 70.75 71.46 71.43 70.96 71.48 72.89 72.52 71.96 71.17 71.21 71.03 70.97 70.91 71.03 69.63 69.18 68.27 67.97
53.48 53.69 54.38 55.10 55.89 55.92 56.47 57.40 58.96 59.77 60.63 58.24 61.29 66.73 68.78 70.49 70.70 71.81 70.99 72.15 73.06 72.14 71.75 71.69 70.98 69.23 68.98 70.07 69.80 68.85 67.56 68.77
50.47 51.30 51.92 52.45 52.75 53.56 54.27 54.63 55.84 57.11 58.40 59.93 60.08 61.89 66.53 69.61 70.66 71.10 72.17 72.49 72.73 72.51 72.24 71.64 71.33 69.07 67.27 67.79 67.99 67.88 69.01 69.55
48.35 48.54 49.12 49.91 49.95 51.03 51.08 52.28 53.34 54.98 56.21 57.36 58.64 61.43 61.07 66.72 68.54 69.27 70.66 71.87 72.35 72.49 72.32 72.01 71.37 69.98 68.39 66.86 66.68 66.16 64.76 67.93
46.70 46.80 46.99 47.61 48.08 49.99 50.50 50.37 50.64 52.23 54.28 54.55 56.08 56.75 58.02 62.91 67.65 68.68 68.98 71.19 71.60 72.39 72.49 72.02 71.40 69.86 68.20 66.69 66.70 66.02 64.97 63.02
44.09 44.12 44.51 45.47 46.72 47.03 47.45 47.78 48.32 50.13 51.54 52.11 53.25 55.37 58.08 60.92 62.29 67.86 68.36 69.90 70.54 71.59 71.82 71.32 70.58 69.41 68.62 67.73 66.18 65.60 65.45 64.05
42.55 42.81 42.38 42.32 44.05 44.17 44.11 44.77 46.12 47.65 48.45 49.05 49.66 51.86 55.27 57.93 61.01 63.72 65.99 67.76 68.94 70.70 70.36 70.21 69.23 68.38 68.23 68.17 66.88 65.59 65.37 64.48
39.77 38.96 38.29 38.54 39.15 40.36 40.01 40.63 41.37 43.75 45.10 46.03 46.55 48.29 51.82 55.32 57.99 61.32 65.49 66.19 67.17 68.50 68.60 67.49 68.33 68.14 67.66 67.90 65.60 65.24 65.28 64.38
36.08 35.62 35.63 35.52 35.79 36.61 36.60 36.69 37.88 40.24 41.17 42.19 43.66 45.56 48.56 53.44 57.76 61.25 61.67 66.88 67.95 68.80 68.38 66.70 66.41 68.27 67.00 66.48 65.52 65.22 65.11 64.76
33.94 34.25 33.69 33.08 33.68 33.98 34.71 33.93 35.57 37.09 37.44 39.15 40.35 43.94 47.01 50.60 57.33 62.81 64.33 66.61 68.47 68.49 68.19 65.52 65.43 65.66 66.22 65.39 64.52 64.12 64.91 65.05
32.35 31.96 31.96 32.50 32.74 33.33 34.38 32.52 33.31 34.12 36.26 38.15 40.67 43.48 47.44 50.80 58.27 63.01 65.56 66.96 68.38 67.19 67.01 65.22 64.65 65.00 64.94 64.83 64.27 64.23 63.69 64.27
32.53 32.12 31.30 31.33 32.39 31.82 31.83 31.39 32.02 33.94 35.37 37.98 40.14 45.18 47.57 51.68 59.44 64.36 66.48 66.75 66.31 66.32 66.45 64.69 64.25 64.07 64.34 63.98 63.54 63.38 63.00 63.48
32.96 32.10 31.11 31.18 30.91 31.31 30.59 30.87 31.04 32.93 34.39 37.30 41.82 42.97 45.44 48.07 55.63 63.48 65.88 65.31 65.68 66.04 66.30 65.48 64.85 63.51 63.34 63.03 62.66 62.81 62.58 61.61
31.01 31.23 30.93 30.77 30.96 30.83 29.98 30.38 30.23 31.86 34.30 35.97 39.29 39.69 41.29 41.31 44.18 47.55 50.04 60.72 61.27 57.94 60.03 56.71 58.15 60.18 61.66 61.83 62.07 61.85 62.43 62.16
29.53 29.17 30.16 31.47 31.22 30.91 30.66 29.75 30.41 31.35 33.29 34.09 36.14 36.92 37.62 38.98 40.04 40.58 43.26 44.68 44.12 44.38 43.00 43.03 42.12 41.95 44.82 50.23 58.92 59.82 59.40 59.38
27.99 28.59 29.32 30.54 31.35 31.75 31.94 30.58 30.24 30.90 31.29 31.76 33.29 34.80 35.96 35.82 36.64 36.49 37.75 38.68 38.62 40.72 42.32 41.33 40.13 39.93 40.44 42.29 52.16 54.84 55.42 55.48
26.88 27.91 28.21 28.75 29.75 32.20 32.92 31.36 30.74 30.86 30.72 30.84 31.64 32.72 33.05 33.70 33.37 33.67 34.68 34.45 34.05 34.76 36.08 36.58 38.27 38.57 38.92 39.79 45.29 46.54 45.11 43.32
25.40 26.86 27.58 28.12 30.32 31.62 32.27 32.50 32.05 30.51 30.34 30.80 31.20 31.44 31.11 31.25 31.82 31.86 31.10 31.25 32.27 32.23 32.20 32.58 32.35 33.48 36.25 36.63 36.79 37.65 36.59 35.03
24.72 25.96 26.71 27.78 30.27 30.04 31.84 32.28 31.29 29.78 30.02 30.13 30.90 30.93 30.76 31.45 31.34 30.95 30.49 30.61 29.96 29.97 30.49 30.53 30.24 31.47 32.77 33.39 33.66 33.03 32.11 31.47

GFSFLT1_sfc_wetblb_120.txt.gz
Wetbulb
53.03 52.73 53.36 53.56 54.13 54.97 55.06 56.01 56.96 57.91 58.82 60.31 59.63 60.18 68.50 69.39 69.53 69.19 70.02 70.40 69.66 69.30 70.20 69.09 68.81 68.62 68.44 68.35 67.74 67.64 67.46 66.45
51.71 51.91 51.77 51.44 51.81 51.91 52.64 52.86 54.18 54.96 55.42 56.11 57.51 57.60 60.96 67.73 69.10 69.54 69.34 69.40 69.78 69.17 69.22 69.09 68.57 67.41 67.85 68.42 67.51 66.55 66.27 66.57
49.28 49.77 49.93 49.65 49.64 49.97 50.14 51.34 51.95 52.36 53.06 54.46 55.20 55.81 57.49 59.42 66.71 68.98 69.40 69.17 69.45 69.59 69.00 68.54 68.39 67.11 67.00 67.95 67.80 65.92 65.96 66.53
46.13 46.49 46.96 47.16 46.79 47.18 48.12 49.25 49.82 50.45 51.09 52.03 53.50 54.95 56.28 57.10 58.66 63.20 68.45 69.15 68.81 69.93 69.37 68.42 68.37 68.05 66.72 67.23 67.10 66.44 64.45 65.67
44.87 44.16 43.86 43.96 44.50 45.52 45.88 46.21 46.42 47.95 49.21 49.24 50.31 50.80 51.71 54.92 56.76 59.90 66.17 68.39 68.83 69.25 69.52 69.32 68.71 68.77 67.50 66.99 66.82 65.87 65.42 64.17
41.98 41.74 41.71 41.86 42.14 41.67 42.24 43.06 43.12 44.01 46.04 47.44 47.14 47.87 50.30 53.35 55.34 57.07 59.60 63.54 67.31 68.48 67.89 68.62 68.82 68.26 68.10 66.82 65.88 65.27 65.81 64.40
40.19 40.14 39.80 38.77 39.11 38.72 38.88 38.94 39.87 40.75 41.93 43.57 44.28 44.86 46.03 47.61 50.50 53.15 56.20 59.88 64.04 66.66 67.11 67.74 68.51 67.88 66.62 66.88 65.71 65.27 64.92 64.82
36.71 35.86 35.21 35.29 35.31 35.81 36.52 36.29 35.99 37.58 38.50 39.95 41.38 42.17 43.40 44.71 46.62 50.07 53.25 56.17 59.88 63.64 65.88 66.59 67.70 68.04 67.12 67.12 65.61 64.96 64.93 63.94
34.39 33.83 33.78 33.30 33.49 33.73 33.95 33.86 33.95 34.92 36.35 37.49 39.03 39.95 41.19 42.88 45.06 47.93 51.46 54.98 58.36 62.40 64.22 65.21 66.87 67.18 67.36 66.92 66.43 65.67 64.89 64.25
32.74 33.11 32.59 32.21 32.08 32.51 32.86 32.95 32.73 33.45 34.25 35.84 37.02 38.63 40.06 41.76 44.24 47.08 49.68 53.12 57.62 60.27 63.47 64.07 65.55 66.53 66.74 66.40 65.60 65.03 64.61 64.06
32.60 32.30 32.21 32.63 32.87 32.84 33.22 32.78 31.99 32.35 33.64 35.38 36.55 38.89 40.87 42.33 44.29 46.07 48.35 50.99 56.31 60.43 61.85 63.33 63.01 64.70 65.10 64.71 64.70 64.25 63.76 63.34
31.92 31.86 32.35 33.13 33.35 33.06 32.53 32.23 31.66 31.79 33.00 35.54 37.29 40.52 42.64 44.73 46.64 48.95 49.31 51.71 55.21 59.88 60.17 60.10 57.75 62.81 63.31 63.73 63.89 63.43 62.93 62.96
31.64 31.54 31.18 31.72 31.73 32.35 32.41 31.83 31.02 31.72 33.44 35.35 37.08 38.71 40.06 40.69 42.68 46.04 50.87 53.71 56.86 60.68 61.38 61.32 59.66 62.79 63.28 63.43 62.94 62.79 62.57 61.94
29.79 30.30 30.09 30.40 31.13 31.96 32.08 31.63 30.94 31.69 32.52 33.79 34.98 36.14 36.70 37.03 38.11 40.39 41.99 42.94 45.19 45.68 46.02 47.92 49.22 51.67 61.28 63.12 62.93 62.28 62.20 61.84
27.99 28.72 29.18 29.88 30.93 31.91 31.84 31.48 31.38 31.69 31.94 31.97 32.53 33.50 34.63 35.43 36.94 36.08 37.09 38.82 37.91 40.86 43.20 42.76 43.91 44.44 45.67 49.07 61.69 61.51 61.61 61.07
26.78 27.74 28.14 28.94 29.86 31.29 32.49 31.38 30.95 31.62 31.30 31.26 31.62 32.72 33.49 33.71 33.69 34.78 34.66 34.20 34.02 35.69 35.98 38.23 39.38 40.73 43.03 45.78 47.05 46.79 48.67 48.24
25.69 26.45 26.76 27.75 28.80 29.77 31.44 31.03 30.47 31.51 30.30 30.45 31.45 31.72 32.13 32.40 32.13 32.10 32.82 32.47 33.01 34.30 33.69 33.63 33.81 36.59 37.89 39.74 38.99 37.40 37.39 37.56
23.87 25.30 25.67 26.58 27.93 28.29 29.22 30.03 30.06 29.53 29.93 29.76 30.66 31.01 31.11 31.39 31.92 31.41 30.86 30.86 31.53 31.52 31.81 32.44 32.78 33.39 34.13 35.43 36.79 36.24 35.70 33.96
22.80 23.94 24.49 25.55 27.47 26.57 28.50 28.90 28.28 28.46 28.39 28.88 29.32 29.97 29.62 30.73 31.23 31.09 31.09 30.84 29.64 29.45 29.27 30.14 30.15 31.06 32.41 32.10 32.24 31.22 30.32 30.22

GFSFLT1_sfc_wetblb_123.txt.gz
Wetbulb
47.91 47.43 47.54 47.32 47.43 47.86 47.91 49.33 50.22 50.74 51.29 51.71 52.91 54.07 55.62 58.25 64.74 66.84 67.59 68.57 69.26 68.66 67.93 66.45 67.34 66.33 66.38 67.03 66.06 66.74 66.04 65.29
45.78 45.49 44.61 44.35 44.46 44.74 45.50 45.90 47.23 48.26 48.41 48.22 48.34 49.05 51.59 53.24 56.19 59.33 66.82 67.49 68.30 67.89 68.15 66.69 66.63 66.47 66.71 66.04 66.18 65.56 65.14 65.46
43.54 42.80 42.11 41.74 41.89 41.95 42.39 42.76 43.39 44.19 45.72 46.75 47.65 48.36 50.36 52.30 54.57 56.49 58.21 63.39 67.51 67.92 66.73 66.90 67.66 66.37 65.42 66.02 66.04 65.16 64.89 65.44
39.88 39.93 38.64 38.89 38.35 38.40 39.30 39.49 40.22 41.35 42.59 43.42 45.13 47.15 48.03 49.02 51.18 53.42 56.13 59.38 64.76 66.97 66.88 66.73 67.09 67.02 65.20 65.94 66.52 65.41 63.69 64.52
38.05 36.90 36.31 35.91 35.82 36.58 36.99 37.54 37.50 39.34 40.09 39.40 39.34 40.57 42.69 46.01 47.70 50.43 51.85 55.06 58.28 62.96 66.89 67.06 66.42 66.99 66.53 64.78 66.95 66.52 64.76 63.08
35.38 34.93 34.53 35.11 35.12 34.55 34.95 35.38 36.47 36.78 36.76 37.43 36.98 37.67 41.84 44.03 45.27 45.97 48.09 51.19 55.23 59.13 62.76 66.06 66.79 66.26 67.19 66.00 65.08 66.16 65.29 64.13
33.58 33.87 34.05 33.03 33.07 32.91 32.82 33.34 34.01 34.95 35.50 35.53 35.34 35.57 38.20 40.22 42.01 42.29 44.39 47.32 50.89 55.25 58.66 62.43 65.43 66.60 66.06 66.82 66.44 66.21 65.54 64.20
31.43 31.57 31.39 31.04 30.90 31.33 32.19 32.98 32.67 33.38 33.21 33.43 34.20 35.83 36.99 37.93 39.25 41.31 42.34 44.44 47.46 51.17 56.32 58.78 62.98 64.50 65.93 66.57 65.47 64.93 64.40 63.39
31.14 31.13 30.24 30.45 31.19 31.26 32.13 32.27 32.36 32.62 32.52 32.58 34.04 35.31 36.41 37.58 39.12 40.53 41.95 43.51 45.58 48.78 51.68 55.62 60.28 63.13 64.25 65.20 65.09 63.48 60.88 61.38
30.27 30.14 30.18 30.50 31.09 31.44 32.40 32.66 32.09 32.50 32.68 33.49 34.45 35.82 36.75 37.52 39.08 40.74 41.89 43.61 45.62 46.99 50.03 53.18 57.30 61.15 62.67 63.27 64.09 63.46 63.12 61.92
29.22 29.30 29.61 30.61 31.42 32.51 33.85 32.48 31.66 31.89 33.15 34.27 35.72 37.05 39.03 40.44 41.44 41.60 42.74 44.24 45.94 46.46 47.70 50.20 54.63 58.94 61.54 61.73 62.34 62.98 63.03 63.20
27.87 28.33 29.85 30.49 31.96 32.24 33.10 31.99 31.54 31.66 33.25 34.22 35.62 36.82 38.73 39.28 40.39 42.15 43.43 45.95 46.46 48.30 48.90 50.44 53.81 58.04 60.07 58.91 60.56 61.51 62.25 63.01
27.47 28.10 29.11 29.51 30.62 30.96 31.64 31.50 30.90 31.81 33.19 33.84 34.45 35.19 36.33 37.58 37.34 38.84 41.03 42.39 46.94 49.77 51.23 52.08 55.04 54.14 55.32 55.32 55.70 57.51 54.31 61.35
27.81 28.05 27.43 28.09 29.76 30.07 31.56 30.83 30.32 31.51 32.38 32.77 33.10 33.58 33.82 34.50 35.77 36.23 37.18 38.07 39.15 41.07 41.95 41.93 42.63 44.12 45.74 49.50 53.55 55.73 60.70 62.02
26.76 26.45 26.62 27.58 28.93 29.03 30.52 29.65 30.49 31.07 31.21 31.70 31.79 32.30 33.28 33.18 33.98 34.13 34.60 35.25 35.23 35.11 36.18 36.78 37.02 37.66 40.15 44.61 51.91 59.33 60.01 59.85
25.24 25.07 25.27 25.99 26.48 26.97 28.66 28.70 29.40 30.07 29.61 29.60 30.35 31.62 32.98 33.10 32.60 32.45 32.72 33.17 33.48 33.68 33.12 33.47 34.91 35.10 35.66 37.74 41.15 42.71 43.38 43.93
23.62 23.91 23.71 24.05 25.08 24.68 25.99 26.73 27.76 28.44 28.14 27.45 28.91 29.78 31.28 31.75 32.11 31.45 31.04 30.50 31.11 31.37 31.54 31.72 31.45 32.41 33.96 34.36 34.33 33.76 36.04 36.75
21.99 22.31 22.65 23.23 24.18 24.61 24.12 25.52 26.68 26.06 26.04 26.68 26.00 27.79 27.98 29.43 31.07 31.08 29.42 28.63 29.12 28.55 29.64 30.46 30.47 31.30 32.76 33.15 32.74 31.21 31.54 31.77
21.29 22.18 22.47 23.02 24.54 24.27 24.63 25.65 25.31 25.33 23.51 24.83 25.00 24.42 24.88 26.76 27.90 28.31 29.70 28.39 27.09 26.97 26.94 28.28 29.54 31.27 32.77 32.46 31.98 30.80 29.56 29.73

GFSFLT1_sfc_wetblb_126.txt.gz
Wetbulb
41.94 41.30 41.64 41.08 40.68 41.39 41.43 42.33 42.06 43.23 44.59 45.72 46.84 47.53 48.46 49.78 51.68 54.71 56.71 58.16 60.90 66.17 67.35 66.34 65.96 66.71 66.33 66.73 66.15 66.26 65.57 65.11
39.98 39.32 38.86 38.05 37.81 37.76 38.28 38.25 38.98 40.03 40.55 40.14 41.53 42.61 44.94 47.26 49.16 51.38 54.60 57.84 58.68 60.14 65.91 62.99 65.55 66.26 66.31 66.22 65.84 65.25 65.27 65.30
37.34 36.77 35.87 35.39 35.18 35.37 36.19 36.27 36.69 37.40 38.79 38.96 40.05 40.75 43.00 44.68 47.32 49.36 51.65 53.23 54.63 56.67 57.89 65.02 63.61 65.68 65.55 64.88 64.91 64.58 64.94 64.73
34.02 34.13 33.44 33.73 33.17 33.12 34.41 34.53 34.90 36.41 37.05 36.61 37.27 38.25 39.41 40.83 43.44 44.92 47.62 49.31 50.02 52.50 54.43 57.90 63.85 62.06 61.29 64.80 65.32 64.59 62.70 64.57
33.04 32.45 32.11 31.95 32.07 32.69 33.12 33.51 33.96 35.63 35.32 34.45 34.23 33.86 33.50 36.48 38.76 42.26 43.74 46.57 48.08 50.27 52.89 55.70 58.55 63.70 63.26 64.33 65.42 65.11 64.24 62.34
31.08 31.34 31.49 31.54 31.82 31.35 32.09 32.77 33.43 34.08 34.44 33.78 33.15 32.70 34.09 35.61 37.15 38.71 41.21 43.13 44.73 47.10 50.30 52.67 55.85 59.79 63.47 64.07 64.66 63.95 64.68 63.58
31.64 31.64 31.57 30.88 31.63 31.98 32.13 32.46 32.72 33.66 33.03 32.89 32.18 31.40 31.95 32.93 34.76 35.81 37.74 40.52 42.68 45.09 47.85 51.28 55.50 57.61 58.70 63.22 64.30 64.68 64.25 64.30
29.56 28.94 28.88 29.86 30.23 31.33 32.46 33.00 32.08 32.56 32.77 32.48 32.30 32.54 32.53 32.62 33.85 35.67 36.82 38.18 39.82 42.09 45.37 47.51 50.79 53.60 56.91 60.46 62.94 63.37 63.96 63.38
28.69 28.75 28.76 29.39 30.40 31.21 32.61 32.26 31.67 31.96 31.99 32.11 33.63 34.83 35.18 35.80 36.56 37.52 38.25 39.50 40.34 42.29 43.37 44.75 46.59 49.69 51.88 55.27 61.00 62.80 62.91 63.14
27.64 28.27 29.12 29.50 29.83 31.11 32.90 31.39 31.62 31.66 31.92 33.36 34.03 35.88 36.66 37.53 38.37 39.04 39.54 40.95 42.22 43.26 44.12 44.97 46.66 48.28 51.11 54.23 58.73 60.84 60.66 59.89
27.08 27.66 28.51 29.27 30.59 30.66 33.07 31.74 30.87 31.68 32.35 33.56 34.62 35.50 36.37 37.83 39.48 40.02 41.55 43.52 44.20 44.69 45.09 46.07 46.96 47.50 48.79 51.99 56.17 59.92 59.82 58.40
26.22 27.11 27.33 28.07 29.58 29.44 31.54 30.53 30.54 30.92 31.80 33.28 34.17 34.67 35.54 36.42 36.86 37.74 38.50 40.22 41.85 44.94 47.18 47.11 47.65 48.77 49.38 51.57 55.15 58.87 59.17 59.17
25.68 26.05 25.92 26.73 27.48 27.91 29.24 29.38 29.45 30.05 31.50 32.14 33.12 34.75 34.32 34.28 34.53 35.80 37.10 36.95 38.03 38.76 40.07 41.12 43.10 44.49 47.78 49.95 52.33 57.77 58.54 57.62
26.19 25.52 25.41 25.62 26.27 26.08 27.25 27.93 28.18 28.60 29.87 29.93 30.95 32.55 32.95 32.67 32.88 33.69 34.82 35.20 35.42 35.64 36.61 37.13 37.40 38.54 42.95 46.19 48.81 53.15 53.37 53.32
25.34 24.17 24.35 24.89 25.57 25.10 25.78 26.71 27.78 27.30 28.61 27.73 28.31 29.43 31.87 31.84 32.10 31.87 31.92 32.97 33.26 33.73 34.13 34.90 35.44 35.74 36.85 38.53 40.27 42.28 41.85 41.37
23.06 22.81 23.18 23.82 24.54 24.55 25.54 26.27 26.63 26.21 26.61 25.83 25.59 27.61 30.00 31.54 30.58 30.08 30.37 30.03 31.05 32.04 32.53 33.04 33.62 33.65 34.28 35.36 35.65 35.56 35.74 36.53
22.10 22.23 22.46 22.82 24.00 23.98 24.95 25.52 25.59 25.21 24.45 24.03 24.48 25.43 26.85 28.03 29.65 28.68 27.89 27.95 28.18 27.96 29.87 31.05 31.03 32.28 33.76 33.63 33.82 33.51 32.96 32.80
21.22 21.49 21.85 22.49 23.10 24.42 23.48 24.78 25.73 23.75 22.95 23.16 22.28 22.98 23.16 25.24 25.52 26.33 25.39 24.54 24.99 25.89 26.35 28.38 30.02 31.16 33.18 32.99 32.36 31.32 30.92 30.99
20.87 21.60 22.21 22.63 23.34 23.97 24.39 24.91 24.91 24.27 22.77 22.31 21.98 21.09 20.52 21.94 23.50 22.44 23.03 22.89 22.57 22.87 24.70 25.73 28.09 30.72 32.63 32.57 31.96 30.76 30.07 29.94

GFSFLT1_sfc_wetblb_129.txt.gz
Wetbulb
36.80 36.38 36.44 36.06 35.60 36.15 36.54 36.84 37.02 37.37 38.70 39.53 40.64 42.94 42.92 44.66 47.18 48.60 51.29 53.87 56.84 58.72 60.15 60.00 62.60 62.53 65.65 66.52 66.07 66.00 65.47 64.55
35.93 35.51 34.87 34.19 34.17 33.67 34.24 34.20 34.89 35.46 36.32 35.04 36.36 37.26 37.69 41.63 42.16 45.53 48.98 51.17 53.46 54.61 57.17 57.81 56.69 62.11 63.02 64.72 65.72 65.37 64.68 64.58
34.09 33.81 33.03 32.31 32.32 32.50 33.19 32.99 33.54 34.22 35.08 34.49 35.11 35.52 37.05 38.39 41.13 43.57 45.00 47.74 48.84 48.46 50.30 53.25 56.15 59.84 62.11 62.39 64.20 63.65 64.38 64.69
31.63 32.00 31.04 31.02 30.83 31.19 32.33 32.73 33.02 33.68 34.49 34.25 34.08 34.46 35.41 35.92 36.84 37.40 40.43 42.70 44.48 47.63 48.93 50.41 54.06 57.17 60.76 60.47 62.11 63.31 61.70 63.87
31.14 30.35 29.92 30.00 30.66 31.66 32.26 32.96 32.95 34.09 34.17 32.73 31.62 30.63 30.24 32.89 33.86 35.72 37.30 40.31 42.32 44.71 46.19 46.90 50.03 53.55 56.22 60.66 61.54 60.28 61.69 61.16
29.43 29.43 29.78 30.36 30.86 31.30 32.78 34.15 33.19 33.45 32.96 32.67 31.97 30.97 31.82 32.68 33.50 33.90 35.72 37.75 39.89 41.99 44.55 46.54 47.91 51.44 54.92 58.56 60.54 59.76 60.30 61.40
29.33 29.76 29.91 29.46 30.81 32.07 32.85 33.73 31.73 33.16 33.02 32.97 32.40 31.66 31.91 32.65 33.69 33.87 34.53 36.60 38.63 40.14 41.82 43.47 46.55 50.24 53.39 57.47 58.98 61.29 61.34 62.18
27.44 27.17 28.26 29.15 29.95 30.97 31.70 31.75 30.94 32.05 32.10 32.24 32.36 32.48 33.55 34.50 35.02 35.54 36.23 37.54 39.02 40.30 41.07 42.16 43.38 45.31 47.75 48.71 50.62 56.53 60.78 61.85
26.40 27.12 28.12 28.38 29.28 29.54 30.60 30.74 30.64 31.38 32.11 32.31 33.43 34.41 35.11 35.86 37.00 37.78 38.05 38.46 39.53 41.04 42.00 42.63 42.78 43.90 45.11 47.01 49.17 51.61 55.93 60.81
25.87 27.47 27.97 28.08 29.21 28.59 30.56 30.07 29.76 30.23 31.47 32.12 33.08 34.38 35.16 35.54 36.81 38.36 38.93 40.93 41.97 42.75 43.29 43.72 44.07 44.61 45.74 47.21 47.47 49.28 54.47 58.79
25.42 27.03 26.80 27.49 28.14 27.56 29.25 29.31 29.16 30.20 30.80 30.82 32.17 33.40 34.97 35.58 36.01 35.99 37.21 38.75 39.93 40.65 42.88 42.98 45.11 45.50 46.37 47.27 47.40 49.03 51.37 55.54
23.58 23.99 25.63 25.94 26.76 26.80 28.06 28.29 27.98 27.79 29.35 29.48 30.52 31.55 33.57 34.39 34.02 34.74 35.51 36.82 36.94 37.77 39.02 40.45 44.78 46.91 48.45 48.90 49.10 49.19 50.94 55.26
23.70 22.53 21.18 23.33 25.52 26.17 26.56 27.16 26.77 27.09 28.71 28.72 29.12 30.39 32.89 31.86 32.04 32.57 34.13 34.62 35.73 35.85 36.52 37.27 37.80 39.69 43.33 46.91 50.19 51.94 53.50 55.22
23.05 22.15 22.04 22.51 24.84 24.92 25.60 25.94 25.39 25.97 27.34 27.26 27.31 27.56 30.24 30.24 29.88 30.75 30.93 31.81 33.28 33.71 34.18 34.38 34.27 36.00 37.89 41.11 43.84 46.12 43.74 43.57
21.21 21.94 23.27 23.61 24.50 24.45 24.75 25.20 24.97 24.72 25.66 24.96 24.70 25.33 27.41 28.71 28.73 28.10 28.95 29.73 29.86 31.74 32.37 32.68 33.38 33.52 34.99 36.53 37.41 38.61 38.80 39.24
22.01 21.91 22.18 23.58 24.09 24.19 24.96 25.28 24.36 23.73 23.36 22.66 22.79 24.28 26.15 25.85 26.88 26.20 26.31 26.88 28.14 29.09 30.79 31.43 32.10 32.69 33.01 33.17 34.04 34.24 34.64 35.05
21.66 22.06 22.28 22.59 22.99 23.66 24.77 24.65 24.28 24.11 22.41 20.78 21.52 22.08 22.67 24.08 23.58 23.97 23.90 24.18 24.93 26.59 27.69 29.46 29.99 31.38 33.06 33.01 31.67 31.17 31.34 31.39
21.08 21.39 21.81 22.59 22.76 23.92 23.39 24.25 25.00 23.07 22.25 21.03 20.27 19.71 19.28 20.20 21.73 21.60 21.63 21.57 23.16 24.31 25.49 27.77 28.42 29.90 32.38 32.29 31.38 29.66 28.90 28.68
21.21 21.23 21.90 22.29 23.17 23.45 24.38 24.40 23.36 22.59 22.03 21.28 20.64 19.49 18.11 18.22 18.96 19.04 19.46 20.71 21.27 22.08 23.73 24.82 27.03 28.58 30.41 30.75 30.08 28.24 27.51 27.80

GFSFLT1_sfc_wetblb_132.txt.gz
Wetbulb
34.66 34.47 34.15 33.40 33.03 33.70 34.06 34.64 34.62 35.01 36.04 36.00 36.72 37.80 38.13 38.96 41.30 41.67 44.89 49.12 49.85 52.23 53.74 55.53 57.51 58.77 58.29 60.09 62.28 64.68 64.52 64.74
34.13 33.71 32.73 32.16 32.49 32.57 33.19 33.13 33.80 34.05 33.49 33.07 34.00 34.79 35.07 37.52 38.63 41.25 43.48 42.46 47.51 47.63 47.59 49.29 51.70 54.30 56.41 60.51 60.36 61.39 61.67 63.78
32.50 32.03 31.34 30.77 31.12 31.63 32.50 32.60 33.18 33.50 33.73 33.49 33.42 33.25 34.18 35.38 37.45 37.96 38.67 41.22 41.35 42.47 43.82 46.96 49.30 51.03 54.03 58.21 60.09 59.04 59.42 61.34
30.20 30.39 29.78 29.85 29.91 30.36 31.99 32.32 33.25 33.41 33.88 33.19 33.05 33.32 33.39 33.62 33.89 34.33 36.10 37.61 39.12 40.87 43.02 45.02 46.21 48.72 50.51 53.93 59.16 60.02 58.14 59.96
29.71 29.23 28.94 29.02 29.49 30.71 32.14 33.17 32.80 33.17 33.58 32.48 31.91 31.31 30.64 32.73 33.51 34.49 34.95 36.56 37.85 39.77 41.03 41.79 43.16 44.37 46.96 50.19 54.16 60.80 60.48 57.20
28.07 28.22 28.48 28.97 30.48 31.76 31.15 33.78 31.87 33.25 33.27 33.19 32.27 31.45 32.66 33.90 34.15 34.89 36.27 37.41 38.00 38.60 40.20 41.07 42.51 45.01 46.09 48.48 52.40 54.75 60.00 59.41
27.81 28.31 29.18 29.70 31.30 30.37 29.81 32.37 31.58 32.56 31.95 32.69 31.72 31.65 31.86 32.13 33.02 34.09 36.67 38.00 39.15 40.06 41.01 41.28 40.85 41.98 43.79 47.75 52.66 54.80 57.77 59.00
25.73 26.84 27.07 28.52 28.31 27.95 28.73 30.04 29.00 29.91 30.44 31.77 31.91 32.64 33.25 33.45 34.00 35.14 36.26 37.69 38.57 39.68 41.20 41.48 42.09 42.00 42.97 43.93 45.94 47.96 50.06 58.34
25.26 27.10 25.86 26.99 27.09 26.81 27.54 27.72 27.91 28.98 29.46 30.35 29.90 32.18 32.71 34.30 34.91 35.92 37.02 37.77 39.22 41.27 41.62 42.06 42.37 43.25 42.84 43.10 43.99 45.37 48.14 50.10
24.61 26.04 25.52 25.72 26.60 26.00 26.88 27.16 27.49 28.52 28.78 29.76 29.49 30.71 32.87 33.47 34.46 35.75 36.39 37.50 38.55 39.87 40.65 41.32 43.70 44.13 44.40 44.48 44.79 45.23 48.99 50.82
23.99 24.69 24.68 25.06 25.60 25.80 26.27 26.83 27.15 27.72 28.20 28.55 29.25 29.37 32.79 32.75 33.26 33.20 34.72 36.05 36.54 37.16 38.56 39.83 41.45 44.52 44.73 45.11 45.51 46.67 47.80 48.73
21.57 21.62 22.59 23.28 24.17 24.71 25.49 26.52 26.24 25.90 26.56 27.87 28.16 28.50 30.49 30.92 30.59 31.65 31.83 34.54 35.02 35.33 36.22 36.76 37.83 40.24 42.91 46.26 46.57 47.93 48.50 49.14
20.68 18.41 18.07 19.09 20.58 23.39 25.38 26.08 24.50 24.16 25.84 26.68 26.61 27.31 27.95 28.81 28.51 28.97 31.00 31.46 34.33 34.09 34.75 34.94 35.21 36.90 38.72 40.29 43.55 47.85 49.87 50.48
20.04 19.16 19.17 16.95 21.44 24.35 25.24 25.32 23.52 23.93 24.87 24.69 24.44 24.40 25.92 25.80 26.51 27.41 28.41 29.61 31.38 33.02 32.93 33.00 32.94 33.46 35.02 36.45 37.91 39.15 39.53 40.59
19.74 19.87 22.03 23.05 24.50 24.50 24.59 24.46 23.62 23.50 22.65 22.52 22.11 22.37 23.71 24.25 24.93 25.40 26.46 28.19 28.83 30.64 31.49 31.92 32.18 31.95 32.07 32.67 33.37 34.09 34.86 35.27
21.62 21.16 21.84 23.31 23.93 24.18 24.82 23.87 22.84 23.25 21.46 20.67 20.29 21.17 22.24 23.22 23.18 24.20 25.14 25.98 27.18 28.86 29.00 29.44 30.76 31.24 31.49 30.46 30.74 30.24 30.41 31.01
21.89 22.11 22.62 22.88 23.36 23.47 24.20 23.68 22.66 23.40 20.66 19.47 20.36 20.09 20.04 20.86 21.37 22.02 22.95 23.87 25.10 24.98 26.42 27.25 28.07 29.93 31.12 30.57 28.89 27.97 28.50 27.92
21.59 21.60 22.29 22.87 22.70 23.78 22.78 22.80 23.32 22.45 20.98 20.15 19.69 19.55 18.47 18.83 20.43 20.65 20.57 21.40 23.10 23.37 23.21 24.74 25.35 27.19 29.73 29.34 28.07 26.22 25.74 26.77
21.63 21.30 22.05 22.05 22.79 22.94 23.61 22.46 21.99 21.63 20.98 20.40 20.02 19.10 17.99 18.04 18.28 18.81 19.45 20.44 20.71 21.45 21.87 22.07 23.37 25.45 27.26 27.38 26.55 24.43 23.79 24.16